<?xml version='1.0' encoding='UTF-8'?><gpx version="1.1" creator="JPX - https://github.com/jenetics/jpx" xmlns="http://www.topografix.com/GPX/1/1"><trk><trkseg><trkpt lat="43.3498721" lon="13.098049"><ele>627.0</ele><time>2026-03-29T07:41:39.05Z</time></trkpt><trkpt lat="43.3498907" lon="13.0979523"><ele>627.0</ele><time>2026-03-29T07:41:44.779Z</time></trkpt><trkpt lat="43.3499221" lon="13.0978733"><ele>627.0</ele><time>2026-03-29T07:41:50.955Z</time></trkpt><trkpt lat="43.3499676" lon="13.0977972"><ele>627.0</ele><time>2026-03-29T07:41:57.038Z</time></trkpt><trkpt lat="43.3500154" lon="13.0977252"><ele>627.0</ele><time>2026-03-29T07:42:05.043Z</time></trkpt><trkpt lat="43.3500084" lon="13.0976321"><ele>627.0</ele><time>2026-03-29T07:42:10.991Z</time></trkpt><trkpt lat="43.3500057" lon="13.097539"><ele>627.0</ele><time>2026-03-29T07:42:19.041Z</time></trkpt><trkpt lat="43.3500522" lon="13.0974713"><ele>627.0</ele><time>2026-03-29T07:42:28.038Z</time></trkpt><trkpt lat="43.3500958" lon="13.0973963"><ele>627.0</ele><time>2026-03-29T07:42:34.049Z</time></trkpt><trkpt lat="43.3501379" lon="13.0973294"><ele>627.0</ele><time>2026-03-29T07:42:39.051Z</time></trkpt><trkpt lat="43.3501392" lon="13.0972403"><ele>627.0</ele><time>2026-03-29T07:42:45.042Z</time></trkpt><trkpt lat="43.3501764" lon="13.0971652"><ele>627.0</ele><time>2026-03-29T07:42:51.059Z</time></trkpt><trkpt lat="43.35022" lon="13.0970881"><ele>627.0</ele><time>2026-03-29T07:42:59.048Z</time></trkpt><trkpt lat="43.3502517" lon="13.096983"><ele>627.0</ele><time>2026-03-29T07:43:05.038Z</time></trkpt><trkpt lat="43.3503205" lon="13.0969234"><ele>627.0</ele><time>2026-03-29T07:43:08.115Z</time></trkpt><trkpt lat="43.3503428" lon="13.0968371"><ele>627.0</ele><time>2026-03-29T07:43:13.044Z</time></trkpt><trkpt lat="43.3503694" lon="13.0967524"><ele>627.0</ele><time>2026-03-29T07:43:18.047Z</time></trkpt><trkpt lat="43.3503863" lon="13.0966502"><ele>627.0</ele><time>2026-03-29T07:43:25.031Z</time></trkpt><trkpt lat="43.3504031" lon="13.0965542"><ele>627.0</ele><time>2026-03-29T07:43:30.046Z</time></trkpt><trkpt lat="43.3504185" lon="13.0964589"><ele>627.0</ele><time>2026-03-29T07:43:34.036Z</time></trkpt><trkpt lat="43.3504189" lon="13.0963714"><ele>627.0</ele><time>2026-03-29T07:43:39.044Z</time></trkpt><trkpt lat="43.3504382" lon="13.0962844"><ele>626.1428571428571</ele><time>2026-03-29T07:43:43.04Z</time></trkpt><trkpt lat="43.3504397" lon="13.096181"><ele>625.2857142857142</ele><time>2026-03-29T07:43:48.029Z</time></trkpt><trkpt lat="43.3504486" lon="13.0960885"><ele>624.4285714285713</ele><time>2026-03-29T07:43:53.038Z</time></trkpt><trkpt lat="43.3504665" lon="13.0960034"><ele>623.5714285714286</ele><time>2026-03-29T07:43:56.031Z</time></trkpt><trkpt lat="43.3504956" lon="13.0959139"><ele>622.7142857142857</ele><time>2026-03-29T07:43:59.064Z</time></trkpt><trkpt lat="43.3505455" lon="13.0958524"><ele>621.8571428571428</ele><time>2026-03-29T07:44:05.036Z</time></trkpt><trkpt lat="43.350605" lon="13.0958844"><ele>621.0</ele><time>2026-03-29T07:44:11.034Z</time></trkpt><trkpt lat="43.3506427" lon="13.0957869"><ele>626.1428571428571</ele><time>2026-03-29T07:44:33.055Z</time></trkpt><trkpt lat="43.3506697" lon="13.0956976"><ele>631.2857142857142</ele><time>2026-03-29T07:44:42.96Z</time></trkpt><trkpt lat="43.3507052" lon="13.0956229"><ele>636.4285714285713</ele><time>2026-03-29T07:44:49.969Z</time></trkpt><trkpt lat="43.3507462" lon="13.0955388"><ele>641.5714285714286</ele><time>2026-03-29T07:44:55.963Z</time></trkpt><trkpt lat="43.3507958" lon="13.0954756"><ele>646.7142857142858</ele><time>2026-03-29T07:45:01.953Z</time></trkpt><trkpt lat="43.3508219" lon="13.0953896"><ele>651.8571428571428</ele><time>2026-03-29T07:45:10.964Z</time></trkpt><trkpt lat="43.3508513" lon="13.095306"><ele>657.0</ele><time>2026-03-29T07:45:18.973Z</time></trkpt><trkpt lat="43.3509045" lon="13.0952433"><ele>657.0</ele><time>2026-03-29T07:45:25.969Z</time></trkpt><trkpt lat="43.3509472" lon="13.0951784"><ele>657.0</ele><time>2026-03-29T07:45:31.962Z</time></trkpt><trkpt lat="43.3509859" lon="13.0951095"><ele>657.0</ele><time>2026-03-29T07:45:37.965Z</time></trkpt><trkpt lat="43.3510168" lon="13.0950248"><ele>657.0</ele><time>2026-03-29T07:45:43.96Z</time></trkpt><trkpt lat="43.3510416" lon="13.0949312"><ele>657.0</ele><time>2026-03-29T07:45:47.966Z</time></trkpt><trkpt lat="43.3510683" lon="13.0948463"><ele>657.0</ele><time>2026-03-29T07:45:51.972Z</time></trkpt><trkpt lat="43.3510959" lon="13.0947611"><ele>657.0</ele><time>2026-03-29T07:45:56.036Z</time></trkpt><trkpt lat="43.3511435" lon="13.0946999"><ele>655.4285714285714</ele><time>2026-03-29T07:46:01.99Z</time></trkpt><trkpt lat="43.3511871" lon="13.0946297"><ele>653.8571428571429</ele><time>2026-03-29T07:46:10.036Z</time></trkpt><trkpt lat="43.351241" lon="13.0945673"><ele>652.2857142857143</ele><time>2026-03-29T07:46:18.995Z</time></trkpt><trkpt lat="43.3512903" lon="13.0945074"><ele>650.7142857142858</ele><time>2026-03-29T07:46:28.97Z</time></trkpt><trkpt lat="43.3513439" lon="13.0944497"><ele>649.1428571428571</ele><time>2026-03-29T07:46:34.96Z</time></trkpt><trkpt lat="43.3513862" lon="13.0943821"><ele>647.5714285714287</ele><time>2026-03-29T07:46:42.962Z</time></trkpt><trkpt lat="43.3514348" lon="13.0943127"><ele>646.0</ele><time>2026-03-29T07:46:49.965Z</time></trkpt><trkpt lat="43.3514778" lon="13.0942437"><ele>651.8571428571429</ele><time>2026-03-29T07:46:57.971Z</time></trkpt><trkpt lat="43.3515318" lon="13.0941949"><ele>657.7142857142858</ele><time>2026-03-29T07:47:05.968Z</time></trkpt><trkpt lat="43.3515916" lon="13.0941522"><ele>663.5714285714287</ele><time>2026-03-29T07:47:15.971Z</time></trkpt><trkpt lat="43.3516396" lon="13.0940834"><ele>669.4285714285714</ele><time>2026-03-29T07:47:24.972Z</time></trkpt><trkpt lat="43.3516875" lon="13.0940184"><ele>675.2857142857142</ele><time>2026-03-29T07:47:32.969Z</time></trkpt><trkpt lat="43.3517427" lon="13.0939695"><ele>681.1428571428572</ele><time>2026-03-29T07:47:39.969Z</time></trkpt><trkpt lat="43.3517774" lon="13.0938942"><ele>687.0</ele><time>2026-03-29T07:47:46.975Z</time></trkpt><trkpt lat="43.3518285" lon="13.0938299"><ele>687.0</ele><time>2026-03-29T07:47:56.97Z</time></trkpt><trkpt lat="43.3518646" lon="13.0937477"><ele>687.0</ele><time>2026-03-29T07:48:04.969Z</time></trkpt><trkpt lat="43.3518905" lon="13.0936536"><ele>687.0</ele><time>2026-03-29T07:48:12.039Z</time></trkpt><trkpt lat="43.3519251" lon="13.0935682"><ele>687.0</ele><time>2026-03-29T07:48:17.958Z</time></trkpt><trkpt lat="43.3519506" lon="13.0934765"><ele>687.0</ele><time>2026-03-29T07:48:24.97Z</time></trkpt><trkpt lat="43.3519785" lon="13.0933885"><ele>687.0</ele><time>2026-03-29T07:48:30.97Z</time></trkpt><trkpt lat="43.3520181" lon="13.0933005"><ele>687.0</ele><time>2026-03-29T07:48:37.988Z</time></trkpt><trkpt lat="43.352042" lon="13.0931949"><ele>686.1428571428572</ele><time>2026-03-29T07:48:41.965Z</time></trkpt><trkpt lat="43.3520745" lon="13.0931142"><ele>685.2857142857142</ele><time>2026-03-29T07:48:47.971Z</time></trkpt><trkpt lat="43.3521254" lon="13.0930523"><ele>684.4285714285714</ele><time>2026-03-29T07:48:55.964Z</time></trkpt><trkpt lat="43.3521695" lon="13.0929847"><ele>683.5714285714287</ele><time>2026-03-29T07:49:02.972Z</time></trkpt><trkpt lat="43.3522027" lon="13.0929099"><ele>682.7142857142858</ele><time>2026-03-29T07:49:07.953Z</time></trkpt><trkpt lat="43.3522196" lon="13.0928152"><ele>681.8571428571429</ele><time>2026-03-29T07:49:12.954Z</time></trkpt><trkpt lat="43.3522106" lon="13.0926987"><ele>681.0</ele><time>2026-03-29T07:49:19.982Z</time></trkpt><trkpt lat="43.3522424" lon="13.0926165"><ele>687.1428571428572</ele><time>2026-03-29T07:49:26.955Z</time></trkpt><trkpt lat="43.3523038" lon="13.092585"><ele>693.2857142857143</ele><time>2026-03-29T07:49:38.959Z</time></trkpt><trkpt lat="43.3523517" lon="13.0925177"><ele>699.4285714285714</ele><time>2026-03-29T07:49:53.969Z</time></trkpt><trkpt lat="43.3523876" lon="13.0924421"><ele>705.5714285714287</ele><time>2026-03-29T07:50:07.971Z</time></trkpt><trkpt lat="43.3524477" lon="13.0924116"><ele>711.7142857142857</ele><time>2026-03-29T07:50:17.964Z</time></trkpt><trkpt lat="43.3524725" lon="13.0923216"><ele>717.8571428571429</ele><time>2026-03-29T07:50:23.953Z</time></trkpt><trkpt lat="43.3524931" lon="13.092237"><ele>724.0</ele><time>2026-03-29T07:50:29.039Z</time></trkpt><trkpt lat="43.3525247" lon="13.0921601"><ele>724.4285714285714</ele><time>2026-03-29T07:50:38.072Z</time></trkpt><trkpt lat="43.3525441" lon="13.0920762"><ele>724.8571428571429</ele><time>2026-03-29T07:50:43.976Z</time></trkpt><trkpt lat="43.3525573" lon="13.0919783"><ele>725.2857142857142</ele><time>2026-03-29T07:50:50.963Z</time></trkpt><trkpt lat="43.3525961" lon="13.0918873"><ele>725.7142857142858</ele><time>2026-03-29T07:51:01.98Z</time></trkpt><trkpt lat="43.3526317" lon="13.0918024"><ele>726.1428571428572</ele><time>2026-03-29T07:51:08.964Z</time></trkpt><trkpt lat="43.3526689" lon="13.0917258"><ele>726.5714285714286</ele><time>2026-03-29T07:51:18.972Z</time></trkpt><trkpt lat="43.3527003" lon="13.0916458"><ele>727.0</ele><time>2026-03-29T07:51:25.967Z</time></trkpt><trkpt lat="43.3527296" lon="13.09156"><ele>727.4285714285714</ele><time>2026-03-29T07:51:32.958Z</time></trkpt><trkpt lat="43.3527592" lon="13.0914758"><ele>727.8571428571429</ele><time>2026-03-29T07:51:38.959Z</time></trkpt><trkpt lat="43.3527407" lon="13.091386"><ele>728.2857142857143</ele><time>2026-03-29T07:51:44.946Z</time></trkpt><trkpt lat="43.3527463" lon="13.0912843"><ele>728.7142857142858</ele><time>2026-03-29T07:51:49.942Z</time></trkpt><trkpt lat="43.3527714" lon="13.0911792"><ele>729.1428571428571</ele><time>2026-03-29T07:51:58.962Z</time></trkpt><trkpt lat="43.3528003" lon="13.0910987"><ele>729.5714285714287</ele><time>2026-03-29T07:52:04.956Z</time></trkpt><trkpt lat="43.3528337" lon="13.0910214"><ele>730.0</ele><time>2026-03-29T07:52:09.938Z</time></trkpt><trkpt lat="43.3528674" lon="13.0909368"><ele>730.0000000000001</ele><time>2026-03-29T07:52:24.944Z</time></trkpt><trkpt lat="43.3528946" lon="13.0908411"><ele>730.0</ele><time>2026-03-29T07:52:36.961Z</time></trkpt><trkpt lat="43.3529273" lon="13.0907661"><ele>730.0</ele><time>2026-03-29T07:52:45.952Z</time></trkpt><trkpt lat="43.3529456" lon="13.0906663"><ele>730.0</ele><time>2026-03-29T07:52:53.955Z</time></trkpt><trkpt lat="43.3529864" lon="13.0905929"><ele>730.0</ele><time>2026-03-29T07:53:00.912Z</time></trkpt><trkpt lat="43.3529701" lon="13.0904988"><ele>730.0000000000001</ele><time>2026-03-29T07:53:07.958Z</time></trkpt><trkpt lat="43.3529923" lon="13.0904084"><ele>730.0</ele><time>2026-03-29T07:53:13.943Z</time></trkpt><trkpt lat="43.3530176" lon="13.0903129"><ele>730.8571428571429</ele><time>2026-03-29T07:53:19.954Z</time></trkpt><trkpt lat="43.3530341" lon="13.0902214"><ele>731.7142857142858</ele><time>2026-03-29T07:53:25.971Z</time></trkpt><trkpt lat="43.353037" lon="13.0901321"><ele>732.5714285714287</ele><time>2026-03-29T07:53:30.947Z</time></trkpt><trkpt lat="43.3530485" lon="13.0900425"><ele>733.4285714285714</ele><time>2026-03-29T07:53:37.655Z</time></trkpt><trkpt lat="43.3530635" lon="13.0899574"><ele>734.2857142857142</ele><time>2026-03-29T07:53:43.959Z</time></trkpt><trkpt lat="43.3530751" lon="13.0898578"><ele>735.1428571428572</ele><time>2026-03-29T07:53:49.958Z</time></trkpt><trkpt lat="43.353092" lon="13.0897687"><ele>736.0</ele><time>2026-03-29T07:53:55.961Z</time></trkpt><trkpt lat="43.3530873" lon="13.0896672"><ele>737.1428571428572</ele><time>2026-03-29T07:54:00.958Z</time></trkpt><trkpt lat="43.3530695" lon="13.0895742"><ele>738.2857142857142</ele><time>2026-03-29T07:54:04.961Z</time></trkpt><trkpt lat="43.3530619" lon="13.089476"><ele>739.4285714285714</ele><time>2026-03-29T07:54:08.957Z</time></trkpt><trkpt lat="43.3530624" lon="13.0893886"><ele>740.5714285714287</ele><time>2026-03-29T07:54:12.973Z</time></trkpt><trkpt lat="43.3530651" lon="13.0892939"><ele>741.7142857142858</ele><time>2026-03-29T07:54:18.95Z</time></trkpt><trkpt lat="43.3530547" lon="13.0891978"><ele>742.8571428571429</ele><time>2026-03-29T07:54:22.956Z</time></trkpt><trkpt lat="43.3530351" lon="13.0891074"><ele>744.0</ele><time>2026-03-29T07:54:28.693Z</time></trkpt><trkpt lat="43.3530249" lon="13.0890094"><ele>746.1428571428572</ele><time>2026-03-29T07:54:34.956Z</time></trkpt><trkpt lat="43.3530234" lon="13.0889122"><ele>748.2857142857143</ele><time>2026-03-29T07:54:40.921Z</time></trkpt><trkpt lat="43.3530183" lon="13.0888185"><ele>750.4285714285714</ele><time>2026-03-29T07:54:46.957Z</time></trkpt><trkpt lat="43.3530094" lon="13.0887293"><ele>752.5714285714287</ele><time>2026-03-29T07:54:51.858Z</time></trkpt><trkpt lat="43.3530041" lon="13.0886271"><ele>754.7142857142857</ele><time>2026-03-29T07:54:57.969Z</time></trkpt><trkpt lat="43.3529879" lon="13.0885325"><ele>756.8571428571429</ele><time>2026-03-29T07:55:02.9Z</time></trkpt><trkpt lat="43.3529873" lon="13.0884394"><ele>759.0</ele><time>2026-03-29T07:55:08.955Z</time></trkpt><trkpt lat="43.3529592" lon="13.0883384"><ele>760.4285714285714</ele><time>2026-03-29T07:55:13.95Z</time></trkpt><trkpt lat="43.3529551" lon="13.0882388"><ele>761.8571428571429</ele><time>2026-03-29T07:55:17.954Z</time></trkpt><trkpt lat="43.3529527" lon="13.0881512"><ele>763.2857142857142</ele><time>2026-03-29T07:55:21.956Z</time></trkpt><trkpt lat="43.3529541" lon="13.0880541"><ele>764.7142857142858</ele><time>2026-03-29T07:55:27.966Z</time></trkpt><trkpt lat="43.352945" lon="13.0879617"><ele>766.1428571428572</ele><time>2026-03-29T07:55:32.948Z</time></trkpt><trkpt lat="43.3529474" lon="13.0878587"><ele>767.5714285714286</ele><time>2026-03-29T07:55:38.955Z</time></trkpt><trkpt lat="43.3529477" lon="13.0877708"><ele>769.0</ele><time>2026-03-29T07:55:43.968Z</time></trkpt><trkpt lat="43.3529299" lon="13.0876722"><ele>769.0</ele><time>2026-03-29T07:55:48.943Z</time></trkpt><trkpt lat="43.3529238" lon="13.0875705"><ele>769.0</ele><time>2026-03-29T07:55:52.946Z</time></trkpt><trkpt lat="43.3529242" lon="13.0874792"><ele>769.0</ele><time>2026-03-29T07:55:56.912Z</time></trkpt><trkpt lat="43.3529096" lon="13.0873798"><ele>769.0</ele><time>2026-03-29T07:56:01.956Z</time></trkpt><trkpt lat="43.3528964" lon="13.087272"><ele>769.0</ele><time>2026-03-29T07:56:05.726Z</time></trkpt><trkpt lat="43.352899" lon="13.0871746"><ele>769.0</ele><time>2026-03-29T07:56:09.947Z</time></trkpt><trkpt lat="43.3529076" lon="13.0870764"><ele>769.0</ele><time>2026-03-29T07:56:13.891Z</time></trkpt><trkpt lat="43.3528877" lon="13.0869598"><ele>770.4999999999999</ele><time>2026-03-29T07:56:17.939Z</time></trkpt><trkpt lat="43.3528774" lon="13.0868338"><ele>772.0</ele><time>2026-03-29T07:56:20.95Z</time></trkpt><trkpt lat="43.3528867" lon="13.0867349"><ele>773.5</ele><time>2026-03-29T07:56:22.948Z</time></trkpt><trkpt lat="43.352869" lon="13.0866031"><ele>775.0</ele><time>2026-03-29T07:56:25.939Z</time></trkpt><trkpt lat="43.3528585" lon="13.0864812"><ele>776.4999999999999</ele><time>2026-03-29T07:56:28.948Z</time></trkpt><trkpt lat="43.3528455" lon="13.0863547"><ele>778.0</ele><time>2026-03-29T07:56:31.954Z</time></trkpt><trkpt lat="43.3528399" lon="13.0862419"><ele>779.1428571428572</ele><time>2026-03-29T07:56:34.95Z</time></trkpt><trkpt lat="43.3528185" lon="13.0861415"><ele>780.2857142857142</ele><time>2026-03-29T07:56:37.933Z</time></trkpt><trkpt lat="43.3528066" lon="13.0860369"><ele>781.4285714285714</ele><time>2026-03-29T07:56:40.961Z</time></trkpt><trkpt lat="43.3528066" lon="13.0859478"><ele>782.5714285714287</ele><time>2026-03-29T07:56:44.848Z</time></trkpt><trkpt lat="43.3527986" lon="13.0858548"><ele>783.7142857142858</ele><time>2026-03-29T07:56:48.849Z</time></trkpt><trkpt lat="43.3528052" lon="13.0857656"><ele>784.8571428571429</ele><time>2026-03-29T07:56:52.792Z</time></trkpt><trkpt lat="43.3528048" lon="13.085665"><ele>786.0</ele><time>2026-03-29T07:56:56.966Z</time></trkpt><trkpt lat="43.3527985" lon="13.085558"><ele>787.8571428571429</ele><time>2026-03-29T07:57:00.95Z</time></trkpt><trkpt lat="43.3528095" lon="13.0854663"><ele>789.7142857142858</ele><time>2026-03-29T07:57:03.893Z</time></trkpt><trkpt lat="43.3528305" lon="13.0853623"><ele>791.5714285714287</ele><time>2026-03-29T07:57:07.945Z</time></trkpt><trkpt lat="43.3528287" lon="13.0852647"><ele>793.4285714285714</ele><time>2026-03-29T07:57:11.872Z</time></trkpt><trkpt lat="43.3528177" lon="13.0851568"><ele>795.2857142857142</ele><time>2026-03-29T07:57:15.965Z</time></trkpt><trkpt lat="43.3528007" lon="13.0850553"><ele>797.1428571428572</ele><time>2026-03-29T07:57:19.96Z</time></trkpt><trkpt lat="43.3527778" lon="13.0849622"><ele>799.0</ele><time>2026-03-29T07:57:26.97Z</time></trkpt><trkpt lat="43.3527695" lon="13.0848652"><ele>801.2857142857143</ele><time>2026-03-29T07:57:32.966Z</time></trkpt><trkpt lat="43.35275" lon="13.0847636"><ele>803.5714285714286</ele><time>2026-03-29T07:57:39.947Z</time></trkpt><trkpt lat="43.3527311" lon="13.0846636"><ele>805.8571428571429</ele><time>2026-03-29T07:57:43.951Z</time></trkpt><trkpt lat="43.3526705" lon="13.0845718"><ele>808.1428571428571</ele><time>2026-03-29T07:57:49.943Z</time></trkpt><trkpt lat="43.3526608" lon="13.0844816"><ele>810.4285714285713</ele><time>2026-03-29T07:57:54.997Z</time></trkpt><trkpt lat="43.352633" lon="13.0844024"><ele>812.7142857142857</ele><time>2026-03-29T07:58:02.971Z</time></trkpt><trkpt lat="43.3526035" lon="13.0843163"><ele>815.0</ele><time>2026-03-29T07:58:10.958Z</time></trkpt><trkpt lat="43.3525292" lon="13.0842802"><ele>815.0</ele><time>2026-03-29T07:58:17.939Z</time></trkpt><trkpt lat="43.3524725" lon="13.0842389"><ele>815.0</ele><time>2026-03-29T07:58:22.953Z</time></trkpt><trkpt lat="43.3524169" lon="13.084196"><ele>815.0</ele><time>2026-03-29T07:58:33.95Z</time></trkpt><trkpt lat="43.3523636" lon="13.0841451"><ele>815.0</ele><time>2026-03-29T07:58:48.966Z</time></trkpt><trkpt lat="43.3524079" lon="13.0840714"><ele>815.0</ele><time>2026-03-29T07:59:08.877Z</time></trkpt><trkpt lat="43.3524508" lon="13.0840065"><ele>815.0</ele><time>2026-03-29T07:59:11.955Z</time></trkpt><trkpt lat="43.3524818" lon="13.0839199"><ele>815.0</ele><time>2026-03-29T07:59:19.964Z</time></trkpt><trkpt lat="43.3525162" lon="13.0838357"><ele>817.1428571428571</ele><time>2026-03-29T07:59:28.939Z</time></trkpt><trkpt lat="43.3525577" lon="13.0837613"><ele>819.2857142857142</ele><time>2026-03-29T07:59:37.942Z</time></trkpt><trkpt lat="43.3526058" lon="13.0837052"><ele>821.4285714285714</ele><time>2026-03-29T07:59:43.956Z</time></trkpt><trkpt lat="43.3526339" lon="13.083618"><ele>823.5714285714286</ele><time>2026-03-29T07:59:51.953Z</time></trkpt><trkpt lat="43.3526571" lon="13.0835288"><ele>825.7142857142858</ele><time>2026-03-29T08:00:00.966Z</time></trkpt><trkpt lat="43.3526889" lon="13.083448"><ele>827.8571428571429</ele><time>2026-03-29T08:00:11.96Z</time></trkpt><trkpt lat="43.3527031" lon="13.0833626"><ele>830.0</ele><time>2026-03-29T08:00:20.956Z</time></trkpt><trkpt lat="43.3526816" lon="13.0832782"><ele>832.7142857142858</ele><time>2026-03-29T08:00:30.96Z</time></trkpt><trkpt lat="43.3526823" lon="13.0831914"><ele>835.4285714285714</ele><time>2026-03-29T08:00:40.952Z</time></trkpt><trkpt lat="43.3526542" lon="13.0831052"><ele>838.1428571428571</ele><time>2026-03-29T08:00:54.884Z</time></trkpt><trkpt lat="43.3525995" lon="13.0830495"><ele>840.8571428571429</ele><time>2026-03-29T08:01:08.948Z</time></trkpt><trkpt lat="43.3525788" lon="13.0829624"><ele>843.5714285714286</ele><time>2026-03-29T08:01:17.957Z</time></trkpt><trkpt lat="43.3525735" lon="13.0828694"><ele>846.2857142857143</ele><time>2026-03-29T08:01:25.962Z</time></trkpt><trkpt lat="43.3526107" lon="13.082795"><ele>849.0</ele><time>2026-03-29T08:01:38.971Z</time></trkpt><trkpt lat="43.3526313" lon="13.0827056"><ele>849.0000000000001</ele><time>2026-03-29T08:01:52.866Z</time></trkpt><trkpt lat="43.3526331" lon="13.0826182"><ele>849.0</ele><time>2026-03-29T08:02:03.956Z</time></trkpt><trkpt lat="43.3526129" lon="13.0825338"><ele>849.0</ele><time>2026-03-29T08:02:19.963Z</time></trkpt><trkpt lat="43.3525936" lon="13.0824471"><ele>849.0</ele><time>2026-03-29T08:02:31.953Z</time></trkpt><trkpt lat="43.3525811" lon="13.0823603"><ele>849.0</ele><time>2026-03-29T08:02:39.977Z</time></trkpt><trkpt lat="43.3525523" lon="13.0822702"><ele>849.0000000000001</ele><time>2026-03-29T08:02:49.96Z</time></trkpt><trkpt lat="43.3525355" lon="13.0821707"><ele>849.0</ele><time>2026-03-29T08:02:53.954Z</time></trkpt><trkpt lat="43.3525262" lon="13.0820814"><ele>850.8571428571429</ele><time>2026-03-29T08:03:01.96Z</time></trkpt><trkpt lat="43.3525176" lon="13.0819816"><ele>852.7142857142858</ele><time>2026-03-29T08:03:11.961Z</time></trkpt><trkpt lat="43.3525021" lon="13.0818912"><ele>854.5714285714287</ele><time>2026-03-29T08:03:19.971Z</time></trkpt><trkpt lat="43.3525019" lon="13.0817974"><ele>856.4285714285714</ele><time>2026-03-29T08:03:26.94Z</time></trkpt><trkpt lat="43.3525003" lon="13.0817075"><ele>858.2857142857142</ele><time>2026-03-29T08:03:35.964Z</time></trkpt><trkpt lat="43.3524806" lon="13.0816229"><ele>860.1428571428572</ele><time>2026-03-29T08:03:41.95Z</time></trkpt><trkpt lat="43.352462" lon="13.0815349"><ele>862.0</ele><time>2026-03-29T08:03:48.962Z</time></trkpt><trkpt lat="43.3524505" lon="13.0814346"><ele>863.9999999999999</ele><time>2026-03-29T08:03:57.95Z</time></trkpt><trkpt lat="43.3524378" lon="13.0813391"><ele>866.0</ele><time>2026-03-29T08:04:02.944Z</time></trkpt><trkpt lat="43.3524384" lon="13.0812389"><ele>868.0</ele><time>2026-03-29T08:04:08.94Z</time></trkpt><trkpt lat="43.3524333" lon="13.0811511"><ele>870.0</ele><time>2026-03-29T08:04:14.95Z</time></trkpt><trkpt lat="43.352442" lon="13.0810579"><ele>871.9999999999999</ele><time>2026-03-29T08:04:23.938Z</time></trkpt><trkpt lat="43.3524248" lon="13.0809734"><ele>874.0</ele><time>2026-03-29T08:04:32.939Z</time></trkpt><trkpt lat="43.3524127" lon="13.0807775"><ele>876.1428571428571</ele><time>2026-03-29T08:04:56.94Z</time></trkpt><trkpt lat="43.3524095" lon="13.0806828"><ele>878.2857142857143</ele><time>2026-03-29T08:05:07.96Z</time></trkpt><trkpt lat="43.3523978" lon="13.0805948"><ele>880.4285714285714</ele><time>2026-03-29T08:05:18.94Z</time></trkpt><trkpt lat="43.3523806" lon="13.0805079"><ele>882.5714285714286</ele><time>2026-03-29T08:05:30.961Z</time></trkpt><trkpt lat="43.3523598" lon="13.0804227"><ele>884.7142857142858</ele><time>2026-03-29T08:05:39.952Z</time></trkpt><trkpt lat="43.3523466" lon="13.0803377"><ele>886.8571428571429</ele><time>2026-03-29T08:05:53.954Z</time></trkpt><trkpt lat="43.3523311" lon="13.0802498"><ele>889.0</ele><time>2026-03-29T08:06:05.903Z</time></trkpt><trkpt lat="43.3523134" lon="13.0801635"><ele>889.0</ele><time>2026-03-29T08:06:20.957Z</time></trkpt><trkpt lat="43.3523011" lon="13.0800724"><ele>889.0</ele><time>2026-03-29T08:06:31.961Z</time></trkpt><trkpt lat="43.3522856" lon="13.0799844"><ele>889.0</ele><time>2026-03-29T08:06:41.965Z</time></trkpt><trkpt lat="43.35227" lon="13.0798962"><ele>889.0</ele><time>2026-03-29T08:06:51.965Z</time></trkpt><trkpt lat="43.3522646" lon="13.0798036"><ele>889.0</ele><time>2026-03-29T08:07:03.895Z</time></trkpt><trkpt lat="43.3522749" lon="13.0797178"><ele>889.0</ele><time>2026-03-29T08:07:12.956Z</time></trkpt><trkpt lat="43.352284" lon="13.0796234"><ele>889.0</ele><time>2026-03-29T08:07:27.954Z</time></trkpt><trkpt lat="43.3522603" lon="13.0795345"><ele>891.1428571428571</ele><time>2026-03-29T08:07:39.969Z</time></trkpt><trkpt lat="43.3522463" lon="13.0794444"><ele>893.2857142857142</ele><time>2026-03-29T08:07:49.966Z</time></trkpt><trkpt lat="43.352241" lon="13.0793543"><ele>895.4285714285714</ele><time>2026-03-29T08:08:06.956Z</time></trkpt><trkpt lat="43.3522294" lon="13.0792598"><ele>897.5714285714286</ele><time>2026-03-29T08:08:18.949Z</time></trkpt><trkpt lat="43.3522253" lon="13.0791728"><ele>899.7142857142857</ele><time>2026-03-29T08:08:24.96Z</time></trkpt><trkpt lat="43.3522077" lon="13.0790764"><ele>901.8571428571429</ele><time>2026-03-29T08:08:38.069Z</time></trkpt><trkpt lat="43.3521608" lon="13.079011"><ele>904.0</ele><time>2026-03-29T08:08:42.958Z</time></trkpt><trkpt lat="43.3521249" lon="13.0789257"><ele>906.4285714285714</ele><time>2026-03-29T08:08:51.962Z</time></trkpt><trkpt lat="43.3521117" lon="13.0788292"><ele>908.8571428571429</ele><time>2026-03-29T08:09:00.963Z</time></trkpt><trkpt lat="43.3520909" lon="13.0787351"><ele>911.2857142857143</ele><time>2026-03-29T08:09:06.966Z</time></trkpt><trkpt lat="43.352077" lon="13.0786472"><ele>913.7142857142858</ele><time>2026-03-29T08:09:12.958Z</time></trkpt><trkpt lat="43.3520596" lon="13.0785541"><ele>916.1428571428571</ele><time>2026-03-29T08:09:18.038Z</time></trkpt><trkpt lat="43.3520309" lon="13.0784669"><ele>918.5714285714287</ele><time>2026-03-29T08:09:21.879Z</time></trkpt><trkpt lat="43.3519928" lon="13.0783758"><ele>921.0000000000001</ele><time>2026-03-29T08:09:26.954Z</time></trkpt><trkpt lat="43.3519701" lon="13.078292"><ele>922.7142857142858</ele><time>2026-03-29T08:09:31.037Z</time></trkpt><trkpt lat="43.3519458" lon="13.0782059"><ele>924.4285714285714</ele><time>2026-03-29T08:09:36.962Z</time></trkpt><trkpt lat="43.351909" lon="13.0781258"><ele>926.1428571428571</ele><time>2026-03-29T08:09:40.967Z</time></trkpt><trkpt lat="43.3518831" lon="13.0780379"><ele>927.8571428571429</ele><time>2026-03-29T08:09:45.968Z</time></trkpt><trkpt lat="43.3518649" lon="13.0779469"><ele>929.5714285714284</ele><time>2026-03-29T08:09:50.93Z</time></trkpt><trkpt lat="43.3518373" lon="13.0778577"><ele>931.2857142857142</ele><time>2026-03-29T08:09:55.958Z</time></trkpt><trkpt lat="43.3518298" lon="13.0777608"><ele>933.0</ele><time>2026-03-29T08:10:00.964Z</time></trkpt><trkpt lat="43.3518207" lon="13.0776723"><ele>933.0</ele><time>2026-03-29T08:10:04.959Z</time></trkpt><trkpt lat="43.3517887" lon="13.0775767"><ele>932.9999999999999</ele><time>2026-03-29T08:10:08.903Z</time></trkpt><trkpt lat="43.3517462" lon="13.077492"><ele>933.0</ele><time>2026-03-29T08:10:12.902Z</time></trkpt><trkpt lat="43.3517257" lon="13.077399"><ele>933.0</ele><time>2026-03-29T08:10:17.965Z</time></trkpt><trkpt lat="43.3517045" lon="13.0773164"><ele>932.9999999999999</ele><time>2026-03-29T08:10:21.962Z</time></trkpt><trkpt lat="43.3516849" lon="13.0772183"><ele>933.0</ele><time>2026-03-29T08:10:25.946Z</time></trkpt><trkpt lat="43.3516618" lon="13.0771164"><ele>933.0</ele><time>2026-03-29T08:10:29.96Z</time></trkpt><trkpt lat="43.3516273" lon="13.0770266"><ele>934.0</ele><time>2026-03-29T08:10:33.881Z</time></trkpt><trkpt lat="43.3515938" lon="13.0769356"><ele>934.9999999999999</ele><time>2026-03-29T08:10:38.027Z</time></trkpt><trkpt lat="43.3515739" lon="13.0768384"><ele>936.0</ele><time>2026-03-29T08:10:41.941Z</time></trkpt><trkpt lat="43.3515533" lon="13.0767451"><ele>937.0</ele><time>2026-03-29T08:10:45.019Z</time></trkpt><trkpt lat="43.3515302" lon="13.0766605"><ele>937.9999999999999</ele><time>2026-03-29T08:10:47.956Z</time></trkpt><trkpt lat="43.3514883" lon="13.0765826"><ele>939.0</ele><time>2026-03-29T08:10:51.976Z</time></trkpt><trkpt lat="43.3514382" lon="13.0765255"><ele>940.0</ele><time>2026-03-29T08:10:58.015Z</time></trkpt><trkpt lat="43.3513966" lon="13.076439"><ele>937.1666666666666</ele><time>2026-03-29T08:11:02.935Z</time></trkpt><trkpt lat="43.3513429" lon="13.0763655"><ele>934.3333333333333</ele><time>2026-03-29T08:11:05.937Z</time></trkpt><trkpt lat="43.3513063" lon="13.0762789"><ele>931.5</ele><time>2026-03-29T08:11:07.937Z</time></trkpt><trkpt lat="43.3512862" lon="13.076188"><ele>928.6666666666667</ele><time>2026-03-29T08:11:08.933Z</time></trkpt><trkpt lat="43.3512517" lon="13.0760313"><ele>925.8333333333334</ele><time>2026-03-29T08:11:10.933Z</time></trkpt><trkpt lat="43.3512152" lon="13.0759531"><ele>923.0</ele><time>2026-03-29T08:11:14.967Z</time></trkpt><trkpt lat="43.3511974" lon="13.0758615"><ele>923.0</ele><time>2026-03-29T08:11:22.963Z</time></trkpt><trkpt lat="43.3511761" lon="13.0757705"><ele>923.0</ele><time>2026-03-29T08:11:28.959Z</time></trkpt><trkpt lat="43.3511374" lon="13.0756953"><ele>923.0</ele><time>2026-03-29T08:11:33.962Z</time></trkpt><trkpt lat="43.3510991" lon="13.0756177"><ele>923.0</ele><time>2026-03-29T08:11:37.955Z</time></trkpt><trkpt lat="43.3510468" lon="13.0755389"><ele>923.0</ele><time>2026-03-29T08:11:42.967Z</time></trkpt><trkpt lat="43.3510179" lon="13.0754611"><ele>923.0</ele><time>2026-03-29T08:11:45.965Z</time></trkpt><trkpt lat="43.3509751" lon="13.0753744"><ele>923.0</ele><time>2026-03-29T08:11:48.906Z</time></trkpt><trkpt lat="43.3509569" lon="13.075283"><ele>922.3333333333334</ele><time>2026-03-29T08:11:52.037Z</time></trkpt><trkpt lat="43.3509159" lon="13.0751927"><ele>921.6666666666667</ele><time>2026-03-29T08:11:54.966Z</time></trkpt><trkpt lat="43.3508659" lon="13.0750997"><ele>921.0</ele><time>2026-03-29T08:11:57.953Z</time></trkpt><trkpt lat="43.3508146" lon="13.0750184"><ele>920.3333333333333</ele><time>2026-03-29T08:12:00.961Z</time></trkpt><trkpt lat="43.3507563" lon="13.0749498"><ele>919.6666666666666</ele><time>2026-03-29T08:12:03.911Z</time></trkpt><trkpt lat="43.3506883" lon="13.0748925"><ele>919.0</ele><time>2026-03-29T08:12:06.952Z</time></trkpt><trkpt lat="43.3506309" lon="13.074819"><ele>916.6666666666666</ele><time>2026-03-29T08:12:09.934Z</time></trkpt><trkpt lat="43.3505912" lon="13.0747313"><ele>914.3333333333333</ele><time>2026-03-29T08:12:12.891Z</time></trkpt><trkpt lat="43.3505573" lon="13.0746395"><ele>912.0</ele><time>2026-03-29T08:12:15.964Z</time></trkpt><trkpt lat="43.3505267" lon="13.074552"><ele>909.6666666666667</ele><time>2026-03-29T08:12:18.97Z</time></trkpt><trkpt lat="43.3504889" lon="13.0744503"><ele>907.3333333333334</ele><time>2026-03-29T08:12:22.964Z</time></trkpt><trkpt lat="43.3504435" lon="13.074357"><ele>905.0</ele><time>2026-03-29T08:12:26.963Z</time></trkpt><trkpt lat="43.3504019" lon="13.0742736"><ele>903.3333333333334</ele><time>2026-03-29T08:12:29.889Z</time></trkpt><trkpt lat="43.350352" lon="13.0741734"><ele>901.6666666666667</ele><time>2026-03-29T08:12:32.956Z</time></trkpt><trkpt lat="43.3503122" lon="13.0740708"><ele>900.0</ele><time>2026-03-29T08:12:35.967Z</time></trkpt><trkpt lat="43.3502736" lon="13.0739806"><ele>898.3333333333333</ele><time>2026-03-29T08:12:38.869Z</time></trkpt><trkpt lat="43.3502269" lon="13.0738726"><ele>896.6666666666666</ele><time>2026-03-29T08:12:41.97Z</time></trkpt><trkpt lat="43.3502154" lon="13.0737813"><ele>895.0</ele><time>2026-03-29T08:12:43.953Z</time></trkpt><trkpt lat="43.3502384" lon="13.073687"><ele>894.9999999999999</ele><time>2026-03-29T08:12:48.971Z</time></trkpt><trkpt lat="43.3501645" lon="13.0735998"><ele>895.0</ele><time>2026-03-29T08:12:50.968Z</time></trkpt><trkpt lat="43.3501929" lon="13.0735218"><ele>895.0</ele><time>2026-03-29T08:12:58.571Z</time></trkpt><trkpt lat="43.3501251" lon="13.0734256"><ele>895.0</ele><time>2026-03-29T08:13:00.948Z</time></trkpt><trkpt lat="43.350093" lon="13.0733449"><ele>894.9999999999999</ele><time>2026-03-29T08:13:02.934Z</time></trkpt><trkpt lat="43.3500438" lon="13.0732746"><ele>895.0</ele><time>2026-03-29T08:13:06.966Z</time></trkpt><trkpt lat="43.3499887" lon="13.0731929"><ele>893.8571428571428</ele><time>2026-03-29T08:13:13.074Z</time></trkpt><trkpt lat="43.3499829" lon="13.073091"><ele>892.7142857142858</ele><time>2026-03-29T08:13:15.288Z</time></trkpt><trkpt lat="43.3499712" lon="13.0730018"><ele>891.5714285714286</ele><time>2026-03-29T08:13:17.45Z</time></trkpt><trkpt lat="43.3499242" lon="13.0729303"><ele>890.4285714285713</ele><time>2026-03-29T08:13:21.388Z</time></trkpt><trkpt lat="43.3498935" lon="13.072841"><ele>889.2857142857142</ele><time>2026-03-29T08:13:24.972Z</time></trkpt><trkpt lat="43.34986" lon="13.0727396"><ele>888.1428571428571</ele><time>2026-03-29T08:13:28.954Z</time></trkpt><trkpt lat="43.3498217" lon="13.0726497"><ele>887.0</ele><time>2026-03-29T08:13:32.958Z</time></trkpt><trkpt lat="43.3497808" lon="13.0725631"><ele>887.0000000000001</ele><time>2026-03-29T08:13:37.956Z</time></trkpt><trkpt lat="43.3498113" lon="13.072458"><ele>887.0</ele><time>2026-03-29T08:13:43.956Z</time></trkpt><trkpt lat="43.3497871" lon="13.0723569"><ele>887.0</ele><time>2026-03-29T08:13:47.95Z</time></trkpt><trkpt lat="43.3497478" lon="13.07228"><ele>887.0</ele><time>2026-03-29T08:13:52.97Z</time></trkpt><trkpt lat="43.3496849" lon="13.0722207"><ele>887.0000000000001</ele><time>2026-03-29T08:13:56.873Z</time></trkpt><trkpt lat="43.3496127" lon="13.0722364"><ele>887.0</ele><time>2026-03-29T08:13:58.954Z</time></trkpt><trkpt lat="43.3495406" lon="13.0721968"><ele>884.8333333333334</ele><time>2026-03-29T08:14:02.956Z</time></trkpt><trkpt lat="43.3494916" lon="13.0721144"><ele>882.6666666666667</ele><time>2026-03-29T08:14:06.964Z</time></trkpt><trkpt lat="43.3494514" lon="13.0720189"><ele>880.5</ele><time>2026-03-29T08:14:11.956Z</time></trkpt><trkpt lat="43.3494302" lon="13.0719049"><ele>878.3333333333333</ele><time>2026-03-29T08:14:15.943Z</time></trkpt><trkpt lat="43.3494499" lon="13.0717986"><ele>876.1666666666666</ele><time>2026-03-29T08:14:19.918Z</time></trkpt><trkpt lat="43.349433" lon="13.0716934"><ele>874.0</ele><time>2026-03-29T08:14:23.947Z</time></trkpt><trkpt lat="43.3493954" lon="13.0716089"><ele>873.8571428571428</ele><time>2026-03-29T08:14:27.03Z</time></trkpt><trkpt lat="43.3493746" lon="13.0715193"><ele>873.7142857142858</ele><time>2026-03-29T08:14:29.97Z</time></trkpt><trkpt lat="43.3493437" lon="13.0714341"><ele>873.5714285714286</ele><time>2026-03-29T08:14:32.978Z</time></trkpt><trkpt lat="43.3493017" lon="13.071361"><ele>873.4285714285713</ele><time>2026-03-29T08:14:35.926Z</time></trkpt><trkpt lat="43.349274" lon="13.0712695"><ele>873.2857142857142</ele><time>2026-03-29T08:14:38.964Z</time></trkpt><trkpt lat="43.3492625" lon="13.0711685"><ele>873.1428571428571</ele><time>2026-03-29T08:14:41.972Z</time></trkpt><trkpt lat="43.3492361" lon="13.0710639"><ele>873.0</ele><time>2026-03-29T08:14:44.928Z</time></trkpt><trkpt lat="43.3492142" lon="13.070944"><ele>873.0</ele><time>2026-03-29T08:14:47.97Z</time></trkpt><trkpt lat="43.3491886" lon="13.0708321"><ele>873.0</ele><time>2026-03-29T08:14:50.953Z</time></trkpt><trkpt lat="43.3491658" lon="13.0707076"><ele>873.0</ele><time>2026-03-29T08:14:53.964Z</time></trkpt><trkpt lat="43.3491566" lon="13.0706201"><ele>873.0</ele><time>2026-03-29T08:14:55.89Z</time></trkpt><trkpt lat="43.3491436" lon="13.0705157"><ele>873.0</ele><time>2026-03-29T08:14:57.968Z</time></trkpt><trkpt lat="43.3491279" lon="13.0703725"><ele>873.0</ele><time>2026-03-29T08:15:00.964Z</time></trkpt><trkpt lat="43.3491151" lon="13.0702595"><ele>872.8333333333334</ele><time>2026-03-29T08:15:03.972Z</time></trkpt><trkpt lat="43.3491026" lon="13.0701447"><ele>872.6666666666667</ele><time>2026-03-29T08:15:06.816Z</time></trkpt><trkpt lat="43.3490908" lon="13.0700585"><ele>872.5</ele><time>2026-03-29T08:15:08.916Z</time></trkpt><trkpt lat="43.3490809" lon="13.0699353"><ele>872.3333333333334</ele><time>2026-03-29T08:15:11.917Z</time></trkpt><trkpt lat="43.3490902" lon="13.0698257"><ele>872.1666666666667</ele><time>2026-03-29T08:15:14.964Z</time></trkpt><trkpt lat="43.3490672" lon="13.0697186"><ele>872.0</ele><time>2026-03-29T08:15:17.96Z</time></trkpt><trkpt lat="43.3490428" lon="13.0696193"><ele>872.2857142857143</ele><time>2026-03-29T08:15:20.956Z</time></trkpt><trkpt lat="43.3490378" lon="13.0695194"><ele>872.5714285714287</ele><time>2026-03-29T08:15:24.055Z</time></trkpt><trkpt lat="43.3490572" lon="13.0694233"><ele>872.8571428571429</ele><time>2026-03-29T08:15:26.965Z</time></trkpt><trkpt lat="43.3490566" lon="13.0693228"><ele>873.1428571428571</ele><time>2026-03-29T08:15:29.975Z</time></trkpt><trkpt lat="43.3490529" lon="13.0692164"><ele>873.4285714285714</ele><time>2026-03-29T08:15:33.037Z</time></trkpt><trkpt lat="43.3490589" lon="13.0691168"><ele>873.7142857142857</ele><time>2026-03-29T08:15:35.969Z</time></trkpt><trkpt lat="43.3490742" lon="13.0690107"><ele>874.0</ele><time>2026-03-29T08:15:38.92Z</time></trkpt><trkpt lat="43.3490724" lon="13.0688895"><ele>875.0</ele><time>2026-03-29T08:15:41.972Z</time></trkpt><trkpt lat="43.3490573" lon="13.0687813"><ele>876.0</ele><time>2026-03-29T08:15:44.914Z</time></trkpt><trkpt lat="43.349046" lon="13.0686804"><ele>877.0</ele><time>2026-03-29T08:15:47.972Z</time></trkpt><trkpt lat="43.3490321" lon="13.0685883"><ele>878.0</ele><time>2026-03-29T08:15:50.868Z</time></trkpt><trkpt lat="43.3490138" lon="13.068498"><ele>879.0</ele><time>2026-03-29T08:15:53.98Z</time></trkpt><trkpt lat="43.3489763" lon="13.0684074"><ele>880.0</ele><time>2026-03-29T08:15:57.903Z</time></trkpt><trkpt lat="43.3489447" lon="13.0683297"><ele>881.0</ele><time>2026-03-29T08:16:05.954Z</time></trkpt><trkpt lat="43.3488998" lon="13.0682547"><ele>882.5714285714286</ele><time>2026-03-29T08:16:13.971Z</time></trkpt><trkpt lat="43.3488668" lon="13.0681744"><ele>884.1428571428572</ele><time>2026-03-29T08:16:20.949Z</time></trkpt><trkpt lat="43.348827" lon="13.0681042"><ele>885.7142857142858</ele><time>2026-03-29T08:16:29.959Z</time></trkpt><trkpt lat="43.3488107" lon="13.068017"><ele>887.2857142857142</ele><time>2026-03-29T08:16:37.961Z</time></trkpt><trkpt lat="43.3487999" lon="13.0679195"><ele>888.8571428571429</ele><time>2026-03-29T08:16:46.886Z</time></trkpt><trkpt lat="43.3487916" lon="13.067822"><ele>890.4285714285714</ele><time>2026-03-29T08:16:53.965Z</time></trkpt><trkpt lat="43.3487803" lon="13.0677319"><ele>892.0</ele><time>2026-03-29T08:17:00.959Z</time></trkpt><trkpt lat="43.3487455" lon="13.0676542"><ele>892.0</ele><time>2026-03-29T08:17:07.939Z</time></trkpt><trkpt lat="43.3487149" lon="13.067572"><ele>892.0</ele><time>2026-03-29T08:17:13.864Z</time></trkpt><trkpt lat="43.3487085" lon="13.0674835"><ele>892.0</ele><time>2026-03-29T08:17:19.966Z</time></trkpt><trkpt lat="43.348693" lon="13.0673955"><ele>892.0</ele><time>2026-03-29T08:17:25.972Z</time></trkpt><trkpt lat="43.3486716" lon="13.067302"><ele>892.0</ele><time>2026-03-29T08:17:31.975Z</time></trkpt><trkpt lat="43.3486485" lon="13.0672084"><ele>892.0</ele><time>2026-03-29T08:17:36.958Z</time></trkpt><trkpt lat="43.348621" lon="13.0671282"><ele>892.0</ele><time>2026-03-29T08:17:43.87Z</time></trkpt><trkpt lat="43.3485951" lon="13.0670364"><ele>894.4285714285714</ele><time>2026-03-29T08:17:49.967Z</time></trkpt><trkpt lat="43.3485851" lon="13.0669394"><ele>896.8571428571429</ele><time>2026-03-29T08:17:55.956Z</time></trkpt><trkpt lat="43.3485613" lon="13.0668517"><ele>899.2857142857142</ele><time>2026-03-29T08:18:01.972Z</time></trkpt><trkpt lat="43.3485483" lon="13.0667614"><ele>901.7142857142858</ele><time>2026-03-29T08:18:07.972Z</time></trkpt><trkpt lat="43.3485546" lon="13.0666709"><ele>904.1428571428572</ele><time>2026-03-29T08:18:12.966Z</time></trkpt><trkpt lat="43.3485498" lon="13.0665801"><ele>906.5714285714286</ele><time>2026-03-29T08:18:18.976Z</time></trkpt><trkpt lat="43.3484985" lon="13.0665106"><ele>909.0</ele><time>2026-03-29T08:18:25.957Z</time></trkpt><trkpt lat="43.3484181" lon="13.0665048"><ele>909.0</ele><time>2026-03-29T08:18:29.97Z</time></trkpt><trkpt lat="43.348347" lon="13.0664689"><ele>909.0</ele><time>2026-03-29T08:18:33.962Z</time></trkpt><trkpt lat="43.3482881" lon="13.0664357"><ele>909.0</ele><time>2026-03-29T08:18:36.979Z</time></trkpt><trkpt lat="43.34822" lon="13.0663752"><ele>909.0</ele><time>2026-03-29T08:18:40.954Z</time></trkpt><trkpt lat="43.3481559" lon="13.0663096"><ele>909.0</ele><time>2026-03-29T08:18:44.958Z</time></trkpt><trkpt lat="43.3480925" lon="13.0662492"><ele>909.0</ele><time>2026-03-29T08:18:48.955Z</time></trkpt><trkpt lat="43.3480268" lon="13.066187"><ele>909.0</ele><time>2026-03-29T08:18:52.952Z</time></trkpt><trkpt lat="43.3479659" lon="13.0661227"><ele>909.0</ele><time>2026-03-29T08:18:56.873Z</time></trkpt><trkpt lat="43.3479196" lon="13.0660398"><ele>909.0</ele><time>2026-03-29T08:19:00.968Z</time></trkpt><trkpt lat="43.3478674" lon="13.0659572"><ele>909.0</ele><time>2026-03-29T08:19:04.957Z</time></trkpt><trkpt lat="43.347808" lon="13.0658951"><ele>909.0</ele><time>2026-03-29T08:19:08.957Z</time></trkpt><trkpt lat="43.3477502" lon="13.0658303"><ele>909.0</ele><time>2026-03-29T08:19:12.956Z</time></trkpt><trkpt lat="43.347695" lon="13.0657545"><ele>911.8571428571429</ele><time>2026-03-29T08:19:16.939Z</time></trkpt><trkpt lat="43.3476412" lon="13.0656878"><ele>914.7142857142858</ele><time>2026-03-29T08:19:20.856Z</time></trkpt><trkpt lat="43.3475927" lon="13.0656259"><ele>917.5714285714287</ele><time>2026-03-29T08:19:23.979Z</time></trkpt><trkpt lat="43.3475356" lon="13.0655418"><ele>920.4285714285714</ele><time>2026-03-29T08:19:26.929Z</time></trkpt><trkpt lat="43.3474887" lon="13.065447"><ele>923.2857142857144</ele><time>2026-03-29T08:19:29.938Z</time></trkpt><trkpt lat="43.3474437" lon="13.0653602"><ele>926.1428571428572</ele><time>2026-03-29T08:19:32.958Z</time></trkpt><trkpt lat="43.3473997" lon="13.0652934"><ele>929.0</ele><time>2026-03-29T08:19:35.872Z</time></trkpt><trkpt lat="43.3473574" lon="13.0652266"><ele>929.0</ele><time>2026-03-29T08:19:38.946Z</time></trkpt><trkpt lat="43.3473002" lon="13.065146"><ele>929.0000000000001</ele><time>2026-03-29T08:19:42.967Z</time></trkpt><trkpt lat="43.3472424" lon="13.0650675"><ele>929.0</ele><time>2026-03-29T08:19:46.96Z</time></trkpt><trkpt lat="43.3471997" lon="13.0650023"><ele>929.0</ele><time>2026-03-29T08:19:49.967Z</time></trkpt><trkpt lat="43.3471543" lon="13.0649363"><ele>929.0000000000001</ele><time>2026-03-29T08:19:52.941Z</time></trkpt><trkpt lat="43.3471078" lon="13.0648679"><ele>929.0</ele><time>2026-03-29T08:19:55.94Z</time></trkpt><trkpt lat="43.3470529" lon="13.0648114"><ele>929.0</ele><time>2026-03-29T08:19:58.954Z</time></trkpt><trkpt lat="43.3469888" lon="13.0647423"><ele>928.2857142857143</ele><time>2026-03-29T08:20:02.957Z</time></trkpt><trkpt lat="43.3469332" lon="13.0646954"><ele>927.5714285714287</ele><time>2026-03-29T08:20:05.954Z</time></trkpt><trkpt lat="43.3468771" lon="13.0646445"><ele>926.8571428571429</ele><time>2026-03-29T08:20:08.962Z</time></trkpt><trkpt lat="43.3468269" lon="13.0645921"><ele>926.1428571428571</ele><time>2026-03-29T08:20:11.958Z</time></trkpt><trkpt lat="43.3467772" lon="13.0645374"><ele>925.4285714285714</ele><time>2026-03-29T08:20:14.914Z</time></trkpt><trkpt lat="43.3467155" lon="13.0644716"><ele>924.7142857142858</ele><time>2026-03-29T08:20:18.969Z</time></trkpt><trkpt lat="43.3466554" lon="13.064404"><ele>924.0</ele><time>2026-03-29T08:20:22.954Z</time></trkpt><trkpt lat="43.3465866" lon="13.0643431"><ele>924.0</ele><time>2026-03-29T08:20:26.881Z</time></trkpt><trkpt lat="43.3465209" lon="13.0643034"><ele>924.0</ele><time>2026-03-29T08:20:30.944Z</time></trkpt><trkpt lat="43.3464711" lon="13.0642269"><ele>924.0</ele><time>2026-03-29T08:20:34.956Z</time></trkpt><trkpt lat="43.3464353" lon="13.0641538"><ele>924.0</ele><time>2026-03-29T08:20:37.965Z</time></trkpt><trkpt lat="43.3463825" lon="13.0640725"><ele>924.0</ele><time>2026-03-29T08:20:41.956Z</time></trkpt><trkpt lat="43.3463229" lon="13.064031"><ele>924.0</ele><time>2026-03-29T08:20:44.899Z</time></trkpt><trkpt lat="43.346266" lon="13.063965"><ele>924.0</ele><time>2026-03-29T08:20:47.952Z</time></trkpt><trkpt lat="43.3462138" lon="13.0638879"><ele>924.0</ele><time>2026-03-29T08:20:50.963Z</time></trkpt><trkpt lat="43.3461517" lon="13.0638122"><ele>924.0</ele><time>2026-03-29T08:20:53.971Z</time></trkpt><trkpt lat="43.3460925" lon="13.0637243"><ele>924.0</ele><time>2026-03-29T08:20:56.957Z</time></trkpt><trkpt lat="43.3460389" lon="13.0636369"><ele>924.0</ele><time>2026-03-29T08:20:59.914Z</time></trkpt><trkpt lat="43.3459949" lon="13.0635661"><ele>924.0</ele><time>2026-03-29T08:21:01.965Z</time></trkpt><trkpt lat="43.3459425" lon="13.0634871"><ele>924.0</ele><time>2026-03-29T08:21:04.942Z</time></trkpt><trkpt lat="43.3458872" lon="13.0634024"><ele>924.0</ele><time>2026-03-29T08:21:07.966Z</time></trkpt><trkpt lat="43.3458314" lon="13.0633311"><ele>924.0</ele><time>2026-03-29T08:21:10.961Z</time></trkpt><trkpt lat="43.345781" lon="13.0632734"><ele>924.0</ele><time>2026-03-29T08:21:13.955Z</time></trkpt><trkpt lat="43.3457232" lon="13.063226"><ele>924.0</ele><time>2026-03-29T08:21:16.959Z</time></trkpt><trkpt lat="43.3456645" lon="13.0631842"><ele>924.0</ele><time>2026-03-29T08:21:19.966Z</time></trkpt><trkpt lat="43.345604" lon="13.0631495"><ele>924.0</ele><time>2026-03-29T08:21:22.962Z</time></trkpt><trkpt lat="43.3455403" lon="13.0631145"><ele>924.0</ele><time>2026-03-29T08:21:25.959Z</time></trkpt><trkpt lat="43.3454816" lon="13.0630595"><ele>923.0</ele><time>2026-03-29T08:21:28.942Z</time></trkpt><trkpt lat="43.3454185" lon="13.0629914"><ele>922.0</ele><time>2026-03-29T08:21:31.967Z</time></trkpt><trkpt lat="43.3453568" lon="13.0629139"><ele>921.0</ele><time>2026-03-29T08:21:35.032Z</time></trkpt><trkpt lat="43.3452809" lon="13.062882"><ele>920.0</ele><time>2026-03-29T08:21:38.87Z</time></trkpt><trkpt lat="43.3452306" lon="13.0628296"><ele>919.0</ele><time>2026-03-29T08:21:40.962Z</time></trkpt><trkpt lat="43.3451571" lon="13.0627623"><ele>918.0</ele><time>2026-03-29T08:21:43.957Z</time></trkpt><trkpt lat="43.3450935" lon="13.0626735"><ele>918.0</ele><time>2026-03-29T08:21:46.951Z</time></trkpt><trkpt lat="43.3450456" lon="13.0625668"><ele>918.0</ele><time>2026-03-29T08:21:49.955Z</time></trkpt><trkpt lat="43.3450163" lon="13.0624485"><ele>918.0</ele><time>2026-03-29T08:21:53.038Z</time></trkpt><trkpt lat="43.3449691" lon="13.0623421"><ele>918.0</ele><time>2026-03-29T08:21:55.97Z</time></trkpt><trkpt lat="43.3449173" lon="13.0622381"><ele>918.0</ele><time>2026-03-29T08:21:58.969Z</time></trkpt><trkpt lat="43.3448767" lon="13.0621698"><ele>918.0</ele><time>2026-03-29T08:22:00.984Z</time></trkpt><trkpt lat="43.3448206" lon="13.062079"><ele>918.6666666666666</ele><time>2026-03-29T08:22:03.954Z</time></trkpt><trkpt lat="43.3447464" lon="13.0620036"><ele>919.3333333333333</ele><time>2026-03-29T08:22:06.984Z</time></trkpt><trkpt lat="43.3446819" lon="13.0619266"><ele>920.0</ele><time>2026-03-29T08:22:09.975Z</time></trkpt><trkpt lat="43.3446159" lon="13.0618407"><ele>920.6666666666666</ele><time>2026-03-29T08:22:12.973Z</time></trkpt><trkpt lat="43.3445492" lon="13.0617594"><ele>921.3333333333333</ele><time>2026-03-29T08:22:15.966Z</time></trkpt><trkpt lat="43.3444787" lon="13.0616845"><ele>922.0</ele><time>2026-03-29T08:22:18.975Z</time></trkpt><trkpt lat="43.3444157" lon="13.0616071"><ele>923.5714285714287</ele><time>2026-03-29T08:22:21.99Z</time></trkpt><trkpt lat="43.3443634" lon="13.0615585"><ele>925.1428571428572</ele><time>2026-03-29T08:22:23.965Z</time></trkpt><trkpt lat="43.3443113" lon="13.0614866"><ele>926.7142857142858</ele><time>2026-03-29T08:22:27.036Z</time></trkpt><trkpt lat="43.3442471" lon="13.0614293"><ele>928.2857142857142</ele><time>2026-03-29T08:22:29.976Z</time></trkpt><trkpt lat="43.3441829" lon="13.0613695"><ele>929.8571428571428</ele><time>2026-03-29T08:22:32.933Z</time></trkpt><trkpt lat="43.3441038" lon="13.0613121"><ele>931.4285714285713</ele><time>2026-03-29T08:22:35.986Z</time></trkpt><trkpt lat="43.3440411" lon="13.0612818"><ele>933.0</ele><time>2026-03-29T08:22:37.982Z</time></trkpt><trkpt lat="43.3439709" lon="13.0612271"><ele>933.0</ele><time>2026-03-29T08:22:40.983Z</time></trkpt><trkpt lat="43.343914" lon="13.0611757"><ele>933.0</ele><time>2026-03-29T08:22:43.972Z</time></trkpt><trkpt lat="43.3438229" lon="13.0610575"><ele>933.0</ele><time>2026-03-29T08:23:08.977Z</time></trkpt><trkpt lat="43.3437343" lon="13.0610288"><ele>933.0</ele><time>2026-03-29T08:23:12.98Z</time></trkpt><trkpt lat="43.3436713" lon="13.0609981"><ele>933.0</ele><time>2026-03-29T08:23:15.976Z</time></trkpt><trkpt lat="43.3436114" lon="13.0609289"><ele>933.0</ele><time>2026-03-29T08:23:19.936Z</time></trkpt><trkpt lat="43.3435491" lon="13.0608696"><ele>933.4285714285713</ele><time>2026-03-29T08:23:23.978Z</time></trkpt><trkpt lat="43.3434867" lon="13.0608019"><ele>933.8571428571428</ele><time>2026-03-29T08:23:27.959Z</time></trkpt><trkpt lat="43.3434299" lon="13.0607456"><ele>934.2857142857142</ele><time>2026-03-29T08:23:31.065Z</time></trkpt><trkpt lat="43.3433821" lon="13.0606642"><ele>934.7142857142858</ele><time>2026-03-29T08:23:34.001Z</time></trkpt><trkpt lat="43.3433233" lon="13.0605886"><ele>935.1428571428572</ele><time>2026-03-29T08:23:36.956Z</time></trkpt><trkpt lat="43.3432726" lon="13.060518"><ele>935.5714285714287</ele><time>2026-03-29T08:23:39.961Z</time></trkpt><trkpt lat="43.3432249" lon="13.060457"><ele>936.0</ele><time>2026-03-29T08:23:43.255Z</time></trkpt><trkpt lat="43.3431661" lon="13.0603927"><ele>936.0</ele><time>2026-03-29T08:23:46.367Z</time></trkpt><trkpt lat="43.3431113" lon="13.0603446"><ele>936.0000000000001</ele><time>2026-03-29T08:23:49.915Z</time></trkpt><trkpt lat="43.3430327" lon="13.0602901"><ele>936.0</ele><time>2026-03-29T08:23:53.953Z</time></trkpt><trkpt lat="43.3429641" lon="13.0602552"><ele>936.0</ele><time>2026-03-29T08:23:56.959Z</time></trkpt><trkpt lat="43.3429159" lon="13.0601991"><ele>936.0000000000001</ele><time>2026-03-29T08:24:01.959Z</time></trkpt><trkpt lat="43.3428757" lon="13.0601179"><ele>936.0</ele><time>2026-03-29T08:24:06.991Z</time></trkpt><trkpt lat="43.3428153" lon="13.0600616"><ele>936.0</ele><time>2026-03-29T08:24:11.986Z</time></trkpt><trkpt lat="43.3427657" lon="13.0600034"><ele>937.1428571428572</ele><time>2026-03-29T08:24:18.977Z</time></trkpt><trkpt lat="43.3427016" lon="13.0599514"><ele>938.2857142857144</ele><time>2026-03-29T08:24:24.216Z</time></trkpt><trkpt lat="43.3426393" lon="13.0599026"><ele>939.4285714285714</ele><time>2026-03-29T08:24:28.971Z</time></trkpt><trkpt lat="43.3425768" lon="13.0598735"><ele>940.5714285714287</ele><time>2026-03-29T08:24:34.999Z</time></trkpt><trkpt lat="43.3425265" lon="13.0597851"><ele>941.7142857142858</ele><time>2026-03-29T08:24:39.957Z</time></trkpt><trkpt lat="43.3424914" lon="13.059707"><ele>942.8571428571429</ele><time>2026-03-29T08:24:42.98Z</time></trkpt><trkpt lat="43.3424499" lon="13.0596091"><ele>944.0</ele><time>2026-03-29T08:24:46.916Z</time></trkpt><trkpt lat="43.3423866" lon="13.0595722"><ele>944.0</ele><time>2026-03-29T08:24:49.96Z</time></trkpt><trkpt lat="43.34233" lon="13.0595128"><ele>944.0</ele><time>2026-03-29T08:24:52.881Z</time></trkpt><trkpt lat="43.3422586" lon="13.0594961"><ele>944.0</ele><time>2026-03-29T08:24:54.971Z</time></trkpt><trkpt lat="43.3422083" lon="13.0595642"><ele>944.0</ele><time>2026-03-29T08:24:57.959Z</time></trkpt><trkpt lat="43.3422419" lon="13.0598883"><ele>944.0</ele><time>2026-03-29T08:24:59.973Z</time></trkpt><trkpt lat="43.3422986" lon="13.059949"><ele>944.0</ele><time>2026-03-29T08:25:02.001Z</time></trkpt><trkpt lat="43.3423597" lon="13.0599017"><ele>944.0</ele><time>2026-03-29T08:25:05.961Z</time></trkpt><trkpt lat="43.3424148" lon="13.0598411"><ele>944.0</ele><time>2026-03-29T08:25:10.978Z</time></trkpt><trkpt lat="43.3424737" lon="13.0598784"><ele>944.0</ele><time>2026-03-29T08:25:13.945Z</time></trkpt><trkpt lat="43.3424853" lon="13.0599853"><ele>944.0</ele><time>2026-03-29T08:25:17.884Z</time></trkpt><trkpt lat="43.3424259" lon="13.0600323"><ele>944.0</ele><time>2026-03-29T08:25:19.999Z</time></trkpt><trkpt lat="43.3423581" lon="13.0600734"><ele>944.0</ele><time>2026-03-29T08:25:21.96Z</time></trkpt><trkpt lat="43.3422965" lon="13.0601174"><ele>944.0</ele><time>2026-03-29T08:25:23.88Z</time></trkpt><trkpt lat="43.3422181" lon="13.0601311"><ele>944.0</ele><time>2026-03-29T08:25:25.979Z</time></trkpt><trkpt lat="43.3421469" lon="13.060111"><ele>944.0</ele><time>2026-03-29T08:25:27.98Z</time></trkpt><trkpt lat="43.3420816" lon="13.060141"><ele>944.0</ele><time>2026-03-29T08:25:30.881Z</time></trkpt><trkpt lat="43.3420061" lon="13.060139"><ele>944.0</ele><time>2026-03-29T08:25:36.974Z</time></trkpt><trkpt lat="43.3419346" lon="13.0601594"><ele>944.0</ele><time>2026-03-29T08:25:41.98Z</time></trkpt><trkpt lat="43.341886" lon="13.0602279"><ele>946.1428571428571</ele><time>2026-03-29T08:25:45.983Z</time></trkpt><trkpt lat="43.3418608" lon="13.0603102"><ele>948.2857142857143</ele><time>2026-03-29T08:25:49.98Z</time></trkpt><trkpt lat="43.3418173" lon="13.0603848"><ele>950.4285714285714</ele><time>2026-03-29T08:25:54.962Z</time></trkpt><trkpt lat="43.3417629" lon="13.0604322"><ele>952.5714285714286</ele><time>2026-03-29T08:25:58.979Z</time></trkpt><trkpt lat="43.3417088" lon="13.0604931"><ele>954.7142857142858</ele><time>2026-03-29T08:26:02.993Z</time></trkpt><trkpt lat="43.3416537" lon="13.0605436"><ele>956.8571428571429</ele><time>2026-03-29T08:26:06.98Z</time></trkpt><trkpt lat="43.3415742" lon="13.0605395"><ele>959.0</ele><time>2026-03-29T08:26:10.97Z</time></trkpt><trkpt lat="43.341507" lon="13.0605583"><ele>959.0000000000001</ele><time>2026-03-29T08:26:13.97Z</time></trkpt><trkpt lat="43.3414382" lon="13.0605863"><ele>959.0</ele><time>2026-03-29T08:26:16.981Z</time></trkpt><trkpt lat="43.3413682" lon="13.060656"><ele>959.0</ele><time>2026-03-29T08:26:20.972Z</time></trkpt><trkpt lat="43.3413164" lon="13.0607323"><ele>959.0</ele><time>2026-03-29T08:26:23.976Z</time></trkpt><trkpt lat="43.3412688" lon="13.0608034"><ele>959.0000000000001</ele><time>2026-03-29T08:26:26.973Z</time></trkpt><trkpt lat="43.3412139" lon="13.0608873"><ele>959.0</ele><time>2026-03-29T08:26:30.979Z</time></trkpt><trkpt lat="43.3411734" lon="13.0609715"><ele>960.8571428571429</ele><time>2026-03-29T08:26:34.97Z</time></trkpt><trkpt lat="43.3411316" lon="13.0610583"><ele>962.7142857142858</ele><time>2026-03-29T08:26:38.963Z</time></trkpt><trkpt lat="43.34112" lon="13.0611672"><ele>964.5714285714286</ele><time>2026-03-29T08:26:42.981Z</time></trkpt><trkpt lat="43.3410929" lon="13.0612576"><ele>966.4285714285714</ele><time>2026-03-29T08:26:47.899Z</time></trkpt><trkpt lat="43.3410688" lon="13.0613393"><ele>968.2857142857143</ele><time>2026-03-29T08:26:51.971Z</time></trkpt><trkpt lat="43.3410372" lon="13.0614274"><ele>970.1428571428571</ele><time>2026-03-29T08:26:55.939Z</time></trkpt><trkpt lat="43.3410225" lon="13.0615139"><ele>972.0</ele><time>2026-03-29T08:26:59.963Z</time></trkpt><trkpt lat="43.3409953" lon="13.0616115"><ele>970.2857142857142</ele><time>2026-03-29T08:27:03.984Z</time></trkpt><trkpt lat="43.3409638" lon="13.0617023"><ele>968.5714285714287</ele><time>2026-03-29T08:27:08.968Z</time></trkpt><trkpt lat="43.3409424" lon="13.0618014"><ele>966.8571428571429</ele><time>2026-03-29T08:27:12.948Z</time></trkpt><trkpt lat="43.3409212" lon="13.0618891"><ele>965.1428571428571</ele><time>2026-03-29T08:27:16.971Z</time></trkpt><trkpt lat="43.3408978" lon="13.0619862"><ele>963.4285714285713</ele><time>2026-03-29T08:27:20.923Z</time></trkpt><trkpt lat="43.3408924" lon="13.0620802"><ele>961.7142857142858</ele><time>2026-03-29T08:27:26.887Z</time></trkpt><trkpt lat="43.3408565" lon="13.0621538"><ele>960.0</ele><time>2026-03-29T08:27:31.972Z</time></trkpt><trkpt lat="43.3407947" lon="13.0622263"><ele>960.0</ele><time>2026-03-29T08:27:35.921Z</time></trkpt><trkpt lat="43.3407401" lon="13.0622802"><ele>960.0</ele><time>2026-03-29T08:27:38.979Z</time></trkpt><trkpt lat="43.3406911" lon="13.062353"><ele>960.0</ele><time>2026-03-29T08:27:42.032Z</time></trkpt><trkpt lat="43.3406478" lon="13.0624365"><ele>960.0</ele><time>2026-03-29T08:27:44.971Z</time></trkpt><trkpt lat="43.3406069" lon="13.0625301"><ele>960.0</ele><time>2026-03-29T08:27:47.968Z</time></trkpt><trkpt lat="43.3405679" lon="13.0626278"><ele>960.0</ele><time>2026-03-29T08:27:50.967Z</time></trkpt><trkpt lat="43.3405334" lon="13.0627232"><ele>962.3333333333334</ele><time>2026-03-29T08:27:53.967Z</time></trkpt><trkpt lat="43.340498" lon="13.0628163"><ele>964.6666666666667</ele><time>2026-03-29T08:27:56.865Z</time></trkpt><trkpt lat="43.340445" lon="13.0629188"><ele>967.0</ele><time>2026-03-29T08:27:59.955Z</time></trkpt><trkpt lat="43.3403937" lon="13.0629803"><ele>969.3333333333334</ele><time>2026-03-29T08:28:02.034Z</time></trkpt><trkpt lat="43.3403552" lon="13.0630635"><ele>971.6666666666667</ele><time>2026-03-29T08:28:04.972Z</time></trkpt><trkpt lat="43.3403086" lon="13.0631494"><ele>974.0</ele><time>2026-03-29T08:28:07.972Z</time></trkpt><trkpt lat="43.3402526" lon="13.0632305"><ele>971.6666666666667</ele><time>2026-03-29T08:28:10.92Z</time></trkpt><trkpt lat="43.3402039" lon="13.0633137"><ele>969.3333333333334</ele><time>2026-03-29T08:28:13.964Z</time></trkpt><trkpt lat="43.3401642" lon="13.0633976"><ele>967.0</ele><time>2026-03-29T08:28:17.005Z</time></trkpt><trkpt lat="43.340111" lon="13.063465"><ele>964.6666666666667</ele><time>2026-03-29T08:28:19.951Z</time></trkpt><trkpt lat="43.3400542" lon="13.0635335"><ele>962.3333333333334</ele><time>2026-03-29T08:28:22.97Z</time></trkpt><trkpt lat="43.3399976" lon="13.0636155"><ele>960.0</ele><time>2026-03-29T08:28:26.039Z</time></trkpt><trkpt lat="43.3399548" lon="13.063718"><ele>960.0</ele><time>2026-03-29T08:28:29.954Z</time></trkpt><trkpt lat="43.339919" lon="13.0638018"><ele>960.0</ele><time>2026-03-29T08:28:32.964Z</time></trkpt><trkpt lat="43.3398826" lon="13.0638845"><ele>960.0</ele><time>2026-03-29T08:28:36.001Z</time></trkpt><trkpt lat="43.3398495" lon="13.0639682"><ele>960.0</ele><time>2026-03-29T08:28:38.965Z</time></trkpt><trkpt lat="43.339815" lon="13.0640552"><ele>960.0</ele><time>2026-03-29T08:28:41.965Z</time></trkpt><trkpt lat="43.3397711" lon="13.0641189"><ele>960.0</ele><time>2026-03-29T08:28:44.972Z</time></trkpt><trkpt lat="43.3397261" lon="13.0641922"><ele>960.0</ele><time>2026-03-29T08:28:48.967Z</time></trkpt><trkpt lat="43.3396885" lon="13.0642696"><ele>962.5714285714287</ele><time>2026-03-29T08:28:52.943Z</time></trkpt><trkpt lat="43.3396466" lon="13.0643427"><ele>965.1428571428571</ele><time>2026-03-29T08:28:56.903Z</time></trkpt><trkpt lat="43.339587" lon="13.0644063"><ele>967.7142857142858</ele><time>2026-03-29T08:29:00.963Z</time></trkpt><trkpt lat="43.3395523" lon="13.0644806"><ele>970.2857142857143</ele><time>2026-03-29T08:29:03.966Z</time></trkpt><trkpt lat="43.3395136" lon="13.0645623"><ele>972.8571428571429</ele><time>2026-03-29T08:29:07.97Z</time></trkpt><trkpt lat="43.3394796" lon="13.0646403"><ele>975.4285714285714</ele><time>2026-03-29T08:29:11.87Z</time></trkpt><trkpt lat="43.3394453" lon="13.064715"><ele>978.0</ele><time>2026-03-29T08:29:14.977Z</time></trkpt><trkpt lat="43.3394033" lon="13.0647906"><ele>978.0</ele><time>2026-03-29T08:29:17.956Z</time></trkpt><trkpt lat="43.3393644" lon="13.0648612"><ele>978.0000000000001</ele><time>2026-03-29T08:29:20.993Z</time></trkpt><trkpt lat="43.3393188" lon="13.0649491"><ele>978.0</ele><time>2026-03-29T08:29:24.973Z</time></trkpt><trkpt lat="43.3392747" lon="13.0650167"><ele>978.0</ele><time>2026-03-29T08:29:27.898Z</time></trkpt><trkpt lat="43.3392285" lon="13.0650879"><ele>978.0000000000001</ele><time>2026-03-29T08:29:30.973Z</time></trkpt><trkpt lat="43.3391846" lon="13.065162"><ele>978.0</ele><time>2026-03-29T08:29:33.92Z</time></trkpt><trkpt lat="43.3391344" lon="13.0652353"><ele>978.0</ele><time>2026-03-29T08:29:36.954Z</time></trkpt><trkpt lat="43.3390765" lon="13.0653028"><ele>980.0</ele><time>2026-03-29T08:29:39.966Z</time></trkpt><trkpt lat="43.3390151" lon="13.0653607"><ele>982.0</ele><time>2026-03-29T08:29:42.97Z</time></trkpt><trkpt lat="43.3389413" lon="13.0654139"><ele>984.0</ele><time>2026-03-29T08:29:45.985Z</time></trkpt><trkpt lat="43.3388845" lon="13.0654733"><ele>986.0</ele><time>2026-03-29T08:29:49.045Z</time></trkpt><trkpt lat="43.3388307" lon="13.0655443"><ele>988.0</ele><time>2026-03-29T08:29:51.961Z</time></trkpt><trkpt lat="43.338765" lon="13.065609"><ele>990.0</ele><time>2026-03-29T08:29:54.947Z</time></trkpt><trkpt lat="43.3387146" lon="13.0656976"><ele>989.9999999999999</ele><time>2026-03-29T08:29:57.969Z</time></trkpt><trkpt lat="43.3386614" lon="13.0657718"><ele>990.0</ele><time>2026-03-29T08:30:00.961Z</time></trkpt><trkpt lat="43.3386016" lon="13.0658445"><ele>989.9999999999999</ele><time>2026-03-29T08:30:03.961Z</time></trkpt><trkpt lat="43.3385454" lon="13.0659095"><ele>989.9999999999999</ele><time>2026-03-29T08:30:06.957Z</time></trkpt><trkpt lat="43.3385054" lon="13.0659888"><ele>990.0</ele><time>2026-03-29T08:30:09.953Z</time></trkpt><trkpt lat="43.3384809" lon="13.0660818"><ele>989.9999999999999</ele><time>2026-03-29T08:30:12.94Z</time></trkpt><trkpt lat="43.3384728" lon="13.0661813"><ele>989.9999999999999</ele><time>2026-03-29T08:30:16.098Z</time></trkpt><trkpt lat="43.3384634" lon="13.0662831"><ele>987.4285714285713</ele><time>2026-03-29T08:30:19.944Z</time></trkpt><trkpt lat="43.3384727" lon="13.0663959"><ele>984.8571428571429</ele><time>2026-03-29T08:30:23.957Z</time></trkpt><trkpt lat="43.3384925" lon="13.0664891"><ele>982.2857142857142</ele><time>2026-03-29T08:30:27.96Z</time></trkpt><trkpt lat="43.3385136" lon="13.0665847"><ele>979.7142857142857</ele><time>2026-03-29T08:30:31.891Z</time></trkpt><trkpt lat="43.3385339" lon="13.066678"><ele>977.1428571428571</ele><time>2026-03-29T08:30:35.909Z</time></trkpt><trkpt lat="43.3385726" lon="13.0667685"><ele>974.5714285714286</ele><time>2026-03-29T08:30:39.975Z</time></trkpt><trkpt lat="43.3385918" lon="13.0668677"><ele>972.0</ele><time>2026-03-29T08:30:44.874Z</time></trkpt><trkpt lat="43.3386066" lon="13.0669567"><ele>970.5</ele><time>2026-03-29T08:30:49.058Z</time></trkpt><trkpt lat="43.3386545" lon="13.0670244"><ele>969.0</ele><time>2026-03-29T08:30:53.004Z</time></trkpt><trkpt lat="43.3386713" lon="13.0671238"><ele>967.5</ele><time>2026-03-29T08:30:56.971Z</time></trkpt><trkpt lat="43.338672" lon="13.0672442"><ele>966.0</ele><time>2026-03-29T08:31:00.949Z</time></trkpt><trkpt lat="43.3386458" lon="13.0673322"><ele>964.5</ele><time>2026-03-29T08:31:03.012Z</time></trkpt><trkpt lat="43.3386004" lon="13.0674341"><ele>963.0</ele><time>2026-03-29T08:31:05.947Z</time></trkpt><trkpt lat="43.3385591" lon="13.0675166"><ele>962.0</ele><time>2026-03-29T08:31:08.953Z</time></trkpt><trkpt lat="43.3385271" lon="13.0675983"><ele>961.0</ele><time>2026-03-29T08:31:11.955Z</time></trkpt><trkpt lat="43.3385248" lon="13.0677013"><ele>960.0</ele><time>2026-03-29T08:31:14.938Z</time></trkpt><trkpt lat="43.3385431" lon="13.0678122"><ele>959.0</ele><time>2026-03-29T08:31:17.878Z</time></trkpt><trkpt lat="43.3385684" lon="13.0678974"><ele>958.0</ele><time>2026-03-29T08:31:20.038Z</time></trkpt><trkpt lat="43.3385873" lon="13.0680028"><ele>957.0</ele><time>2026-03-29T08:31:22.301Z</time></trkpt><trkpt lat="43.3386041" lon="13.0681109"><ele>957.0</ele><time>2026-03-29T08:31:24.522Z</time></trkpt><trkpt lat="43.3386261" lon="13.0682263"><ele>957.0</ele><time>2026-03-29T08:31:28.017Z</time></trkpt><trkpt lat="43.3386462" lon="13.0683088"><ele>957.0</ele><time>2026-03-29T08:31:31Z</time></trkpt><trkpt lat="43.3386757" lon="13.068576"><ele>957.0</ele><time>2026-03-29T08:31:33.957Z</time></trkpt><trkpt lat="43.3386861" lon="13.068693"><ele>957.0</ele><time>2026-03-29T08:31:34.508Z</time></trkpt><trkpt lat="43.3387115" lon="13.0690736"><ele>959.0</ele><time>2026-03-29T08:31:35.957Z</time></trkpt><trkpt lat="43.3387266" lon="13.06918"><ele>961.0</ele><time>2026-03-29T08:31:36.958Z</time></trkpt><trkpt lat="43.3387736" lon="13.0693251"><ele>963.0</ele><time>2026-03-29T08:31:39.005Z</time></trkpt><trkpt lat="43.3388189" lon="13.0694071"><ele>965.0</ele><time>2026-03-29T08:31:40.949Z</time></trkpt><trkpt lat="43.3388841" lon="13.0694688"><ele>967.0</ele><time>2026-03-29T08:31:42.952Z</time></trkpt><trkpt lat="43.3389371" lon="13.0695305"><ele>969.0</ele><time>2026-03-29T08:31:44.95Z</time></trkpt><trkpt lat="43.3389834" lon="13.0695963"><ele>964.1666666666666</ele><time>2026-03-29T08:31:47.014Z</time></trkpt><trkpt lat="43.339056" lon="13.0696838"><ele>959.3333333333333</ele><time>2026-03-29T08:31:49.959Z</time></trkpt><trkpt lat="43.339111" lon="13.0697482"><ele>954.5</ele><time>2026-03-29T08:31:51.951Z</time></trkpt><trkpt lat="43.3391702" lon="13.0698063"><ele>949.6666666666666</ele><time>2026-03-29T08:31:53.951Z</time></trkpt><trkpt lat="43.3392494" lon="13.069916"><ele>944.8333333333333</ele><time>2026-03-29T08:31:56.951Z</time></trkpt><trkpt lat="43.3393093" lon="13.070013"><ele>940.0</ele><time>2026-03-29T08:31:59.905Z</time></trkpt><trkpt lat="43.3393806" lon="13.0700773"><ele>939.9999999999999</ele><time>2026-03-29T08:32:02.865Z</time></trkpt><trkpt lat="43.3394371" lon="13.0701157"><ele>940.0</ele><time>2026-03-29T08:32:04.958Z</time></trkpt><trkpt lat="43.3395206" lon="13.0701649"><ele>940.0</ele><time>2026-03-29T08:32:08.045Z</time></trkpt><trkpt lat="43.339593" lon="13.0702169"><ele>940.0</ele><time>2026-03-29T08:32:10.912Z</time></trkpt><trkpt lat="43.3396708" lon="13.0702492"><ele>939.9999999999999</ele><time>2026-03-29T08:32:12.948Z</time></trkpt><trkpt lat="43.339729" lon="13.070286"><ele>940.0</ele><time>2026-03-29T08:32:14.947Z</time></trkpt><trkpt lat="43.3398001" lon="13.0703147"><ele>933.3333333333333</ele><time>2026-03-29T08:32:16.951Z</time></trkpt><trkpt lat="43.3398849" lon="13.0703524"><ele>926.6666666666666</ele><time>2026-03-29T08:32:19.961Z</time></trkpt><trkpt lat="43.3399403" lon="13.0703978"><ele>920.0</ele><time>2026-03-29T08:32:21.965Z</time></trkpt><trkpt lat="43.3399899" lon="13.0704749"><ele>913.3333333333333</ele><time>2026-03-29T08:32:23.959Z</time></trkpt><trkpt lat="43.3400363" lon="13.070554"><ele>906.6666666666666</ele><time>2026-03-29T08:32:25.952Z</time></trkpt><trkpt lat="43.3401212" lon="13.0706276"><ele>900.0</ele><time>2026-03-29T08:32:29.027Z</time></trkpt><trkpt lat="43.3402051" lon="13.0706842"><ele>900.0000000000001</ele><time>2026-03-29T08:32:31.962Z</time></trkpt><trkpt lat="43.3402769" lon="13.0707261"><ele>900.0</ele><time>2026-03-29T08:32:33.957Z</time></trkpt><trkpt lat="43.3403384" lon="13.0707597"><ele>900.0000000000001</ele><time>2026-03-29T08:32:35.939Z</time></trkpt><trkpt lat="43.3404274" lon="13.0708188"><ele>900.0000000000001</ele><time>2026-03-29T08:32:38.955Z</time></trkpt><trkpt lat="43.340485" lon="13.0708676"><ele>900.0</ele><time>2026-03-29T08:32:40.959Z</time></trkpt><trkpt lat="43.3405441" lon="13.0709179"><ele>900.0000000000001</ele><time>2026-03-29T08:32:42.953Z</time></trkpt><trkpt lat="43.3406022" lon="13.0709642"><ele>900.0000000000001</ele><time>2026-03-29T08:32:44.958Z</time></trkpt><trkpt lat="43.3406707" lon="13.0710513"><ele>899.0</ele><time>2026-03-29T08:32:47.968Z</time></trkpt><trkpt lat="43.3407434" lon="13.0711224"><ele>898.0</ele><time>2026-03-29T08:32:50.954Z</time></trkpt><trkpt lat="43.3408175" lon="13.0711865"><ele>897.0</ele><time>2026-03-29T08:32:54.039Z</time></trkpt><trkpt lat="43.3408768" lon="13.0712555"><ele>896.0</ele><time>2026-03-29T08:32:56.943Z</time></trkpt><trkpt lat="43.3409413" lon="13.071338"><ele>895.0</ele><time>2026-03-29T08:32:59.92Z</time></trkpt><trkpt lat="43.3410088" lon="13.071421"><ele>894.0</ele><time>2026-03-29T08:33:02.862Z</time></trkpt><trkpt lat="43.3410614" lon="13.0714701"><ele>894.0</ele><time>2026-03-29T08:33:05.141Z</time></trkpt><trkpt lat="43.3411236" lon="13.0715559"><ele>894.0</ele><time>2026-03-29T08:33:08.38Z</time></trkpt><trkpt lat="43.3411877" lon="13.0716458"><ele>894.0</ele><time>2026-03-29T08:33:11.7Z</time></trkpt><trkpt lat="43.3412286" lon="13.0717154"><ele>894.0</ele><time>2026-03-29T08:33:14.038Z</time></trkpt><trkpt lat="43.3412811" lon="13.0717959"><ele>894.0</ele><time>2026-03-29T08:33:16.874Z</time></trkpt><trkpt lat="43.3413205" lon="13.071868"><ele>894.0</ele><time>2026-03-29T08:33:18.96Z</time></trkpt><trkpt lat="43.3413814" lon="13.0719648"><ele>890.6666666666666</ele><time>2026-03-29T08:33:21.965Z</time></trkpt><trkpt lat="43.3414425" lon="13.0720726"><ele>887.3333333333333</ele><time>2026-03-29T08:33:24.963Z</time></trkpt><trkpt lat="43.3414857" lon="13.0721755"><ele>884.0</ele><time>2026-03-29T08:33:27.978Z</time></trkpt><trkpt lat="43.3415156" lon="13.0723023"><ele>880.6666666666666</ele><time>2026-03-29T08:33:30.965Z</time></trkpt><trkpt lat="43.341536" lon="13.0723897"><ele>877.3333333333333</ele><time>2026-03-29T08:33:32.989Z</time></trkpt><trkpt lat="43.341554" lon="13.0724779"><ele>874.0</ele><time>2026-03-29T08:33:34.954Z</time></trkpt><trkpt lat="43.3415664" lon="13.0725645"><ele>873.9999999999999</ele><time>2026-03-29T08:33:36.889Z</time></trkpt><trkpt lat="43.3415754" lon="13.072667"><ele>874.0</ele><time>2026-03-29T08:33:38.967Z</time></trkpt><trkpt lat="43.3415863" lon="13.0727954"><ele>874.0</ele><time>2026-03-29T08:33:41.976Z</time></trkpt><trkpt lat="43.3415904" lon="13.0728906"><ele>874.0</ele><time>2026-03-29T08:33:43.956Z</time></trkpt><trkpt lat="43.3415975" lon="13.0729844"><ele>873.9999999999999</ele><time>2026-03-29T08:33:46.045Z</time></trkpt><trkpt lat="43.3415958" lon="13.0731171"><ele>874.0</ele><time>2026-03-29T08:33:48.957Z</time></trkpt><trkpt lat="43.3415895" lon="13.073209"><ele>873.9999999999999</ele><time>2026-03-29T08:33:50.94Z</time></trkpt><trkpt lat="43.3415892" lon="13.0733172"><ele>874.0</ele><time>2026-03-29T08:33:52.956Z</time></trkpt><trkpt lat="43.3415907" lon="13.0734155"><ele>874.0</ele><time>2026-03-29T08:33:55.041Z</time></trkpt><trkpt lat="43.3415843" lon="13.0735412"><ele>874.0</ele><time>2026-03-29T08:33:57.97Z</time></trkpt><trkpt lat="43.3415647" lon="13.0736637"><ele>873.9999999999999</ele><time>2026-03-29T08:34:00.972Z</time></trkpt><trkpt lat="43.3415269" lon="13.0737781"><ele>874.0</ele><time>2026-03-29T08:34:03.957Z</time></trkpt><trkpt lat="43.3415083" lon="13.0738641"><ele>874.0</ele><time>2026-03-29T08:34:05.978Z</time></trkpt><trkpt lat="43.3414862" lon="13.073947"><ele>874.0</ele><time>2026-03-29T08:34:07.958Z</time></trkpt><trkpt lat="43.3414597" lon="13.0740273"><ele>874.0</ele><time>2026-03-29T08:34:09.959Z</time></trkpt><trkpt lat="43.3414333" lon="13.0741277"><ele>874.0</ele><time>2026-03-29T08:34:13.106Z</time></trkpt><trkpt lat="43.341433" lon="13.074249"><ele>874.0</ele><time>2026-03-29T08:34:18.149Z</time></trkpt><trkpt lat="43.3414267" lon="13.0743495"><ele>874.0</ele><time>2026-03-29T08:34:20.956Z</time></trkpt><trkpt lat="43.3413995" lon="13.0744413"><ele>874.0</ele><time>2026-03-29T08:34:23.994Z</time></trkpt><trkpt lat="43.3413544" lon="13.0745105"><ele>874.4285714285714</ele><time>2026-03-29T08:34:25.889Z</time></trkpt><trkpt lat="43.3413054" lon="13.0745829"><ele>874.8571428571429</ele><time>2026-03-29T08:34:27.948Z</time></trkpt><trkpt lat="43.3412523" lon="13.0746419"><ele>875.2857142857143</ele><time>2026-03-29T08:34:29.964Z</time></trkpt><trkpt lat="43.3411888" lon="13.0747276"><ele>875.7142857142858</ele><time>2026-03-29T08:34:32.962Z</time></trkpt><trkpt lat="43.3411327" lon="13.074798"><ele>876.1428571428571</ele><time>2026-03-29T08:34:35.927Z</time></trkpt><trkpt lat="43.3410611" lon="13.0748309"><ele>876.5714285714287</ele><time>2026-03-29T08:34:39.045Z</time></trkpt><trkpt lat="43.3410188" lon="13.0748966"><ele>877.0</ele><time>2026-03-29T08:34:41.487Z</time></trkpt><trkpt lat="43.3409697" lon="13.0749529"><ele>877.0000000000001</ele><time>2026-03-29T08:34:44.947Z</time></trkpt><trkpt lat="43.3409205" lon="13.0750156"><ele>877.0</ele><time>2026-03-29T08:34:48.951Z</time></trkpt><trkpt lat="43.3408642" lon="13.0750781"><ele>877.0</ele><time>2026-03-29T08:34:53.97Z</time></trkpt><trkpt lat="43.3408029" lon="13.0751425"><ele>877.0</ele><time>2026-03-29T08:34:58.891Z</time></trkpt><trkpt lat="43.3408092" lon="13.0752329"><ele>877.0</ele><time>2026-03-29T08:35:02.962Z</time></trkpt><trkpt lat="43.3408198" lon="13.0753437"><ele>877.0000000000001</ele><time>2026-03-29T08:35:06.885Z</time></trkpt><trkpt lat="43.3408113" lon="13.0754568"><ele>877.0</ele><time>2026-03-29T08:35:10.974Z</time></trkpt><trkpt lat="43.3407949" lon="13.0755657"><ele>876.9999999999999</ele><time>2026-03-29T08:35:14.972Z</time></trkpt><trkpt lat="43.3407654" lon="13.0756708"><ele>877.0</ele><time>2026-03-29T08:35:18.151Z</time></trkpt><trkpt lat="43.3407165" lon="13.0757943"><ele>877.0</ele><time>2026-03-29T08:35:21.949Z</time></trkpt><trkpt lat="43.3406575" lon="13.0758745"><ele>877.0</ele><time>2026-03-29T08:35:25.97Z</time></trkpt><trkpt lat="43.3406164" lon="13.0759487"><ele>876.9999999999999</ele><time>2026-03-29T08:35:28.991Z</time></trkpt><trkpt lat="43.3405929" lon="13.0760308"><ele>877.0</ele><time>2026-03-29T08:35:32.375Z</time></trkpt><trkpt lat="43.3405229" lon="13.0760356"><ele>877.8333333333333</ele><time>2026-03-29T08:35:35.967Z</time></trkpt><trkpt lat="43.340479" lon="13.0761025"><ele>878.6666666666666</ele><time>2026-03-29T08:35:39.961Z</time></trkpt><trkpt lat="43.3404152" lon="13.07618"><ele>879.5</ele><time>2026-03-29T08:35:46.958Z</time></trkpt><trkpt lat="43.3403251" lon="13.0761375"><ele>880.3333333333333</ele><time>2026-03-29T08:35:49.955Z</time></trkpt><trkpt lat="43.340256" lon="13.0761646"><ele>881.1666666666666</ele><time>2026-03-29T08:35:51.945Z</time></trkpt><trkpt lat="43.340194" lon="13.0761339"><ele>882.0</ele><time>2026-03-29T08:35:53.955Z</time></trkpt><trkpt lat="43.3401285" lon="13.076121"><ele>882.0</ele><time>2026-03-29T08:35:56.96Z</time></trkpt><trkpt lat="43.3400639" lon="13.0760576"><ele>882.0</ele><time>2026-03-29T08:36:00.946Z</time></trkpt><trkpt lat="43.3400003" lon="13.0760578"><ele>882.0</ele><time>2026-03-29T08:36:04.962Z</time></trkpt><trkpt lat="43.3399297" lon="13.076036"><ele>882.0</ele><time>2026-03-29T08:36:08.981Z</time></trkpt><trkpt lat="43.3398669" lon="13.0760003"><ele>882.0</ele><time>2026-03-29T08:36:12.98Z</time></trkpt><trkpt lat="43.3398114" lon="13.0759582"><ele>882.0</ele><time>2026-03-29T08:36:15.929Z</time></trkpt><trkpt lat="43.3397583" lon="13.0759094"><ele>882.0</ele><time>2026-03-29T08:36:18.978Z</time></trkpt><trkpt lat="43.3397021" lon="13.0758637"><ele>881.5714285714286</ele><time>2026-03-29T08:36:21.886Z</time></trkpt><trkpt lat="43.3396377" lon="13.0758123"><ele>881.1428571428571</ele><time>2026-03-29T08:36:24.961Z</time></trkpt><trkpt lat="43.3395845" lon="13.0757461"><ele>880.7142857142858</ele><time>2026-03-29T08:36:27.873Z</time></trkpt><trkpt lat="43.3395253" lon="13.0756741"><ele>880.2857142857142</ele><time>2026-03-29T08:36:30.953Z</time></trkpt><trkpt lat="43.3394673" lon="13.0756206"><ele>879.8571428571429</ele><time>2026-03-29T08:36:33.955Z</time></trkpt><trkpt lat="43.3394039" lon="13.0755788"><ele>879.4285714285714</ele><time>2026-03-29T08:36:36.954Z</time></trkpt><trkpt lat="43.3393381" lon="13.0755553"><ele>879.0</ele><time>2026-03-29T08:36:39.962Z</time></trkpt><trkpt lat="43.3392747" lon="13.0755177"><ele>883.1428571428571</ele><time>2026-03-29T08:36:42.965Z</time></trkpt><trkpt lat="43.339213" lon="13.075474"><ele>887.2857142857143</ele><time>2026-03-29T08:36:45.918Z</time></trkpt><trkpt lat="43.3391537" lon="13.0754189"><ele>891.4285714285714</ele><time>2026-03-29T08:36:48.951Z</time></trkpt><trkpt lat="43.3390878" lon="13.0754049"><ele>895.5714285714287</ele><time>2026-03-29T08:36:51.882Z</time></trkpt><trkpt lat="43.3390062" lon="13.0753832"><ele>899.7142857142858</ele><time>2026-03-29T08:36:54.948Z</time></trkpt><trkpt lat="43.3389419" lon="13.075381"><ele>903.8571428571429</ele><time>2026-03-29T08:36:57.956Z</time></trkpt><trkpt lat="43.3388695" lon="13.0754035"><ele>908.0</ele><time>2026-03-29T08:37:01.881Z</time></trkpt><trkpt lat="43.3388025" lon="13.0754345"><ele>910.5000000000001</ele><time>2026-03-29T08:37:07.958Z</time></trkpt><trkpt lat="43.338723" lon="13.0753968"><ele>913.0</ele><time>2026-03-29T08:37:12.954Z</time></trkpt><trkpt lat="43.3386661" lon="13.0753499"><ele>915.5</ele><time>2026-03-29T08:37:16.995Z</time></trkpt><trkpt lat="43.3386139" lon="13.0752803"><ele>918.0</ele><time>2026-03-29T08:37:21.9Z</time></trkpt><trkpt lat="43.3385478" lon="13.0752552"><ele>920.5000000000001</ele><time>2026-03-29T08:37:26.958Z</time></trkpt><trkpt lat="43.338465" lon="13.0752694"><ele>923.0</ele><time>2026-03-29T08:37:30.955Z</time></trkpt><trkpt lat="43.3383847" lon="13.0752861"><ele>923.0</ele><time>2026-03-29T08:37:34.958Z</time></trkpt><trkpt lat="43.3383204" lon="13.0752978"><ele>923.0</ele><time>2026-03-29T08:37:37.964Z</time></trkpt><trkpt lat="43.3382423" lon="13.0753244"><ele>923.0</ele><time>2026-03-29T08:37:41.965Z</time></trkpt><trkpt lat="43.3381867" lon="13.0753773"><ele>923.0</ele><time>2026-03-29T08:37:45.974Z</time></trkpt><trkpt lat="43.3381351" lon="13.0754302"><ele>923.0</ele><time>2026-03-29T08:37:49.943Z</time></trkpt><trkpt lat="43.3380681" lon="13.0754588"><ele>923.0</ele><time>2026-03-29T08:37:53.928Z</time></trkpt><trkpt lat="43.3380052" lon="13.0754773"><ele>923.0</ele><time>2026-03-29T08:37:57.03Z</time></trkpt><trkpt lat="43.3379538" lon="13.0755588"><ele>920.8333333333334</ele><time>2026-03-29T08:38:01.954Z</time></trkpt><trkpt lat="43.3379196" lon="13.0756558"><ele>918.6666666666667</ele><time>2026-03-29T08:38:05.964Z</time></trkpt><trkpt lat="43.3378904" lon="13.0757585"><ele>916.5</ele><time>2026-03-29T08:38:09.945Z</time></trkpt><trkpt lat="43.3378689" lon="13.0758404"><ele>914.3333333333333</ele><time>2026-03-29T08:38:13.055Z</time></trkpt><trkpt lat="43.3378451" lon="13.0759478"><ele>912.1666666666666</ele><time>2026-03-29T08:38:16.919Z</time></trkpt><trkpt lat="43.3378245" lon="13.076059"><ele>910.0</ele><time>2026-03-29T08:38:21.051Z</time></trkpt><trkpt lat="43.3377935" lon="13.0761467"><ele>910.0</ele><time>2026-03-29T08:38:23.962Z</time></trkpt><trkpt lat="43.3377489" lon="13.0762541"><ele>910.0</ele><time>2026-03-29T08:38:26.963Z</time></trkpt><trkpt lat="43.3377186" lon="13.0763318"><ele>910.0</ele><time>2026-03-29T08:38:28.958Z</time></trkpt><trkpt lat="43.3376911" lon="13.076416"><ele>910.0</ele><time>2026-03-29T08:38:30.939Z</time></trkpt><trkpt lat="43.3376674" lon="13.0765101"><ele>910.0</ele><time>2026-03-29T08:38:32.967Z</time></trkpt><trkpt lat="43.3376464" lon="13.0765936"><ele>910.0</ele><time>2026-03-29T08:38:34.869Z</time></trkpt><trkpt lat="43.3376308" lon="13.0766975"><ele>910.0</ele><time>2026-03-29T08:38:36.949Z</time></trkpt><trkpt lat="43.3376156" lon="13.0767952"><ele>907.2857142857143</ele><time>2026-03-29T08:38:38.971Z</time></trkpt><trkpt lat="43.3376042" lon="13.0768943"><ele>904.5714285714286</ele><time>2026-03-29T08:38:40.975Z</time></trkpt><trkpt lat="43.3376016" lon="13.0769908"><ele>901.8571428571429</ele><time>2026-03-29T08:38:42.956Z</time></trkpt><trkpt lat="43.3376014" lon="13.0770798"><ele>899.1428571428571</ele><time>2026-03-29T08:38:44.914Z</time></trkpt><trkpt lat="43.3376012" lon="13.0771776"><ele>896.4285714285714</ele><time>2026-03-29T08:38:46.959Z</time></trkpt><trkpt lat="43.3375986" lon="13.0772641"><ele>893.7142857142858</ele><time>2026-03-29T08:38:48.967Z</time></trkpt><trkpt lat="43.3375977" lon="13.0773556"><ele>891.0</ele><time>2026-03-29T08:38:50.967Z</time></trkpt><trkpt lat="43.3375967" lon="13.0774806"><ele>888.8571428571429</ele><time>2026-03-29T08:38:53.879Z</time></trkpt><trkpt lat="43.3375881" lon="13.0775836"><ele>886.7142857142858</ele><time>2026-03-29T08:38:55.96Z</time></trkpt><trkpt lat="43.3375814" lon="13.0776832"><ele>884.5714285714287</ele><time>2026-03-29T08:38:57.967Z</time></trkpt><trkpt lat="43.3375791" lon="13.077779"><ele>882.4285714285714</ele><time>2026-03-29T08:38:59.982Z</time></trkpt><trkpt lat="43.3375836" lon="13.0778815"><ele>880.2857142857142</ele><time>2026-03-29T08:39:01.955Z</time></trkpt><trkpt lat="43.3375884" lon="13.0779716"><ele>878.1428571428572</ele><time>2026-03-29T08:39:03.863Z</time></trkpt><trkpt lat="43.3375987" lon="13.078083"><ele>876.0</ele><time>2026-03-29T08:39:05.962Z</time></trkpt><trkpt lat="43.3376116" lon="13.0781806"><ele>875.4285714285714</ele><time>2026-03-29T08:39:07.964Z</time></trkpt><trkpt lat="43.3376185" lon="13.0782775"><ele>874.8571428571428</ele><time>2026-03-29T08:39:09.939Z</time></trkpt><trkpt lat="43.3376113" lon="13.0783817"><ele>874.2857142857142</ele><time>2026-03-29T08:39:11.962Z</time></trkpt><trkpt lat="43.3376031" lon="13.0784706"><ele>873.7142857142858</ele><time>2026-03-29T08:39:13.861Z</time></trkpt><trkpt lat="43.3376058" lon="13.078582"><ele>873.1428571428571</ele><time>2026-03-29T08:39:15.96Z</time></trkpt><trkpt lat="43.3376117" lon="13.0786814"><ele>872.5714285714286</ele><time>2026-03-29T08:39:17.957Z</time></trkpt><trkpt lat="43.3376158" lon="13.0787735"><ele>872.0</ele><time>2026-03-29T08:39:19.946Z</time></trkpt><trkpt lat="43.3376218" lon="13.0788709"><ele>872.0000000000001</ele><time>2026-03-29T08:39:21.954Z</time></trkpt><trkpt lat="43.3376337" lon="13.0790106"><ele>872.0</ele><time>2026-03-29T08:39:24.972Z</time></trkpt><trkpt lat="43.33764" lon="13.0791024"><ele>872.0</ele><time>2026-03-29T08:39:26.963Z</time></trkpt><trkpt lat="43.3376482" lon="13.0792341"><ele>872.0</ele><time>2026-03-29T08:39:29.949Z</time></trkpt><trkpt lat="43.3376597" lon="13.0793527"><ele>872.0000000000001</ele><time>2026-03-29T08:39:33.022Z</time></trkpt><trkpt lat="43.3376673" lon="13.0794777"><ele>872.0</ele><time>2026-03-29T08:39:35.966Z</time></trkpt><trkpt lat="43.3376737" lon="13.0796002"><ele>871.8333333333334</ele><time>2026-03-29T08:39:38.895Z</time></trkpt><trkpt lat="43.3376768" lon="13.0796907"><ele>871.6666666666667</ele><time>2026-03-29T08:39:41.045Z</time></trkpt><trkpt lat="43.3376949" lon="13.0798"><ele>871.5</ele><time>2026-03-29T08:39:43.857Z</time></trkpt><trkpt lat="43.3377059" lon="13.0798914"><ele>871.3333333333333</ele><time>2026-03-29T08:39:45.964Z</time></trkpt><trkpt lat="43.3377113" lon="13.0800132"><ele>871.1666666666666</ele><time>2026-03-29T08:39:48.956Z</time></trkpt><trkpt lat="43.3377169" lon="13.0801332"><ele>871.0</ele><time>2026-03-29T08:39:51.979Z</time></trkpt><trkpt lat="43.3377097" lon="13.080231"><ele>871.3333333333333</ele><time>2026-03-29T08:39:53.961Z</time></trkpt><trkpt lat="43.3377196" lon="13.0803261"><ele>871.6666666666666</ele><time>2026-03-29T08:39:55.964Z</time></trkpt><trkpt lat="43.3377362" lon="13.0804098"><ele>872.0</ele><time>2026-03-29T08:39:57.96Z</time></trkpt><trkpt lat="43.3377544" lon="13.0805293"><ele>872.3333333333333</ele><time>2026-03-29T08:40:01.04Z</time></trkpt><trkpt lat="43.337783" lon="13.0806367"><ele>872.6666666666666</ele><time>2026-03-29T08:40:03.82Z</time></trkpt><trkpt lat="43.337803" lon="13.080757"><ele>873.0</ele><time>2026-03-29T08:40:06.85Z</time></trkpt><trkpt lat="43.3377914" lon="13.0808578"><ele>873.1666666666666</ele><time>2026-03-29T08:40:08.797Z</time></trkpt><trkpt lat="43.3377817" lon="13.0809856"><ele>873.3333333333333</ele><time>2026-03-29T08:40:10.852Z</time></trkpt><trkpt lat="43.3377898" lon="13.0811085"><ele>873.5</ele><time>2026-03-29T08:40:14.033Z</time></trkpt><trkpt lat="43.3377857" lon="13.0812182"><ele>873.6666666666666</ele><time>2026-03-29T08:40:16.966Z</time></trkpt><trkpt lat="43.337789" lon="13.0813401"><ele>873.8333333333333</ele><time>2026-03-29T08:40:19.964Z</time></trkpt><trkpt lat="43.3378069" lon="13.0814333"><ele>874.0</ele><time>2026-03-29T08:40:21.945Z</time></trkpt><trkpt lat="43.3378053" lon="13.0815574"><ele>873.1666666666666</ele><time>2026-03-29T08:40:24.934Z</time></trkpt><trkpt lat="43.337778" lon="13.0816656"><ele>872.3333333333333</ele><time>2026-03-29T08:40:27.955Z</time></trkpt><trkpt lat="43.3377125" lon="13.081736"><ele>871.5</ele><time>2026-03-29T08:40:30.959Z</time></trkpt><trkpt lat="43.3376403" lon="13.0817851"><ele>870.6666666666667</ele><time>2026-03-29T08:40:33.956Z</time></trkpt><trkpt lat="43.3375642" lon="13.0818236"><ele>869.8333333333334</ele><time>2026-03-29T08:40:36.97Z</time></trkpt><trkpt lat="43.3374841" lon="13.0818394"><ele>869.0</ele><time>2026-03-29T08:40:39.963Z</time></trkpt><trkpt lat="43.3373978" lon="13.0818286"><ele>869.0000000000001</ele><time>2026-03-29T08:40:43.055Z</time></trkpt><trkpt lat="43.3373176" lon="13.0818131"><ele>869.0</ele><time>2026-03-29T08:40:45.956Z</time></trkpt><trkpt lat="43.3372308" lon="13.0818131"><ele>869.0</ele><time>2026-03-29T08:40:48.967Z</time></trkpt><trkpt lat="43.3371421" lon="13.081833"><ele>869.0</ele><time>2026-03-29T08:40:52.046Z</time></trkpt><trkpt lat="43.3370556" lon="13.0818383"><ele>869.0000000000001</ele><time>2026-03-29T08:40:54.973Z</time></trkpt><trkpt lat="43.3369612" lon="13.0818244"><ele>869.0</ele><time>2026-03-29T08:40:58.048Z</time></trkpt><trkpt lat="43.3368981" lon="13.0818159"><ele>868.1666666666667</ele><time>2026-03-29T08:41:00.041Z</time></trkpt><trkpt lat="43.3368087" lon="13.0818"><ele>867.3333333333334</ele><time>2026-03-29T08:41:02.966Z</time></trkpt><trkpt lat="43.3367124" lon="13.0817815"><ele>866.5</ele><time>2026-03-29T08:41:05.987Z</time></trkpt><trkpt lat="43.3366188" lon="13.081757"><ele>865.6666666666667</ele><time>2026-03-29T08:41:08.974Z</time></trkpt><trkpt lat="43.3365531" lon="13.0817418"><ele>864.8333333333334</ele><time>2026-03-29T08:41:10.97Z</time></trkpt><trkpt lat="43.3364594" lon="13.0817261"><ele>864.0</ele><time>2026-03-29T08:41:13.964Z</time></trkpt><trkpt lat="43.3363705" lon="13.0817245"><ele>862.5714285714286</ele><time>2026-03-29T08:41:16.95Z</time></trkpt><trkpt lat="43.3363064" lon="13.0817145"><ele>861.1428571428571</ele><time>2026-03-29T08:41:18.974Z</time></trkpt><trkpt lat="43.3362172" lon="13.0816973"><ele>859.7142857142858</ele><time>2026-03-29T08:41:21.973Z</time></trkpt><trkpt lat="43.3361517" lon="13.0816818"><ele>858.2857142857142</ele><time>2026-03-29T08:41:23.979Z</time></trkpt><trkpt lat="43.3360871" lon="13.08167"><ele>856.8571428571429</ele><time>2026-03-29T08:41:25.97Z</time></trkpt><trkpt lat="43.33602" lon="13.0816606"><ele>855.4285714285714</ele><time>2026-03-29T08:41:28.034Z</time></trkpt><trkpt lat="43.3359342" lon="13.0816552"><ele>854.0</ele><time>2026-03-29T08:41:30.958Z</time></trkpt><trkpt lat="43.335846" lon="13.0816522"><ele>854.0</ele><time>2026-03-29T08:41:33.95Z</time></trkpt><trkpt lat="43.3357817" lon="13.081631"><ele>854.0</ele><time>2026-03-29T08:41:35.959Z</time></trkpt><trkpt lat="43.3356943" lon="13.0816045"><ele>854.0</ele><time>2026-03-29T08:41:38.969Z</time></trkpt><trkpt lat="43.3356108" lon="13.0815887"><ele>854.0</ele><time>2026-03-29T08:41:41.883Z</time></trkpt><trkpt lat="43.335543" lon="13.0815744"><ele>854.0</ele><time>2026-03-29T08:41:43.959Z</time></trkpt><trkpt lat="43.3354798" lon="13.081558"><ele>854.0</ele><time>2026-03-29T08:41:45.97Z</time></trkpt><trkpt lat="43.3354169" lon="13.0815454"><ele>854.0</ele><time>2026-03-29T08:41:48.043Z</time></trkpt><trkpt lat="43.335328" lon="13.081521"><ele>856.6666666666667</ele><time>2026-03-29T08:41:50.955Z</time></trkpt><trkpt lat="43.3352354" lon="13.081506"><ele>859.3333333333334</ele><time>2026-03-29T08:41:53.956Z</time></trkpt><trkpt lat="43.3351642" lon="13.0815036"><ele>862.0</ele><time>2026-03-29T08:41:56.242Z</time></trkpt><trkpt lat="43.3351002" lon="13.0815048"><ele>864.6666666666667</ele><time>2026-03-29T08:41:58.384Z</time></trkpt><trkpt lat="43.3350352" lon="13.0814908"><ele>867.3333333333334</ele><time>2026-03-29T08:42:00.609Z</time></trkpt><trkpt lat="43.3349658" lon="13.081469"><ele>870.0</ele><time>2026-03-29T08:42:02.782Z</time></trkpt><trkpt lat="43.3348705" lon="13.0814563"><ele>870.0</ele><time>2026-03-29T08:42:05.863Z</time></trkpt><trkpt lat="43.3347988" lon="13.0814505"><ele>870.0</ele><time>2026-03-29T08:42:08.027Z</time></trkpt><trkpt lat="43.3347118" lon="13.0814556"><ele>870.0</ele><time>2026-03-29T08:42:10.96Z</time></trkpt><trkpt lat="43.3346239" lon="13.081457"><ele>870.0</ele><time>2026-03-29T08:42:13.967Z</time></trkpt><trkpt lat="43.3345358" lon="13.0814697"><ele>870.0</ele><time>2026-03-29T08:42:16.976Z</time></trkpt><trkpt lat="43.3344533" lon="13.0814727"><ele>870.0</ele><time>2026-03-29T08:42:19.968Z</time></trkpt><trkpt lat="43.3343646" lon="13.0814627"><ele>869.0</ele><time>2026-03-29T08:42:22.973Z</time></trkpt><trkpt lat="43.3343016" lon="13.0814723"><ele>868.0</ele><time>2026-03-29T08:42:24.972Z</time></trkpt><trkpt lat="43.3342129" lon="13.081484"><ele>867.0</ele><time>2026-03-29T08:42:27.983Z</time></trkpt><trkpt lat="43.3341213" lon="13.0815051"><ele>866.0</ele><time>2026-03-29T08:42:30.976Z</time></trkpt><trkpt lat="43.3340313" lon="13.0815264"><ele>865.0</ele><time>2026-03-29T08:42:33.967Z</time></trkpt><trkpt lat="43.3339452" lon="13.0815457"><ele>864.0</ele><time>2026-03-29T08:42:36.969Z</time></trkpt><trkpt lat="43.3338652" lon="13.0815647"><ele>864.0</ele><time>2026-03-29T08:42:39.968Z</time></trkpt><trkpt lat="43.3337833" lon="13.0815872"><ele>864.0</ele><time>2026-03-29T08:42:42.964Z</time></trkpt><trkpt lat="43.3336925" lon="13.0816037"><ele>864.0</ele><time>2026-03-29T08:42:45.973Z</time></trkpt><trkpt lat="43.3336046" lon="13.081623"><ele>864.0</ele><time>2026-03-29T08:42:48.969Z</time></trkpt><trkpt lat="43.3335198" lon="13.0816229"><ele>864.0</ele><time>2026-03-29T08:42:51.667Z</time></trkpt><trkpt lat="43.333444" lon="13.0816475"><ele>864.0</ele><time>2026-03-29T08:42:53.966Z</time></trkpt><trkpt lat="43.3333604" lon="13.0816686"><ele>861.0</ele><time>2026-03-29T08:42:56.902Z</time></trkpt><trkpt lat="43.3332959" lon="13.081681"><ele>858.0</ele><time>2026-03-29T08:42:58.948Z</time></trkpt><trkpt lat="43.3332316" lon="13.0816845"><ele>855.0</ele><time>2026-03-29T08:43:00.982Z</time></trkpt><trkpt lat="43.3331352" lon="13.0816643"><ele>852.0</ele><time>2026-03-29T08:43:03.969Z</time></trkpt><trkpt lat="43.3330453" lon="13.0816437"><ele>849.0</ele><time>2026-03-29T08:43:06.97Z</time></trkpt><trkpt lat="43.3329592" lon="13.0816292"><ele>846.0</ele><time>2026-03-29T08:43:09.982Z</time></trkpt><trkpt lat="43.3328747" lon="13.0815994"><ele>846.3333333333334</ele><time>2026-03-29T08:43:12.972Z</time></trkpt><trkpt lat="43.3327971" lon="13.0815715"><ele>846.6666666666667</ele><time>2026-03-29T08:43:15.964Z</time></trkpt><trkpt lat="43.3327144" lon="13.0815458"><ele>847.0</ele><time>2026-03-29T08:43:18.972Z</time></trkpt><trkpt lat="43.3326379" lon="13.0815054"><ele>847.3333333333334</ele><time>2026-03-29T08:43:21.966Z</time></trkpt><trkpt lat="43.3325715" lon="13.0814598"><ele>847.6666666666667</ele><time>2026-03-29T08:43:24.961Z</time></trkpt><trkpt lat="43.3325086" lon="13.0814084"><ele>848.0</ele><time>2026-03-29T08:43:27.948Z</time></trkpt><trkpt lat="43.3324376" lon="13.0813369"><ele>848.0000000000001</ele><time>2026-03-29T08:43:30.956Z</time></trkpt><trkpt lat="43.3323684" lon="13.0812769"><ele>848.0</ele><time>2026-03-29T08:43:33.973Z</time></trkpt><trkpt lat="43.3323149" lon="13.0812064"><ele>848.0</ele><time>2026-03-29T08:43:36.964Z</time></trkpt><trkpt lat="43.3322697" lon="13.081124"><ele>848.0</ele><time>2026-03-29T08:43:40.027Z</time></trkpt><trkpt lat="43.3322097" lon="13.0810409"><ele>848.0000000000001</ele><time>2026-03-29T08:43:43.958Z</time></trkpt><trkpt lat="43.332171" lon="13.0809654"><ele>848.0</ele><time>2026-03-29T08:43:46.967Z</time></trkpt><trkpt lat="43.3321326" lon="13.0808841"><ele>844.3333333333334</ele><time>2026-03-29T08:43:50.019Z</time></trkpt><trkpt lat="43.3321024" lon="13.0807808"><ele>840.6666666666667</ele><time>2026-03-29T08:43:53.955Z</time></trkpt><trkpt lat="43.3320695" lon="13.0806798"><ele>837.0</ele><time>2026-03-29T08:43:57.957Z</time></trkpt><trkpt lat="43.3320347" lon="13.0805996"><ele>833.3333333333333</ele><time>2026-03-29T08:44:00.939Z</time></trkpt><trkpt lat="43.3319879" lon="13.08051"><ele>829.6666666666666</ele><time>2026-03-29T08:44:04.928Z</time></trkpt><trkpt lat="43.3319953" lon="13.0804095"><ele>826.0</ele><time>2026-03-29T08:44:07.964Z</time></trkpt><trkpt lat="43.3320079" lon="13.080306"><ele>826.0</ele><time>2026-03-29T08:44:10.908Z</time></trkpt><trkpt lat="43.3320222" lon="13.0802028"><ele>826.0</ele><time>2026-03-29T08:44:13.962Z</time></trkpt><trkpt lat="43.3320376" lon="13.0801018"><ele>826.0</ele><time>2026-03-29T08:44:16.954Z</time></trkpt><trkpt lat="43.3320517" lon="13.0800046"><ele>826.0</ele><time>2026-03-29T08:44:19.954Z</time></trkpt><trkpt lat="43.3320679" lon="13.079902"><ele>826.0</ele><time>2026-03-29T08:44:23.945Z</time></trkpt><trkpt lat="43.3320911" lon="13.0798057"><ele>826.0</ele><time>2026-03-29T08:44:27.952Z</time></trkpt><trkpt lat="43.3321169" lon="13.079717"><ele>826.0</ele><time>2026-03-29T08:44:31.869Z</time></trkpt><trkpt lat="43.332145" lon="13.0796354"><ele>826.5714285714286</ele><time>2026-03-29T08:44:34.942Z</time></trkpt><trkpt lat="43.3321559" lon="13.0795436"><ele>827.1428571428571</ele><time>2026-03-29T08:44:37.937Z</time></trkpt><trkpt lat="43.3321649" lon="13.0794484"><ele>827.7142857142858</ele><time>2026-03-29T08:44:40.948Z</time></trkpt><trkpt lat="43.3321591" lon="13.0793393"><ele>828.2857142857142</ele><time>2026-03-29T08:44:44.896Z</time></trkpt><trkpt lat="43.3321147" lon="13.0792631"><ele>828.8571428571429</ele><time>2026-03-29T08:44:48.957Z</time></trkpt><trkpt lat="43.332053" lon="13.0792301"><ele>829.4285714285714</ele><time>2026-03-29T08:44:52.946Z</time></trkpt><trkpt lat="43.3319825" lon="13.079261"><ele>830.0</ele><time>2026-03-29T08:44:56.9Z</time></trkpt><trkpt lat="43.3319194" lon="13.0792889"><ele>830.0</ele><time>2026-03-29T08:45:00.958Z</time></trkpt><trkpt lat="43.3318571" lon="13.0792605"><ele>830.0</ele><time>2026-03-29T08:45:03.964Z</time></trkpt><trkpt lat="43.3318076" lon="13.0791723"><ele>830.0</ele><time>2026-03-29T08:45:06.948Z</time></trkpt><trkpt lat="43.331763" lon="13.0790915"><ele>830.0</ele><time>2026-03-29T08:45:09.922Z</time></trkpt><trkpt lat="43.3317271" lon="13.078994"><ele>830.0</ele><time>2026-03-29T08:45:12.954Z</time></trkpt><trkpt lat="43.3316718" lon="13.0789241"><ele>830.0</ele><time>2026-03-29T08:45:15.927Z</time></trkpt><trkpt lat="43.3315991" lon="13.0789022"><ele>830.0</ele><time>2026-03-29T08:45:18.95Z</time></trkpt><trkpt lat="43.3315343" lon="13.0788939"><ele>832.5714285714286</ele><time>2026-03-29T08:45:21.954Z</time></trkpt><trkpt lat="43.3314562" lon="13.0788722"><ele>835.1428571428571</ele><time>2026-03-29T08:45:25.957Z</time></trkpt><trkpt lat="43.3313768" lon="13.0788537"><ele>837.7142857142858</ele><time>2026-03-29T08:45:29.864Z</time></trkpt><trkpt lat="43.3313122" lon="13.0788134"><ele>840.2857142857142</ele><time>2026-03-29T08:45:33.96Z</time></trkpt><trkpt lat="43.3312475" lon="13.0788061"><ele>842.8571428571428</ele><time>2026-03-29T08:45:36.866Z</time></trkpt><trkpt lat="43.3311797" lon="13.0788233"><ele>845.4285714285714</ele><time>2026-03-29T08:45:39.962Z</time></trkpt><trkpt lat="43.3311097" lon="13.0788238"><ele>848.0</ele><time>2026-03-29T08:45:42.956Z</time></trkpt><trkpt lat="43.3310372" lon="13.0788309"><ele>848.8571428571429</ele><time>2026-03-29T08:45:45.968Z</time></trkpt><trkpt lat="43.3309709" lon="13.0788396"><ele>849.7142857142857</ele><time>2026-03-29T08:45:48.965Z</time></trkpt><trkpt lat="43.3308976" lon="13.0788297"><ele>850.5714285714286</ele><time>2026-03-29T08:45:51.885Z</time></trkpt><trkpt lat="43.3308209" lon="13.0788037"><ele>851.4285714285714</ele><time>2026-03-29T08:45:54.948Z</time></trkpt><trkpt lat="43.3307477" lon="13.0787903"><ele>852.2857142857142</ele><time>2026-03-29T08:45:57.955Z</time></trkpt><trkpt lat="43.3306714" lon="13.0787829"><ele>853.1428571428571</ele><time>2026-03-29T08:46:00.956Z</time></trkpt><trkpt lat="43.3305985" lon="13.0787485"><ele>854.0</ele><time>2026-03-29T08:46:03.946Z</time></trkpt><trkpt lat="43.3305273" lon="13.078731"><ele>854.0</ele><time>2026-03-29T08:46:06.959Z</time></trkpt><trkpt lat="43.3304599" lon="13.0787124"><ele>854.0</ele><time>2026-03-29T08:46:10.012Z</time></trkpt><trkpt lat="43.3303825" lon="13.0786839"><ele>854.0</ele><time>2026-03-29T08:46:13.927Z</time></trkpt><trkpt lat="43.3303175" lon="13.078664"><ele>854.0</ele><time>2026-03-29T08:46:16.955Z</time></trkpt><trkpt lat="43.3302484" lon="13.078642"><ele>854.0</ele><time>2026-03-29T08:46:19.955Z</time></trkpt><trkpt lat="43.330188" lon="13.0786114"><ele>854.0</ele><time>2026-03-29T08:46:22.953Z</time></trkpt><trkpt lat="43.3301116" lon="13.0785662"><ele>854.0</ele><time>2026-03-29T08:46:26.958Z</time></trkpt><trkpt lat="43.3300309" lon="13.0785414"><ele>854.0000000000001</ele><time>2026-03-29T08:46:30.949Z</time></trkpt><trkpt lat="43.3299669" lon="13.0785183"><ele>854.0</ele><time>2026-03-29T08:46:33.952Z</time></trkpt><trkpt lat="43.3299032" lon="13.0784948"><ele>854.0</ele><time>2026-03-29T08:46:37.052Z</time></trkpt><trkpt lat="43.3298309" lon="13.0784717"><ele>854.0</ele><time>2026-03-29T08:46:40.461Z</time></trkpt><trkpt lat="43.3297534" lon="13.0784432"><ele>854.0000000000001</ele><time>2026-03-29T08:46:43.619Z</time></trkpt><trkpt lat="43.3296642" lon="13.0784289"><ele>854.0</ele><time>2026-03-29T08:46:47.118Z</time></trkpt><trkpt lat="43.3295865" lon="13.0784295"><ele>852.3333333333334</ele><time>2026-03-29T08:46:50.252Z</time></trkpt><trkpt lat="43.3295063" lon="13.0783908"><ele>850.6666666666667</ele><time>2026-03-29T08:46:53.395Z</time></trkpt><trkpt lat="43.3294408" lon="13.078349"><ele>849.0</ele><time>2026-03-29T08:46:56.582Z</time></trkpt><trkpt lat="43.3293774" lon="13.078294"><ele>847.3333333333333</ele><time>2026-03-29T08:46:59.71Z</time></trkpt><trkpt lat="43.3293133" lon="13.0782622"><ele>845.6666666666666</ele><time>2026-03-29T08:47:02.909Z</time></trkpt><trkpt lat="43.3292418" lon="13.0782329"><ele>844.0</ele><time>2026-03-29T08:47:06.959Z</time></trkpt><trkpt lat="43.3291678" lon="13.0782081"><ele>847.7142857142858</ele><time>2026-03-29T08:47:10.982Z</time></trkpt><trkpt lat="43.3290954" lon="13.0781684"><ele>851.4285714285714</ele><time>2026-03-29T08:47:14.964Z</time></trkpt><trkpt lat="43.3290361" lon="13.0781341"><ele>855.1428571428571</ele><time>2026-03-29T08:47:17.924Z</time></trkpt><trkpt lat="43.3289639" lon="13.0781299"><ele>858.8571428571429</ele><time>2026-03-29T08:47:20.948Z</time></trkpt><trkpt lat="43.328891" lon="13.078134"><ele>862.5714285714286</ele><time>2026-03-29T08:47:23.956Z</time></trkpt><trkpt lat="43.3288165" lon="13.0781328"><ele>866.2857142857143</ele><time>2026-03-29T08:47:26.968Z</time></trkpt><trkpt lat="43.3287441" lon="13.0781159"><ele>870.0</ele><time>2026-03-29T08:47:30.242Z</time></trkpt><trkpt lat="43.3286731" lon="13.0780782"><ele>870.0000000000001</ele><time>2026-03-29T08:47:35.637Z</time></trkpt><trkpt lat="43.3286001" lon="13.0780891"><ele>870.0</ele><time>2026-03-29T08:47:39.98Z</time></trkpt><trkpt lat="43.3285236" lon="13.0781042"><ele>870.0</ele><time>2026-03-29T08:47:44.97Z</time></trkpt><trkpt lat="43.328456" lon="13.0781026"><ele>870.0</ele><time>2026-03-29T08:47:49.972Z</time></trkpt><trkpt lat="43.3283817" lon="13.0781047"><ele>870.0</ele><time>2026-03-29T08:47:54.965Z</time></trkpt><trkpt lat="43.3283188" lon="13.0780949"><ele>870.0000000000001</ele><time>2026-03-29T08:47:59.97Z</time></trkpt><trkpt lat="43.3282586" lon="13.0780538"><ele>870.0</ele><time>2026-03-29T08:48:04.057Z</time></trkpt><trkpt lat="43.3281966" lon="13.0780027"><ele>870.0000000000001</ele><time>2026-03-29T08:48:08.972Z</time></trkpt><trkpt lat="43.3281345" lon="13.0779684"><ele>870.0</ele><time>2026-03-29T08:48:12.965Z</time></trkpt><trkpt lat="43.3280642" lon="13.0779477"><ele>870.0</ele><time>2026-03-29T08:48:16.974Z</time></trkpt><trkpt lat="43.3279894" lon="13.0779328"><ele>870.0</ele><time>2026-03-29T08:48:20.881Z</time></trkpt><trkpt lat="43.327908" lon="13.0778915"><ele>870.0</ele><time>2026-03-29T08:48:24.971Z</time></trkpt><trkpt lat="43.3278344" lon="13.0778714"><ele>870.0000000000001</ele><time>2026-03-29T08:48:27.951Z</time></trkpt><trkpt lat="43.327768" lon="13.077869"><ele>870.0</ele><time>2026-03-29T08:48:30.974Z</time></trkpt><trkpt lat="43.3276917" lon="13.0778408"><ele>869.5714285714287</ele><time>2026-03-29T08:48:34.964Z</time></trkpt><trkpt lat="43.3276284" lon="13.0778297"><ele>869.1428571428571</ele><time>2026-03-29T08:48:37.905Z</time></trkpt><trkpt lat="43.3275488" lon="13.0778207"><ele>868.7142857142858</ele><time>2026-03-29T08:48:41.96Z</time></trkpt><trkpt lat="43.3274673" lon="13.0778102"><ele>868.2857142857143</ele><time>2026-03-29T08:48:45.96Z</time></trkpt><trkpt lat="43.3273918" lon="13.0777867"><ele>867.8571428571429</ele><time>2026-03-29T08:48:49.941Z</time></trkpt><trkpt lat="43.3273212" lon="13.0777427"><ele>867.4285714285714</ele><time>2026-03-29T08:48:53.958Z</time></trkpt><trkpt lat="43.327255" lon="13.0777291"><ele>867.0</ele><time>2026-03-29T08:48:57.059Z</time></trkpt><trkpt lat="43.327175" lon="13.0777598"><ele>865.8333333333334</ele><time>2026-03-29T08:49:00.965Z</time></trkpt><trkpt lat="43.3271014" lon="13.0777571"><ele>864.6666666666667</ele><time>2026-03-29T08:49:04.037Z</time></trkpt><trkpt lat="43.3270237" lon="13.0777236"><ele>863.5</ele><time>2026-03-29T08:49:06.958Z</time></trkpt><trkpt lat="43.3269469" lon="13.0776864"><ele>862.3333333333334</ele><time>2026-03-29T08:49:09.961Z</time></trkpt><trkpt lat="43.3268731" lon="13.0776514"><ele>861.1666666666667</ele><time>2026-03-29T08:49:12.907Z</time></trkpt><trkpt lat="43.3267927" lon="13.0776244"><ele>860.0</ele><time>2026-03-29T08:49:16.006Z</time></trkpt><trkpt lat="43.3267114" lon="13.0776093"><ele>860.0000000000001</ele><time>2026-03-29T08:49:18.969Z</time></trkpt><trkpt lat="43.3266254" lon="13.0775913"><ele>860.0</ele><time>2026-03-29T08:49:21.955Z</time></trkpt><trkpt lat="43.3265494" lon="13.0775672"><ele>860.0</ele><time>2026-03-29T08:49:24.974Z</time></trkpt><trkpt lat="43.3264799" lon="13.0775324"><ele>860.0</ele><time>2026-03-29T08:49:28.034Z</time></trkpt><trkpt lat="43.3264143" lon="13.0775026"><ele>860.0000000000001</ele><time>2026-03-29T08:49:30.956Z</time></trkpt><trkpt lat="43.3263349" lon="13.0774716"><ele>860.0</ele><time>2026-03-29T08:49:34.95Z</time></trkpt><trkpt lat="43.3262646" lon="13.0774187"><ele>863.1428571428571</ele><time>2026-03-29T08:49:38.878Z</time></trkpt><trkpt lat="43.3261991" lon="13.0773585"><ele>866.2857142857143</ele><time>2026-03-29T08:49:42.863Z</time></trkpt><trkpt lat="43.3261441" lon="13.0773076"><ele>869.4285714285714</ele><time>2026-03-29T08:49:48.963Z</time></trkpt><trkpt lat="43.3260866" lon="13.0772639"><ele>872.5714285714286</ele><time>2026-03-29T08:49:54.961Z</time></trkpt><trkpt lat="43.3260231" lon="13.0772293"><ele>875.7142857142858</ele><time>2026-03-29T08:50:00.967Z</time></trkpt><trkpt lat="43.3259576" lon="13.0771852"><ele>878.8571428571429</ele><time>2026-03-29T08:50:04.965Z</time></trkpt><trkpt lat="43.3258975" lon="13.0771449"><ele>882.0</ele><time>2026-03-29T08:50:08.961Z</time></trkpt><trkpt lat="43.3258433" lon="13.0770659"><ele>882.0</ele><time>2026-03-29T08:50:12.887Z</time></trkpt><trkpt lat="43.3257853" lon="13.0769943"><ele>882.0</ele><time>2026-03-29T08:50:16.954Z</time></trkpt><trkpt lat="43.3257212" lon="13.0769299"><ele>882.0</ele><time>2026-03-29T08:50:20.961Z</time></trkpt><trkpt lat="43.3256586" lon="13.0768696"><ele>882.0</ele><time>2026-03-29T08:50:24.96Z</time></trkpt><trkpt lat="43.3255953" lon="13.0768307"><ele>882.0</ele><time>2026-03-29T08:50:27.954Z</time></trkpt><trkpt lat="43.3255202" lon="13.0768141"><ele>882.0</ele><time>2026-03-29T08:50:30.958Z</time></trkpt><trkpt lat="43.3254451" lon="13.0768116"><ele>880.1428571428571</ele><time>2026-03-29T08:50:33.968Z</time></trkpt><trkpt lat="43.3253742" lon="13.0768112"><ele>878.2857142857142</ele><time>2026-03-29T08:50:36.955Z</time></trkpt><trkpt lat="43.3253065" lon="13.0767399"><ele>876.4285714285714</ele><time>2026-03-29T08:50:39.961Z</time></trkpt><trkpt lat="43.3252443" lon="13.0767031"><ele>874.5714285714286</ele><time>2026-03-29T08:50:42.959Z</time></trkpt><trkpt lat="43.3251668" lon="13.0766761"><ele>872.7142857142857</ele><time>2026-03-29T08:50:46.95Z</time></trkpt><trkpt lat="43.3250886" lon="13.0766639"><ele>870.8571428571429</ele><time>2026-03-29T08:50:51.045Z</time></trkpt><trkpt lat="43.3250246" lon="13.0766649"><ele>869.0</ele><time>2026-03-29T08:50:54.964Z</time></trkpt><trkpt lat="43.3249541" lon="13.0766875"><ele>869.0</ele><time>2026-03-29T08:50:58.963Z</time></trkpt><trkpt lat="43.3248929" lon="13.0767361"><ele>869.0</ele><time>2026-03-29T08:51:02.955Z</time></trkpt><trkpt lat="43.3248351" lon="13.0767966"><ele>869.0</ele><time>2026-03-29T08:51:06.868Z</time></trkpt><trkpt lat="43.3247816" lon="13.0768569"><ele>869.0</ele><time>2026-03-29T08:51:10.949Z</time></trkpt><trkpt lat="43.3247096" lon="13.0768884"><ele>869.0</ele><time>2026-03-29T08:51:15.961Z</time></trkpt><trkpt lat="43.3246426" lon="13.0769284"><ele>869.0</ele><time>2026-03-29T08:51:20.947Z</time></trkpt><trkpt lat="43.3245757" lon="13.0769526"><ele>869.0</ele><time>2026-03-29T08:51:24.954Z</time></trkpt><trkpt lat="43.3245166" lon="13.0769856"><ele>869.5714285714286</ele><time>2026-03-29T08:51:27.995Z</time></trkpt><trkpt lat="43.3244577" lon="13.0770462"><ele>870.1428571428571</ele><time>2026-03-29T08:51:33.939Z</time></trkpt><trkpt lat="43.3244209" lon="13.0771354"><ele>870.7142857142857</ele><time>2026-03-29T08:51:38.953Z</time></trkpt><trkpt lat="43.3243911" lon="13.0772331"><ele>871.2857142857142</ele><time>2026-03-29T08:51:42.954Z</time></trkpt><trkpt lat="43.3243647" lon="13.0773232"><ele>871.8571428571429</ele><time>2026-03-29T08:51:47.964Z</time></trkpt><trkpt lat="43.3243589" lon="13.0774148"><ele>872.4285714285713</ele><time>2026-03-29T08:51:53.929Z</time></trkpt><trkpt lat="43.3243436" lon="13.0775004"><ele>873.0</ele><time>2026-03-29T08:51:59.727Z</time></trkpt><trkpt lat="43.3243297" lon="13.0775858"><ele>872.9999999999999</ele><time>2026-03-29T08:52:04.913Z</time></trkpt><trkpt lat="43.3243105" lon="13.0776841"><ele>873.0</ele><time>2026-03-29T08:52:10.95Z</time></trkpt><trkpt lat="43.3243022" lon="13.0777797"><ele>873.0</ele><time>2026-03-29T08:52:15.959Z</time></trkpt><trkpt lat="43.3242995" lon="13.0778709"><ele>873.0</ele><time>2026-03-29T08:52:20.957Z</time></trkpt><trkpt lat="43.3242954" lon="13.0779673"><ele>873.0</ele><time>2026-03-29T08:52:26.948Z</time></trkpt><trkpt lat="43.324279" lon="13.0780514"><ele>872.9999999999999</ele><time>2026-03-29T08:52:31.879Z</time></trkpt><trkpt lat="43.3242707" lon="13.0781485"><ele>873.0</ele><time>2026-03-29T08:52:37.775Z</time></trkpt><trkpt lat="43.3242664" lon="13.0782514"><ele>873.4285714285713</ele><time>2026-03-29T08:52:43.815Z</time></trkpt><trkpt lat="43.3242762" lon="13.078341"><ele>873.8571428571429</ele><time>2026-03-29T08:52:49.962Z</time></trkpt><trkpt lat="43.3242836" lon="13.0784278"><ele>874.2857142857142</ele><time>2026-03-29T08:52:54.965Z</time></trkpt><trkpt lat="43.3242954" lon="13.0785298"><ele>874.7142857142857</ele><time>2026-03-29T08:52:58.9Z</time></trkpt><trkpt lat="43.3243181" lon="13.0786219"><ele>875.1428571428571</ele><time>2026-03-29T08:53:02.901Z</time></trkpt><trkpt lat="43.3243233" lon="13.0787164"><ele>875.5714285714286</ele><time>2026-03-29T08:53:06.928Z</time></trkpt><trkpt lat="43.3242684" lon="13.0787953"><ele>876.0</ele><time>2026-03-29T08:53:10.96Z</time></trkpt><trkpt lat="43.3242637" lon="13.0788928"><ele>876.0</ele><time>2026-03-29T08:53:15.876Z</time></trkpt><trkpt lat="43.3242739" lon="13.0789882"><ele>876.0</ele><time>2026-03-29T08:53:20.888Z</time></trkpt><trkpt lat="43.3242934" lon="13.0790867"><ele>876.0</ele><time>2026-03-29T08:53:24.96Z</time></trkpt><trkpt lat="43.3243196" lon="13.0791673"><ele>876.0</ele><time>2026-03-29T08:53:28.008Z</time></trkpt><trkpt lat="43.3243412" lon="13.079251"><ele>876.0</ele><time>2026-03-29T08:53:32.928Z</time></trkpt><trkpt lat="43.3243525" lon="13.0793416"><ele>876.0</ele><time>2026-03-29T08:53:38.959Z</time></trkpt><trkpt lat="43.3243408" lon="13.0794449"><ele>876.0</ele><time>2026-03-29T08:53:43.957Z</time></trkpt><trkpt lat="43.3243438" lon="13.0795436"><ele>878.0</ele><time>2026-03-29T08:53:47.967Z</time></trkpt><trkpt lat="43.3243522" lon="13.079637"><ele>880.0</ele><time>2026-03-29T08:53:50.868Z</time></trkpt><trkpt lat="43.3243712" lon="13.079735"><ele>882.0</ele><time>2026-03-29T08:53:53.97Z</time></trkpt><trkpt lat="43.3243991" lon="13.0798175"><ele>884.0</ele><time>2026-03-29T08:53:56.967Z</time></trkpt><trkpt lat="43.3244224" lon="13.0798982"><ele>886.0</ele><time>2026-03-29T08:53:59.951Z</time></trkpt><trkpt lat="43.3244466" lon="13.0800006"><ele>888.0</ele><time>2026-03-29T08:54:03.951Z</time></trkpt><trkpt lat="43.3244618" lon="13.0801007"><ele>890.0</ele><time>2026-03-29T08:54:07.87Z</time></trkpt><trkpt lat="43.3244642" lon="13.0802017"><ele>891.5714285714287</ele><time>2026-03-29T08:54:11.973Z</time></trkpt><trkpt lat="43.3244493" lon="13.0802931"><ele>893.1428571428571</ele><time>2026-03-29T08:54:15.973Z</time></trkpt><trkpt lat="43.3244279" lon="13.0803874"><ele>894.7142857142858</ele><time>2026-03-29T08:54:19.974Z</time></trkpt><trkpt lat="43.3244167" lon="13.080489"><ele>896.2857142857143</ele><time>2026-03-29T08:54:24.949Z</time></trkpt><trkpt lat="43.3244061" lon="13.0805924"><ele>897.8571428571429</ele><time>2026-03-29T08:54:28.949Z</time></trkpt><trkpt lat="43.3243998" lon="13.0806981"><ele>899.4285714285714</ele><time>2026-03-29T08:54:33.963Z</time></trkpt><trkpt lat="43.3243848" lon="13.0808074"><ele>901.0</ele><time>2026-03-29T08:54:37.962Z</time></trkpt><trkpt lat="43.3243642" lon="13.0809103"><ele>901.4285714285714</ele><time>2026-03-29T08:54:41.957Z</time></trkpt><trkpt lat="43.3243536" lon="13.080999"><ele>901.8571428571429</ele><time>2026-03-29T08:54:45.956Z</time></trkpt><trkpt lat="43.3243361" lon="13.081092"><ele>902.2857142857143</ele><time>2026-03-29T08:54:51.954Z</time></trkpt><trkpt lat="43.3243361" lon="13.0811811"><ele>902.7142857142858</ele><time>2026-03-29T08:54:56.966Z</time></trkpt><trkpt lat="43.3243285" lon="13.0812771"><ele>903.1428571428571</ele><time>2026-03-29T08:55:01.961Z</time></trkpt><trkpt lat="43.3243276" lon="13.0813802"><ele>903.5714285714287</ele><time>2026-03-29T08:55:05.957Z</time></trkpt><trkpt lat="43.3243161" lon="13.0814857"><ele>904.0</ele><time>2026-03-29T08:55:09.95Z</time></trkpt><trkpt lat="43.3243179" lon="13.0815924"><ele>903.2857142857143</ele><time>2026-03-29T08:55:13.967Z</time></trkpt><trkpt lat="43.324328" lon="13.0816881"><ele>902.5714285714284</ele><time>2026-03-29T08:55:17.956Z</time></trkpt><trkpt lat="43.3243212" lon="13.0817745"><ele>901.8571428571428</ele><time>2026-03-29T08:55:24.976Z</time></trkpt><trkpt lat="43.3243198" lon="13.0818692"><ele>901.1428571428571</ele><time>2026-03-29T08:55:28.976Z</time></trkpt><trkpt lat="43.3243049" lon="13.0819692"><ele>900.4285714285713</ele><time>2026-03-29T08:55:31.888Z</time></trkpt><trkpt lat="43.3242889" lon="13.0820657"><ele>899.7142857142856</ele><time>2026-03-29T08:55:34.972Z</time></trkpt><trkpt lat="43.3242592" lon="13.0821601"><ele>898.9999999999999</ele><time>2026-03-29T08:55:37.988Z</time></trkpt><trkpt lat="43.3242376" lon="13.0822539"><ele>899.0000000000001</ele><time>2026-03-29T08:55:40.948Z</time></trkpt><trkpt lat="43.3242181" lon="13.0823459"><ele>899.0</ele><time>2026-03-29T08:55:43.973Z</time></trkpt><trkpt lat="43.324196" lon="13.0824491"><ele>899.0</ele><time>2026-03-29T08:55:47.98Z</time></trkpt><trkpt lat="43.3241593" lon="13.0825327"><ele>899.0</ele><time>2026-03-29T08:55:51.967Z</time></trkpt><trkpt lat="43.3241152" lon="13.0826241"><ele>899.0000000000001</ele><time>2026-03-29T08:55:55.969Z</time></trkpt><trkpt lat="43.3240734" lon="13.0827273"><ele>899.0</ele><time>2026-03-29T08:55:59.963Z</time></trkpt><trkpt lat="43.3240438" lon="13.0828236"><ele>898.7142857142856</ele><time>2026-03-29T08:56:04.067Z</time></trkpt><trkpt lat="43.3240448" lon="13.0829164"><ele>898.4285714285713</ele><time>2026-03-29T08:56:07.974Z</time></trkpt><trkpt lat="43.3240881" lon="13.0829865"><ele>898.1428571428571</ele><time>2026-03-29T08:56:11.976Z</time></trkpt><trkpt lat="43.3241321" lon="13.0830651"><ele>897.8571428571428</ele><time>2026-03-29T08:56:15.976Z</time></trkpt><trkpt lat="43.3241698" lon="13.0831622"><ele>897.5714285714284</ele><time>2026-03-29T08:56:19.93Z</time></trkpt><trkpt lat="43.3241689" lon="13.0832668"><ele>897.2857142857143</ele><time>2026-03-29T08:56:22.967Z</time></trkpt><trkpt lat="43.3241642" lon="13.083365"><ele>897.0</ele><time>2026-03-29T08:56:25.98Z</time></trkpt><trkpt lat="43.324155" lon="13.0834562"><ele>896.4285714285714</ele><time>2026-03-29T08:56:28.983Z</time></trkpt><trkpt lat="43.3241578" lon="13.0835505"><ele>895.8571428571428</ele><time>2026-03-29T08:56:31.967Z</time></trkpt><trkpt lat="43.3241721" lon="13.0836414"><ele>895.2857142857142</ele><time>2026-03-29T08:56:34.91Z</time></trkpt><trkpt lat="43.324205" lon="13.0837272"><ele>894.7142857142858</ele><time>2026-03-29T08:56:37.975Z</time></trkpt><trkpt lat="43.3242336" lon="13.0838268"><ele>894.1428571428571</ele><time>2026-03-29T08:56:40.974Z</time></trkpt><trkpt lat="43.3242648" lon="13.0839244"><ele>893.5714285714286</ele><time>2026-03-29T08:56:43.981Z</time></trkpt><trkpt lat="43.3242879" lon="13.0840231"><ele>893.0</ele><time>2026-03-29T08:56:46.988Z</time></trkpt><trkpt lat="43.324313" lon="13.0841231"><ele>893.0</ele><time>2026-03-29T08:56:49.967Z</time></trkpt><trkpt lat="43.3243377" lon="13.0842215"><ele>893.0</ele><time>2026-03-29T08:56:52.972Z</time></trkpt><trkpt lat="43.3243636" lon="13.0843139"><ele>893.0</ele><time>2026-03-29T08:56:55.926Z</time></trkpt><trkpt lat="43.3243935" lon="13.0844086"><ele>893.0</ele><time>2026-03-29T08:56:58.983Z</time></trkpt><trkpt lat="43.3244195" lon="13.0844955"><ele>893.0</ele><time>2026-03-29T08:57:01.97Z</time></trkpt><trkpt lat="43.3244452" lon="13.0845757"><ele>893.0</ele><time>2026-03-29T08:57:04.972Z</time></trkpt><trkpt lat="43.3244787" lon="13.0846519"><ele>893.0</ele><time>2026-03-29T08:57:07.972Z</time></trkpt><trkpt lat="43.3245095" lon="13.084729"><ele>893.0000000000001</ele><time>2026-03-29T08:57:10.944Z</time></trkpt><trkpt lat="43.3245459" lon="13.0848256"><ele>893.0</ele><time>2026-03-29T08:57:14.974Z</time></trkpt><trkpt lat="43.3245818" lon="13.0849215"><ele>893.0</ele><time>2026-03-29T08:57:18.976Z</time></trkpt><trkpt lat="43.3246074" lon="13.0850296"><ele>893.0</ele><time>2026-03-29T08:57:22.97Z</time></trkpt><trkpt lat="43.3246305" lon="13.0851277"><ele>893.0000000000001</ele><time>2026-03-29T08:57:25.969Z</time></trkpt><trkpt lat="43.3246599" lon="13.0852263"><ele>893.0</ele><time>2026-03-29T08:57:28.976Z</time></trkpt><trkpt lat="43.3246857" lon="13.0853151"><ele>892.1666666666667</ele><time>2026-03-29T08:57:31.515Z</time></trkpt><trkpt lat="43.3247183" lon="13.0854184"><ele>891.3333333333334</ele><time>2026-03-29T08:57:33.963Z</time></trkpt><trkpt lat="43.3247446" lon="13.0855172"><ele>890.5</ele><time>2026-03-29T08:57:37.036Z</time></trkpt><trkpt lat="43.3247665" lon="13.0856261"><ele>889.6666666666667</ele><time>2026-03-29T08:57:39.966Z</time></trkpt><trkpt lat="43.3247833" lon="13.0857341"><ele>888.8333333333334</ele><time>2026-03-29T08:57:42.969Z</time></trkpt><trkpt lat="43.3248189" lon="13.0858315"><ele>888.0</ele><time>2026-03-29T08:57:45.973Z</time></trkpt><trkpt lat="43.3248673" lon="13.0859187"><ele>890.8</ele><time>2026-03-29T08:57:48.957Z</time></trkpt><trkpt lat="43.3249154" lon="13.0859913"><ele>893.5999999999999</ele><time>2026-03-29T08:57:51.897Z</time></trkpt><trkpt lat="43.3249773" lon="13.0860303"><ele>896.4000000000001</ele><time>2026-03-29T08:57:55.947Z</time></trkpt><trkpt lat="43.3249665" lon="13.0862452"><ele>899.2</ele><time>2026-03-29T08:57:56.964Z</time></trkpt><trkpt lat="43.3249757" lon="13.0864096"><ele>902.0</ele><time>2026-03-29T08:57:58.948Z</time></trkpt><trkpt lat="43.3249945" lon="13.0865283"><ele>900.3333333333334</ele><time>2026-03-29T08:58:00.996Z</time></trkpt><trkpt lat="43.3249893" lon="13.0866258"><ele>898.6666666666667</ele><time>2026-03-29T08:58:03.008Z</time></trkpt><trkpt lat="43.3250007" lon="13.0867442"><ele>897.0</ele><time>2026-03-29T08:58:04.946Z</time></trkpt><trkpt lat="43.3250127" lon="13.086856"><ele>895.3333333333333</ele><time>2026-03-29T08:58:06.949Z</time></trkpt><trkpt lat="43.3250153" lon="13.086961"><ele>893.6666666666666</ele><time>2026-03-29T08:58:08.965Z</time></trkpt><trkpt lat="43.3250099" lon="13.0870915"><ele>892.0</ele><time>2026-03-29T08:58:10.989Z</time></trkpt><trkpt lat="43.3250192" lon="13.0871955"><ele>891.9999999999999</ele><time>2026-03-29T08:58:13.01Z</time></trkpt><trkpt lat="43.3250125" lon="13.0873008"><ele>892.0</ele><time>2026-03-29T08:58:15.428Z</time></trkpt><trkpt lat="43.3249824" lon="13.0874175"><ele>892.0</ele><time>2026-03-29T08:58:17.955Z</time></trkpt><trkpt lat="43.324957" lon="13.0875037"><ele>892.0</ele><time>2026-03-29T08:58:19.967Z</time></trkpt><trkpt lat="43.3249088" lon="13.08761"><ele>891.9999999999999</ele><time>2026-03-29T08:58:23.135Z</time></trkpt><trkpt lat="43.3248696" lon="13.0877044"><ele>892.0</ele><time>2026-03-29T08:58:26.181Z</time></trkpt><trkpt lat="43.3247845" lon="13.0877399"><ele>886.1666666666666</ele><time>2026-03-29T08:58:29.356Z</time></trkpt><trkpt lat="43.3247248" lon="13.087786"><ele>880.3333333333333</ele><time>2026-03-29T08:58:31.82Z</time></trkpt><trkpt lat="43.3246612" lon="13.0878328"><ele>874.5</ele><time>2026-03-29T08:58:35.963Z</time></trkpt><trkpt lat="43.3246084" lon="13.0879225"><ele>868.6666666666667</ele><time>2026-03-29T08:58:39.853Z</time></trkpt><trkpt lat="43.3245984" lon="13.088026"><ele>862.8333333333334</ele><time>2026-03-29T08:58:42.96Z</time></trkpt><trkpt lat="43.3245897" lon="13.0881192"><ele>857.0</ele><time>2026-03-29T08:58:46.024Z</time></trkpt><trkpt lat="43.3245749" lon="13.0882293"><ele>859.0</ele><time>2026-03-29T08:58:49.894Z</time></trkpt><trkpt lat="43.3245371" lon="13.0883244"><ele>861.0</ele><time>2026-03-29T08:58:53.984Z</time></trkpt><trkpt lat="43.3244991" lon="13.0883938"><ele>863.0</ele><time>2026-03-29T08:58:56.959Z</time></trkpt><trkpt lat="43.3244615" lon="13.0884676"><ele>865.0</ele><time>2026-03-29T08:59:00.036Z</time></trkpt><trkpt lat="43.3244287" lon="13.0885476"><ele>867.0</ele><time>2026-03-29T08:59:02.934Z</time></trkpt><trkpt lat="43.3244044" lon="13.0886467"><ele>869.0</ele><time>2026-03-29T08:59:06.017Z</time></trkpt><trkpt lat="43.324375" lon="13.0887322"><ele>871.0</ele><time>2026-03-29T08:59:07.931Z</time></trkpt><trkpt lat="43.3243321" lon="13.0888236"><ele>870.9999999999999</ele><time>2026-03-29T08:59:09.942Z</time></trkpt><trkpt lat="43.3242986" lon="13.0889091"><ele>871.0</ele><time>2026-03-29T08:59:11.95Z</time></trkpt><trkpt lat="43.324264" lon="13.08902"><ele>871.0</ele><time>2026-03-29T08:59:14.932Z</time></trkpt><trkpt lat="43.3242386" lon="13.0891368"><ele>871.0</ele><time>2026-03-29T08:59:17.931Z</time></trkpt><trkpt lat="43.3242458" lon="13.0892398"><ele>870.9999999999999</ele><time>2026-03-29T08:59:19.941Z</time></trkpt><trkpt lat="43.324256" lon="13.0893263"><ele>871.0</ele><time>2026-03-29T08:59:21.911Z</time></trkpt><trkpt lat="43.3242651" lon="13.0894151"><ele>871.9999999999999</ele><time>2026-03-29T08:59:23.95Z</time></trkpt><trkpt lat="43.3242553" lon="13.0895295"><ele>873.0</ele><time>2026-03-29T08:59:26.873Z</time></trkpt><trkpt lat="43.3242272" lon="13.0896492"><ele>874.0</ele><time>2026-03-29T08:59:29.925Z</time></trkpt><trkpt lat="43.3241883" lon="13.0897508"><ele>875.0</ele><time>2026-03-29T08:59:32.927Z</time></trkpt><trkpt lat="43.3241455" lon="13.0898454"><ele>875.9999999999999</ele><time>2026-03-29T08:59:35.83Z</time></trkpt><trkpt lat="43.324111" lon="13.0899507"><ele>877.0</ele><time>2026-03-29T08:59:38.956Z</time></trkpt><trkpt lat="43.3240962" lon="13.0900604"><ele>877.4999999999999</ele><time>2026-03-29T08:59:41.934Z</time></trkpt><trkpt lat="43.3240667" lon="13.0901728"><ele>878.0</ele><time>2026-03-29T08:59:44.925Z</time></trkpt><trkpt lat="43.3240241" lon="13.0902826"><ele>878.5</ele><time>2026-03-29T08:59:47.935Z</time></trkpt><trkpt lat="43.3239821" lon="13.0903579"><ele>879.0</ele><time>2026-03-29T08:59:49.936Z</time></trkpt><trkpt lat="43.3239379" lon="13.0904545"><ele>879.4999999999999</ele><time>2026-03-29T08:59:52.893Z</time></trkpt><trkpt lat="43.3239083" lon="13.0905352"><ele>880.0</ele><time>2026-03-29T08:59:54.934Z</time></trkpt><trkpt lat="43.3238654" lon="13.0906573"><ele>875.4999999999999</ele><time>2026-03-29T08:59:57.934Z</time></trkpt><trkpt lat="43.323835" lon="13.0907501"><ele>871.0</ele><time>2026-03-29T08:59:59.939Z</time></trkpt><trkpt lat="43.3237847" lon="13.0908694"><ele>866.5</ele><time>2026-03-29T09:00:02.933Z</time></trkpt><trkpt lat="43.3237499" lon="13.0909526"><ele>862.0</ele><time>2026-03-29T09:00:04.932Z</time></trkpt><trkpt lat="43.3237222" lon="13.0910321"><ele>857.4999999999999</ele><time>2026-03-29T09:00:06.876Z</time></trkpt><trkpt lat="43.323707" lon="13.0911233"><ele>853.0</ele><time>2026-03-29T09:00:08.94Z</time></trkpt><trkpt lat="43.3236888" lon="13.0912368"><ele>852.9999999999999</ele><time>2026-03-29T09:00:11.877Z</time></trkpt><trkpt lat="43.3236778" lon="13.0913226"><ele>853.0</ele><time>2026-03-29T09:00:13.921Z</time></trkpt><trkpt lat="43.3236608" lon="13.0914332"><ele>853.0</ele><time>2026-03-29T09:00:16.886Z</time></trkpt><trkpt lat="43.3236484" lon="13.0915545"><ele>853.0</ele><time>2026-03-29T09:00:19.937Z</time></trkpt><trkpt lat="43.3236348" lon="13.0916798"><ele>852.9999999999999</ele><time>2026-03-29T09:00:22.938Z</time></trkpt><trkpt lat="43.3236216" lon="13.0917907"><ele>853.0</ele><time>2026-03-29T09:00:25.885Z</time></trkpt><trkpt lat="43.3236063" lon="13.0919181"><ele>853.8333333333333</ele><time>2026-03-29T09:00:28.95Z</time></trkpt><trkpt lat="43.32359" lon="13.0920376"><ele>854.6666666666666</ele><time>2026-03-29T09:00:31.947Z</time></trkpt><trkpt lat="43.323573" lon="13.0921558"><ele>855.5</ele><time>2026-03-29T09:00:34.94Z</time></trkpt><trkpt lat="43.3235652" lon="13.0922421"><ele>856.3333333333333</ele><time>2026-03-29T09:00:36.946Z</time></trkpt><trkpt lat="43.3235446" lon="13.0923654"><ele>857.1666666666666</ele><time>2026-03-29T09:00:39.935Z</time></trkpt><trkpt lat="43.3235119" lon="13.0924916"><ele>858.0</ele><time>2026-03-29T09:00:42.904Z</time></trkpt><trkpt lat="43.323489" lon="13.0925994"><ele>858.5</ele><time>2026-03-29T09:00:45.945Z</time></trkpt><trkpt lat="43.3234643" lon="13.0927152"><ele>859.0</ele><time>2026-03-29T09:00:48.938Z</time></trkpt><trkpt lat="43.3234282" lon="13.0928261"><ele>859.5</ele><time>2026-03-29T09:00:51.861Z</time></trkpt><trkpt lat="43.3234006" lon="13.0929136"><ele>860.0</ele><time>2026-03-29T09:00:53.937Z</time></trkpt><trkpt lat="43.3233689" lon="13.0930247"><ele>860.5</ele><time>2026-03-29T09:00:56.863Z</time></trkpt><trkpt lat="43.3233475" lon="13.0931092"><ele>861.0</ele><time>2026-03-29T09:00:58.935Z</time></trkpt><trkpt lat="43.3233186" lon="13.0932333"><ele>861.1428571428571</ele><time>2026-03-29T09:01:01.93Z</time></trkpt><trkpt lat="43.3233005" lon="13.0933252"><ele>861.2857142857142</ele><time>2026-03-29T09:01:03.924Z</time></trkpt><trkpt lat="43.3232821" lon="13.0934441"><ele>861.4285714285714</ele><time>2026-03-29T09:01:06.928Z</time></trkpt><trkpt lat="43.3232747" lon="13.0935319"><ele>861.5714285714286</ele><time>2026-03-29T09:01:08.909Z</time></trkpt><trkpt lat="43.3232689" lon="13.0936276"><ele>861.7142857142857</ele><time>2026-03-29T09:01:10.936Z</time></trkpt><trkpt lat="43.3232737" lon="13.0937446"><ele>861.8571428571429</ele><time>2026-03-29T09:01:13.853Z</time></trkpt><trkpt lat="43.3232769" lon="13.0938318"><ele>862.0</ele><time>2026-03-29T09:01:15.944Z</time></trkpt><trkpt lat="43.323286" lon="13.0939428"><ele>861.9999999999999</ele><time>2026-03-29T09:01:18.95Z</time></trkpt><trkpt lat="43.3233006" lon="13.094057"><ele>862.0</ele><time>2026-03-29T09:01:21.936Z</time></trkpt><trkpt lat="43.3233163" lon="13.094171"><ele>862.0</ele><time>2026-03-29T09:01:24.89Z</time></trkpt><trkpt lat="43.323325" lon="13.0942939"><ele>862.0</ele><time>2026-03-29T09:01:27.95Z</time></trkpt><trkpt lat="43.3233568" lon="13.0943956"><ele>861.9999999999999</ele><time>2026-03-29T09:01:30.907Z</time></trkpt><trkpt lat="43.3234042" lon="13.0944858"><ele>862.0</ele><time>2026-03-29T09:01:33.954Z</time></trkpt><trkpt lat="43.3234558" lon="13.0945621"><ele>862.0</ele><time>2026-03-29T09:01:36.944Z</time></trkpt><trkpt lat="43.3234989" lon="13.0946318"><ele>862.0</ele><time>2026-03-29T09:01:39.943Z</time></trkpt><trkpt lat="43.3235525" lon="13.0946916"><ele>862.0</ele><time>2026-03-29T09:01:42.939Z</time></trkpt><trkpt lat="43.3236111" lon="13.0947426"><ele>862.0</ele><time>2026-03-29T09:01:45.869Z</time></trkpt><trkpt lat="43.3236821" lon="13.0947804"><ele>862.0</ele><time>2026-03-29T09:01:48.945Z</time></trkpt><trkpt lat="43.323748" lon="13.0948202"><ele>862.0</ele><time>2026-03-29T09:01:51.87Z</time></trkpt><trkpt lat="43.3238147" lon="13.0948698"><ele>862.0</ele><time>2026-03-29T09:01:54.944Z</time></trkpt><trkpt lat="43.3238785" lon="13.0949128"><ele>864.1428571428572</ele><time>2026-03-29T09:01:57.948Z</time></trkpt><trkpt lat="43.3239373" lon="13.0949498"><ele>866.2857142857142</ele><time>2026-03-29T09:02:00.947Z</time></trkpt><trkpt lat="43.3240059" lon="13.0949961"><ele>868.4285714285714</ele><time>2026-03-29T09:02:03.943Z</time></trkpt><trkpt lat="43.3240726" lon="13.0950213"><ele>870.5714285714287</ele><time>2026-03-29T09:02:06.938Z</time></trkpt><trkpt lat="43.324137" lon="13.0950414"><ele>872.7142857142858</ele><time>2026-03-29T09:02:09.927Z</time></trkpt><trkpt lat="43.3241933" lon="13.0950901"><ele>874.8571428571429</ele><time>2026-03-29T09:02:12.936Z</time></trkpt><trkpt lat="43.3242422" lon="13.0951522"><ele>877.0</ele><time>2026-03-29T09:02:16.02Z</time></trkpt><trkpt lat="43.3242657" lon="13.0952429"><ele>876.9999999999999</ele><time>2026-03-29T09:02:18.942Z</time></trkpt><trkpt lat="43.3242575" lon="13.0953589"><ele>877.0</ele><time>2026-03-29T09:02:22.007Z</time></trkpt><trkpt lat="43.3242476" lon="13.0954654"><ele>877.0</ele><time>2026-03-29T09:02:24.942Z</time></trkpt><trkpt lat="43.3242171" lon="13.0955643"><ele>877.0</ele><time>2026-03-29T09:02:27.941Z</time></trkpt><trkpt lat="43.3241899" lon="13.0956696"><ele>876.9999999999999</ele><time>2026-03-29T09:02:30.857Z</time></trkpt><trkpt lat="43.3241441" lon="13.0957766"><ele>877.0</ele><time>2026-03-29T09:02:33.97Z</time></trkpt><trkpt lat="43.3240794" lon="13.0958691"><ele>872.4285714285714</ele><time>2026-03-29T09:02:36.941Z</time></trkpt><trkpt lat="43.3240168" lon="13.0959576"><ele>867.8571428571429</ele><time>2026-03-29T09:02:39.821Z</time></trkpt><trkpt lat="43.3239614" lon="13.0960273"><ele>863.2857142857142</ele><time>2026-03-29T09:02:41.919Z</time></trkpt><trkpt lat="43.3239174" lon="13.0960962"><ele>858.7142857142858</ele><time>2026-03-29T09:02:43.93Z</time></trkpt><trkpt lat="43.3238757" lon="13.0961678"><ele>854.1428571428571</ele><time>2026-03-29T09:02:45.936Z</time></trkpt><trkpt lat="43.3238291" lon="13.0962323"><ele>849.5714285714286</ele><time>2026-03-29T09:02:47.935Z</time></trkpt><trkpt lat="43.3237825" lon="13.096298"><ele>845.0</ele><time>2026-03-29T09:02:49.937Z</time></trkpt><trkpt lat="43.3237397" lon="13.0963626"><ele>841.4285714285713</ele><time>2026-03-29T09:02:51.95Z</time></trkpt><trkpt lat="43.3236931" lon="13.0964289"><ele>837.8571428571429</ele><time>2026-03-29T09:02:53.952Z</time></trkpt><trkpt lat="43.3236484" lon="13.0964906"><ele>834.2857142857142</ele><time>2026-03-29T09:02:55.871Z</time></trkpt><trkpt lat="43.3235945" lon="13.0965699"><ele>830.7142857142857</ele><time>2026-03-29T09:02:57.941Z</time></trkpt><trkpt lat="43.3235452" lon="13.0966479"><ele>827.1428571428571</ele><time>2026-03-29T09:02:59.941Z</time></trkpt><trkpt lat="43.3235043" lon="13.0967238"><ele>823.5714285714286</ele><time>2026-03-29T09:03:01.919Z</time></trkpt><trkpt lat="43.3234582" lon="13.0968149"><ele>820.0</ele><time>2026-03-29T09:03:03.94Z</time></trkpt><trkpt lat="43.3234252" lon="13.0968948"><ele>818.9999999999999</ele><time>2026-03-29T09:03:05.851Z</time></trkpt><trkpt lat="43.3233827" lon="13.0969871"><ele>818.0</ele><time>2026-03-29T09:03:07.943Z</time></trkpt><trkpt lat="43.3233499" lon="13.0970737"><ele>817.0</ele><time>2026-03-29T09:03:09.936Z</time></trkpt><trkpt lat="43.3233111" lon="13.0971997"><ele>816.0</ele><time>2026-03-29T09:03:12.943Z</time></trkpt><trkpt lat="43.3232881" lon="13.0972871"><ele>814.9999999999999</ele><time>2026-03-29T09:03:14.936Z</time></trkpt><trkpt lat="43.3232519" lon="13.0974236"><ele>814.0</ele><time>2026-03-29T09:03:17.941Z</time></trkpt><trkpt lat="43.3232308" lon="13.0975243"><ele>816.4285714285714</ele><time>2026-03-29T09:03:19.933Z</time></trkpt><trkpt lat="43.3232236" lon="13.0976146"><ele>818.8571428571429</ele><time>2026-03-29T09:03:21.852Z</time></trkpt><trkpt lat="43.3232001" lon="13.0977136"><ele>821.2857142857142</ele><time>2026-03-29T09:03:23.937Z</time></trkpt><trkpt lat="43.3231779" lon="13.0978047"><ele>823.7142857142858</ele><time>2026-03-29T09:03:25.939Z</time></trkpt><trkpt lat="43.3231596" lon="13.0978921"><ele>826.1428571428571</ele><time>2026-03-29T09:03:27.935Z</time></trkpt><trkpt lat="43.3231421" lon="13.0979894"><ele>828.5714285714286</ele><time>2026-03-29T09:03:29.942Z</time></trkpt><trkpt lat="43.3231297" lon="13.0980798"><ele>831.0</ele><time>2026-03-29T09:03:31.936Z</time></trkpt><trkpt lat="43.3231218" lon="13.098176"><ele>832.3333333333334</ele><time>2026-03-29T09:03:33.938Z</time></trkpt><trkpt lat="43.323117" lon="13.0982704"><ele>833.6666666666667</ele><time>2026-03-29T09:03:36.055Z</time></trkpt><trkpt lat="43.3231312" lon="13.0983928"><ele>835.0</ele><time>2026-03-29T09:03:38.97Z</time></trkpt><trkpt lat="43.3231337" lon="13.0985121"><ele>836.3333333333334</ele><time>2026-03-29T09:03:41.958Z</time></trkpt><trkpt lat="43.3231281" lon="13.0986038"><ele>837.6666666666667</ele><time>2026-03-29T09:03:43.952Z</time></trkpt><trkpt lat="43.3231174" lon="13.0987033"><ele>839.0</ele><time>2026-03-29T09:03:45.961Z</time></trkpt><trkpt lat="43.3230816" lon="13.0988408"><ele>839.0</ele><time>2026-03-29T09:03:49.019Z</time></trkpt><trkpt lat="43.3230732" lon="13.0989356"><ele>839.0</ele><time>2026-03-29T09:03:50.963Z</time></trkpt><trkpt lat="43.3230757" lon="13.0990236"><ele>839.0</ele><time>2026-03-29T09:03:52.867Z</time></trkpt><trkpt lat="43.3230907" lon="13.0991162"><ele>839.0</ele><time>2026-03-29T09:03:54.967Z</time></trkpt><trkpt lat="43.3231205" lon="13.0992024"><ele>839.0</ele><time>2026-03-29T09:03:57.038Z</time></trkpt><trkpt lat="43.3231674" lon="13.0993008"><ele>839.0</ele><time>2026-03-29T09:03:59.955Z</time></trkpt><trkpt lat="43.3232328" lon="13.0993675"><ele>839.0</ele><time>2026-03-29T09:04:02.955Z</time></trkpt><trkpt lat="43.3232912" lon="13.0994339"><ele>838.3333333333334</ele><time>2026-03-29T09:04:05.964Z</time></trkpt><trkpt lat="43.3233109" lon="13.0995352"><ele>837.6666666666667</ele><time>2026-03-29T09:04:09.039Z</time></trkpt><trkpt lat="43.3232868" lon="13.09965"><ele>837.0</ele><time>2026-03-29T09:04:11.953Z</time></trkpt><trkpt lat="43.323246" lon="13.0997552"><ele>836.3333333333333</ele><time>2026-03-29T09:04:14.935Z</time></trkpt><trkpt lat="43.3231923" lon="13.0998516"><ele>835.6666666666666</ele><time>2026-03-29T09:04:17.979Z</time></trkpt><trkpt lat="43.3231534" lon="13.0999522"><ele>835.0</ele><time>2026-03-29T09:04:20.953Z</time></trkpt><trkpt lat="43.3231286" lon="13.1000682"><ele>833.4999999999999</ele><time>2026-03-29T09:04:23.891Z</time></trkpt><trkpt lat="43.3231335" lon="13.1001567"><ele>832.0</ele><time>2026-03-29T09:04:25.909Z</time></trkpt><trkpt lat="43.3231723" lon="13.1002671"><ele>830.5</ele><time>2026-03-29T09:04:28.958Z</time></trkpt><trkpt lat="43.3232218" lon="13.10036"><ele>829.0</ele><time>2026-03-29T09:04:31.931Z</time></trkpt><trkpt lat="43.3232626" lon="13.1004288"><ele>827.4999999999999</ele><time>2026-03-29T09:04:33.964Z</time></trkpt><trkpt lat="43.3233125" lon="13.1005315"><ele>826.0</ele><time>2026-03-29T09:04:36.885Z</time></trkpt><trkpt lat="43.3233379" lon="13.1006145"><ele>825.9999999999999</ele><time>2026-03-29T09:04:38.943Z</time></trkpt><trkpt lat="43.3233577" lon="13.1007347"><ele>826.0</ele><time>2026-03-29T09:04:41.968Z</time></trkpt><trkpt lat="43.3233545" lon="13.1008597"><ele>826.0</ele><time>2026-03-29T09:04:44.963Z</time></trkpt><trkpt lat="43.3233316" lon="13.1009673"><ele>826.0</ele><time>2026-03-29T09:04:47.889Z</time></trkpt><trkpt lat="43.3233091" lon="13.1010825"><ele>825.9999999999999</ele><time>2026-03-29T09:04:50.966Z</time></trkpt><trkpt lat="43.3232836" lon="13.1011752"><ele>826.0</ele><time>2026-03-29T09:04:53.885Z</time></trkpt><trkpt lat="43.3232565" lon="13.1012863"><ele>825.1666666666666</ele><time>2026-03-29T09:04:56.959Z</time></trkpt><trkpt lat="43.3232165" lon="13.1014018"><ele>824.3333333333333</ele><time>2026-03-29T09:04:59.958Z</time></trkpt><trkpt lat="43.3231774" lon="13.1014823"><ele>823.5</ele><time>2026-03-29T09:05:01.958Z</time></trkpt><trkpt lat="43.3231321" lon="13.1015518"><ele>822.6666666666667</ele><time>2026-03-29T09:05:03.957Z</time></trkpt><trkpt lat="43.3230839" lon="13.1016238"><ele>821.8333333333334</ele><time>2026-03-29T09:05:05.944Z</time></trkpt><trkpt lat="43.3230091" lon="13.1016953"><ele>821.0</ele><time>2026-03-29T09:05:08.96Z</time></trkpt><trkpt lat="43.322931" lon="13.1017594"><ele>816.6666666666667</ele><time>2026-03-29T09:05:11.956Z</time></trkpt><trkpt lat="43.3228552" lon="13.1018054"><ele>812.3333333333334</ele><time>2026-03-29T09:05:14.936Z</time></trkpt><trkpt lat="43.3227796" lon="13.1018723"><ele>808.0</ele><time>2026-03-29T09:05:17.953Z</time></trkpt><trkpt lat="43.322695" lon="13.1019324"><ele>803.6666666666667</ele><time>2026-03-29T09:05:20.957Z</time></trkpt><trkpt lat="43.3226393" lon="13.1019792"><ele>799.3333333333334</ele><time>2026-03-29T09:05:23.024Z</time></trkpt><trkpt lat="43.3225677" lon="13.1020591"><ele>795.0</ele><time>2026-03-29T09:05:25.952Z</time></trkpt><trkpt lat="43.3225078" lon="13.1021558"><ele>795.0</ele><time>2026-03-29T09:05:28.963Z</time></trkpt><trkpt lat="43.3224694" lon="13.1022769"><ele>795.0</ele><time>2026-03-29T09:05:31.959Z</time></trkpt><trkpt lat="43.3224419" lon="13.1023981"><ele>795.0</ele><time>2026-03-29T09:05:34.957Z</time></trkpt><trkpt lat="43.3224152" lon="13.102527"><ele>795.0</ele><time>2026-03-29T09:05:37.968Z</time></trkpt><trkpt lat="43.3223965" lon="13.1026467"><ele>795.0</ele><time>2026-03-29T09:05:40.941Z</time></trkpt><trkpt lat="43.3223687" lon="13.1027737"><ele>796.2857142857143</ele><time>2026-03-29T09:05:43.953Z</time></trkpt><trkpt lat="43.3223582" lon="13.1028594"><ele>797.5714285714287</ele><time>2026-03-29T09:05:45.965Z</time></trkpt><trkpt lat="43.322368" lon="13.1029676"><ele>798.8571428571429</ele><time>2026-03-29T09:05:48.88Z</time></trkpt><trkpt lat="43.322389" lon="13.1030698"><ele>800.1428571428571</ele><time>2026-03-29T09:05:51.961Z</time></trkpt><trkpt lat="43.3224143" lon="13.1031719"><ele>801.4285714285714</ele><time>2026-03-29T09:05:55.017Z</time></trkpt><trkpt lat="43.3224393" lon="13.1032549"><ele>802.7142857142857</ele><time>2026-03-29T09:05:57.915Z</time></trkpt><trkpt lat="43.3224805" lon="13.1033302"><ele>804.0</ele><time>2026-03-29T09:06:02.957Z</time></trkpt><trkpt lat="43.3224976" lon="13.1034259"><ele>804.0</ele><time>2026-03-29T09:06:05.962Z</time></trkpt><trkpt lat="43.3225532" lon="13.1035009"><ele>804.0</ele><time>2026-03-29T09:06:10.97Z</time></trkpt><trkpt lat="43.3225516" lon="13.1036376"><ele>804.0</ele><time>2026-03-29T09:06:14.947Z</time></trkpt><trkpt lat="43.3225523" lon="13.1037277"><ele>804.0</ele><time>2026-03-29T09:06:17.975Z</time></trkpt><trkpt lat="43.3225804" lon="13.1038056"><ele>804.0</ele><time>2026-03-29T09:06:21.979Z</time></trkpt><trkpt lat="43.3226238" lon="13.1038833"><ele>804.0</ele><time>2026-03-29T09:06:26.949Z</time></trkpt><trkpt lat="43.3226816" lon="13.1039422"><ele>804.0</ele><time>2026-03-29T09:06:31.992Z</time></trkpt><trkpt lat="43.3227304" lon="13.1040222"><ele>803.1666666666666</ele><time>2026-03-29T09:06:35.957Z</time></trkpt><trkpt lat="43.3227796" lon="13.1040941"><ele>802.3333333333333</ele><time>2026-03-29T09:06:38.856Z</time></trkpt><trkpt lat="43.3228273" lon="13.1041806"><ele>801.5</ele><time>2026-03-29T09:06:41.956Z</time></trkpt><trkpt lat="43.3228717" lon="13.104268"><ele>800.6666666666666</ele><time>2026-03-29T09:06:44.947Z</time></trkpt><trkpt lat="43.3229084" lon="13.1043471"><ele>799.8333333333333</ele><time>2026-03-29T09:06:47.956Z</time></trkpt><trkpt lat="43.3229296" lon="13.1044645"><ele>799.0</ele><time>2026-03-29T09:07:02.892Z</time></trkpt><trkpt lat="43.3229425" lon="13.1045715"><ele>798.9999999999999</ele><time>2026-03-29T09:07:05.96Z</time></trkpt><trkpt lat="43.3229287" lon="13.1046768"><ele>799.0</ele><time>2026-03-29T09:07:08.96Z</time></trkpt><trkpt lat="43.3228777" lon="13.104738"><ele>799.0</ele><time>2026-03-29T09:07:15.962Z</time></trkpt><trkpt lat="43.3228769" lon="13.1048341"><ele>799.0</ele><time>2026-03-29T09:07:27.963Z</time></trkpt><trkpt lat="43.3229712" lon="13.1049149"><ele>798.9999999999999</ele><time>2026-03-29T09:07:29.953Z</time></trkpt><trkpt lat="43.3229744" lon="13.1050295"><ele>799.0</ele><time>2026-03-29T09:07:32.95Z</time></trkpt><trkpt lat="43.3229618" lon="13.1051383"><ele>797.8571428571429</ele><time>2026-03-29T09:07:35.956Z</time></trkpt><trkpt lat="43.3229476" lon="13.1052265"><ele>796.7142857142857</ele><time>2026-03-29T09:07:39.96Z</time></trkpt><trkpt lat="43.3229687" lon="13.1053117"><ele>795.5714285714286</ele><time>2026-03-29T09:07:44.943Z</time></trkpt><trkpt lat="43.3229777" lon="13.1054022"><ele>794.4285714285714</ele><time>2026-03-29T09:07:51.945Z</time></trkpt><trkpt lat="43.322915" lon="13.1054187"><ele>793.2857142857142</ele><time>2026-03-29T09:08:01.968Z</time></trkpt><trkpt lat="43.3228611" lon="13.1054707"><ele>792.1428571428571</ele><time>2026-03-29T09:08:12.944Z</time></trkpt><trkpt lat="43.322851" lon="13.1055599"><ele>791.0</ele><time>2026-03-29T09:08:16.946Z</time></trkpt><trkpt lat="43.3228479" lon="13.1056484"><ele>791.0000000000001</ele><time>2026-03-29T09:08:21.946Z</time></trkpt><trkpt lat="43.3228244" lon="13.1057373"><ele>791.0</ele><time>2026-03-29T09:08:24.945Z</time></trkpt><trkpt lat="43.3227795" lon="13.1058001"><ele>791.0</ele><time>2026-03-29T09:08:38.948Z</time></trkpt><trkpt lat="43.322844" lon="13.1058003"><ele>791.0</ele><time>2026-03-29T09:08:40.916Z</time></trkpt><trkpt lat="43.322918" lon="13.1057968"><ele>791.0000000000001</ele><time>2026-03-29T09:08:42.966Z</time></trkpt><trkpt lat="43.322831" lon="13.1058922"><ele>791.0</ele><time>2026-03-29T09:08:47.953Z</time></trkpt><trkpt lat="43.3227618" lon="13.1059319"><ele>792.7142857142857</ele><time>2026-03-29T09:08:49.969Z</time></trkpt><trkpt lat="43.3227003" lon="13.1059648"><ele>794.4285714285714</ele><time>2026-03-29T09:08:54.956Z</time></trkpt><trkpt lat="43.3226303" lon="13.105997"><ele>796.1428571428571</ele><time>2026-03-29T09:09:00.136Z</time></trkpt><trkpt lat="43.32257" lon="13.1060248"><ele>797.8571428571429</ele><time>2026-03-29T09:09:11.945Z</time></trkpt><trkpt lat="43.3225302" lon="13.1060946"><ele>799.5714285714286</ele><time>2026-03-29T09:09:17.955Z</time></trkpt><trkpt lat="43.3224679" lon="13.1061073"><ele>801.2857142857142</ele><time>2026-03-29T09:09:21.943Z</time></trkpt><trkpt lat="43.3224294" lon="13.1061786"><ele>803.0</ele><time>2026-03-29T09:09:27.952Z</time></trkpt><trkpt lat="43.3224078" lon="13.1062642"><ele>803.0000000000001</ele><time>2026-03-29T09:09:33.957Z</time></trkpt><trkpt lat="43.3223741" lon="13.1063447"><ele>803.0</ele><time>2026-03-29T09:09:38.852Z</time></trkpt><trkpt lat="43.322329" lon="13.1064113"><ele>803.0</ele><time>2026-03-29T09:09:44.944Z</time></trkpt><trkpt lat="43.3223872" lon="13.1064451"><ele>803.0</ele><time>2026-03-29T09:09:48.934Z</time></trkpt><trkpt lat="43.3224535" lon="13.1064451"><ele>803.0000000000001</ele><time>2026-03-29T09:09:51.942Z</time></trkpt><trkpt lat="43.3224852" lon="13.1063692"><ele>803.0</ele><time>2026-03-29T09:09:56.974Z</time></trkpt><trkpt lat="43.3223698" lon="13.1061725"><ele>802.9999999999999</ele><time>2026-03-29T09:09:57.962Z</time></trkpt><trkpt lat="43.3224496" lon="13.1061462"><ele>803.0</ele><time>2026-03-29T09:10:01.951Z</time></trkpt><trkpt lat="43.3225277" lon="13.1061455"><ele>803.0</ele><time>2026-03-29T09:10:04.92Z</time></trkpt><trkpt lat="43.3226024" lon="13.1061649"><ele>803.0</ele><time>2026-03-29T09:10:07.961Z</time></trkpt><trkpt lat="43.3226556" lon="13.1062152"><ele>803.0</ele><time>2026-03-29T09:10:10.962Z</time></trkpt><trkpt lat="43.3227129" lon="13.1062699"><ele>802.9999999999999</ele><time>2026-03-29T09:10:13.956Z</time></trkpt><trkpt lat="43.3227711" lon="13.1063367"><ele>803.0</ele><time>2026-03-29T09:10:16.963Z</time></trkpt><trkpt lat="43.3228384" lon="13.1063952"><ele>803.0000000000001</ele><time>2026-03-29T09:10:20.948Z</time></trkpt><trkpt lat="43.3229025" lon="13.1064419"><ele>803.0</ele><time>2026-03-29T09:10:24.967Z</time></trkpt><trkpt lat="43.3229665" lon="13.1064889"><ele>803.0</ele><time>2026-03-29T09:10:28.96Z</time></trkpt><trkpt lat="43.3230337" lon="13.1065286"><ele>803.0</ele><time>2026-03-29T09:10:32.914Z</time></trkpt><trkpt lat="43.3231117" lon="13.1065863"><ele>803.0000000000001</ele><time>2026-03-29T09:10:36.94Z</time></trkpt><trkpt lat="43.3231913" lon="13.1066284"><ele>803.0</ele><time>2026-03-29T09:10:39.915Z</time></trkpt><trkpt lat="43.3232692" lon="13.1067012"><ele>804.8571428571428</ele><time>2026-03-29T09:10:41.944Z</time></trkpt><trkpt lat="43.3233188" lon="13.1067664"><ele>806.7142857142857</ele><time>2026-03-29T09:10:43.92Z</time></trkpt><trkpt lat="43.323379" lon="13.1068149"><ele>808.5714285714286</ele><time>2026-03-29T09:10:45.963Z</time></trkpt><trkpt lat="43.3234329" lon="13.1068639"><ele>810.4285714285713</ele><time>2026-03-29T09:10:47.947Z</time></trkpt><trkpt lat="43.3235114" lon="13.1069068"><ele>812.2857142857143</ele><time>2026-03-29T09:10:50.962Z</time></trkpt><trkpt lat="43.3235842" lon="13.1069595"><ele>814.1428571428571</ele><time>2026-03-29T09:10:54.97Z</time></trkpt><trkpt lat="43.3236465" lon="13.1069928"><ele>816.0</ele><time>2026-03-29T09:10:57.958Z</time></trkpt><trkpt lat="43.3237028" lon="13.1070379"><ele>816.0</ele><time>2026-03-29T09:11:00.959Z</time></trkpt><trkpt lat="43.3237532" lon="13.1071031"><ele>816.0</ele><time>2026-03-29T09:11:04.966Z</time></trkpt><trkpt lat="43.3238026" lon="13.1071738"><ele>816.0</ele><time>2026-03-29T09:11:07.942Z</time></trkpt><trkpt lat="43.3238581" lon="13.1072454"><ele>816.0</ele><time>2026-03-29T09:11:11.946Z</time></trkpt><trkpt lat="43.3238948" lon="13.107316"><ele>816.0</ele><time>2026-03-29T09:11:13.946Z</time></trkpt><trkpt lat="43.3239567" lon="13.1073716"><ele>816.0</ele><time>2026-03-29T09:11:16.97Z</time></trkpt><trkpt lat="43.3240111" lon="13.1074368"><ele>816.0</ele><time>2026-03-29T09:11:19.975Z</time></trkpt><trkpt lat="43.3240565" lon="13.1075068"><ele>816.1428571428571</ele><time>2026-03-29T09:11:21.948Z</time></trkpt><trkpt lat="43.3241139" lon="13.107561"><ele>816.2857142857143</ele><time>2026-03-29T09:11:24.018Z</time></trkpt><trkpt lat="43.3240546" lon="13.1076039"><ele>816.4285714285713</ele><time>2026-03-29T09:11:29.942Z</time></trkpt><trkpt lat="43.3240899" lon="13.1076886"><ele>816.5714285714286</ele><time>2026-03-29T09:11:40.961Z</time></trkpt><trkpt lat="43.3241135" lon="13.1077748"><ele>816.7142857142857</ele><time>2026-03-29T09:11:44.946Z</time></trkpt><trkpt lat="43.3241197" lon="13.1078668"><ele>816.8571428571428</ele><time>2026-03-29T09:11:50.962Z</time></trkpt><trkpt lat="43.3241836" lon="13.1079163"><ele>817.0</ele><time>2026-03-29T09:11:53.948Z</time></trkpt><trkpt lat="43.3242244" lon="13.1079834"><ele>816.9999999999999</ele><time>2026-03-29T09:11:56.967Z</time></trkpt><trkpt lat="43.3242055" lon="13.1080766"><ele>817.0</ele><time>2026-03-29T09:12:00.964Z</time></trkpt><trkpt lat="43.3241439" lon="13.1080264"><ele>817.0</ele><time>2026-03-29T09:12:06.951Z</time></trkpt><trkpt lat="43.3240767" lon="13.1080009"><ele>817.0</ele><time>2026-03-29T09:12:12.961Z</time></trkpt><trkpt lat="43.3240253" lon="13.1079461"><ele>817.0</ele><time>2026-03-29T09:12:16.947Z</time></trkpt><trkpt lat="43.3239477" lon="13.1078984"><ele>816.9999999999999</ele><time>2026-03-29T09:12:20.958Z</time></trkpt><trkpt lat="43.3238948" lon="13.1078141"><ele>817.0</ele><time>2026-03-29T09:12:24.968Z</time></trkpt><trkpt lat="43.3238446" lon="13.1077471"><ele>812.1428571428571</ele><time>2026-03-29T09:12:28.969Z</time></trkpt><trkpt lat="43.3237798" lon="13.1077259"><ele>807.2857142857142</ele><time>2026-03-29T09:12:33.939Z</time></trkpt><trkpt lat="43.3237543" lon="13.1076415"><ele>802.4285714285713</ele><time>2026-03-29T09:12:37.945Z</time></trkpt><trkpt lat="43.3236817" lon="13.1076525"><ele>797.5714285714286</ele><time>2026-03-29T09:12:42.976Z</time></trkpt><trkpt lat="43.3236202" lon="13.1076841"><ele>792.7142857142858</ele><time>2026-03-29T09:12:47.971Z</time></trkpt><trkpt lat="43.3235557" lon="13.1076574"><ele>787.8571428571428</ele><time>2026-03-29T09:12:51.917Z</time></trkpt><trkpt lat="43.3235077" lon="13.1075938"><ele>783.0</ele><time>2026-03-29T09:12:54.978Z</time></trkpt><trkpt lat="43.3234582" lon="13.1075316"><ele>783.0</ele><time>2026-03-29T09:12:57.956Z</time></trkpt><trkpt lat="43.323412" lon="13.1074569"><ele>783.0</ele><time>2026-03-29T09:13:00.977Z</time></trkpt><trkpt lat="43.3233784" lon="13.1075436"><ele>783.0</ele><time>2026-03-29T09:13:09.972Z</time></trkpt><trkpt lat="43.3233552" lon="13.1076477"><ele>783.0</ele><time>2026-03-29T09:13:13.982Z</time></trkpt><trkpt lat="43.3234576" lon="13.1075594"><ele>783.0</ele><time>2026-03-29T09:13:15.988Z</time></trkpt><trkpt lat="43.3235278" lon="13.1075695"><ele>783.0</ele><time>2026-03-29T09:13:17.986Z</time></trkpt><trkpt lat="43.3235566" lon="13.1076511"><ele>783.0</ele><time>2026-03-29T09:13:20.99Z</time></trkpt><trkpt lat="43.3235774" lon="13.1077433"><ele>783.0</ele><time>2026-03-29T09:13:25.036Z</time></trkpt><trkpt lat="43.3236056" lon="13.1078435"><ele>783.0</ele><time>2026-03-29T09:13:31.964Z</time></trkpt><trkpt lat="43.3236351" lon="13.1079413"><ele>783.0</ele><time>2026-03-29T09:13:35.948Z</time></trkpt><trkpt lat="43.3236567" lon="13.1080267"><ele>783.0</ele><time>2026-03-29T09:13:38.935Z</time></trkpt><trkpt lat="43.323667" lon="13.1081318"><ele>783.0</ele><time>2026-03-29T09:13:42.961Z</time></trkpt><trkpt lat="43.3236647" lon="13.1082449"><ele>779.7142857142857</ele><time>2026-03-29T09:13:47.995Z</time></trkpt><trkpt lat="43.3236622" lon="13.1083394"><ele>776.4285714285714</ele><time>2026-03-29T09:14:04.955Z</time></trkpt><trkpt lat="43.3236832" lon="13.1084246"><ele>773.1428571428571</ele><time>2026-03-29T09:14:07.96Z</time></trkpt><trkpt lat="43.3237026" lon="13.1085176"><ele>769.8571428571429</ele><time>2026-03-29T09:14:10.951Z</time></trkpt><trkpt lat="43.3237369" lon="13.1086278"><ele>766.5714285714287</ele><time>2026-03-29T09:14:15.306Z</time></trkpt><trkpt lat="43.3237755" lon="13.1086973"><ele>763.2857142857143</ele><time>2026-03-29T09:14:18.971Z</time></trkpt><trkpt lat="43.3238006" lon="13.1088044"><ele>760.0</ele><time>2026-03-29T09:14:22.956Z</time></trkpt><trkpt lat="43.3238047" lon="13.108892"><ele>760.0</ele><time>2026-03-29T09:14:25.939Z</time></trkpt><trkpt lat="43.3238166" lon="13.1090001"><ele>760.0</ele><time>2026-03-29T09:14:29.923Z</time></trkpt><trkpt lat="43.3238483" lon="13.1091034"><ele>760.0</ele><time>2026-03-29T09:14:33.947Z</time></trkpt><trkpt lat="43.3238732" lon="13.1091892"><ele>760.0</ele><time>2026-03-29T09:14:37.955Z</time></trkpt><trkpt lat="43.3238904" lon="13.1092924"><ele>760.0</ele><time>2026-03-29T09:14:41.949Z</time></trkpt><trkpt lat="43.3239251" lon="13.1093706"><ele>760.0</ele><time>2026-03-29T09:14:44.947Z</time></trkpt><trkpt lat="43.3239552" lon="13.1094484"><ele>760.0</ele><time>2026-03-29T09:14:47.86Z</time></trkpt><trkpt lat="43.3240042" lon="13.1095378"><ele>759.7142857142858</ele><time>2026-03-29T09:14:51.952Z</time></trkpt><trkpt lat="43.3240408" lon="13.109609"><ele>759.4285714285714</ele><time>2026-03-29T09:14:54.927Z</time></trkpt><trkpt lat="43.3240815" lon="13.1096905"><ele>759.1428571428571</ele><time>2026-03-29T09:14:59.943Z</time></trkpt><trkpt lat="43.3241257" lon="13.1097655"><ele>758.8571428571429</ele><time>2026-03-29T09:15:07.953Z</time></trkpt><trkpt lat="43.3241577" lon="13.1098429"><ele>758.5714285714286</ele><time>2026-03-29T09:15:13.041Z</time></trkpt><trkpt lat="43.3241916" lon="13.1099311"><ele>758.2857142857143</ele><time>2026-03-29T09:15:17.964Z</time></trkpt><trkpt lat="43.3242363" lon="13.1100218"><ele>758.0</ele><time>2026-03-29T09:15:21.963Z</time></trkpt><trkpt lat="43.324299" lon="13.1100908"><ele>758.0000000000001</ele><time>2026-03-29T09:15:25.976Z</time></trkpt><trkpt lat="43.324375" lon="13.1101154"><ele>758.0</ele><time>2026-03-29T09:15:29.898Z</time></trkpt><trkpt lat="43.3244363" lon="13.1101445"><ele>758.0</ele><time>2026-03-29T09:15:34.285Z</time></trkpt><trkpt lat="43.3245055" lon="13.1101576"><ele>758.0</ele><time>2026-03-29T09:15:40.646Z</time></trkpt><trkpt lat="43.3245754" lon="13.1101808"><ele>758.0</ele><time>2026-03-29T09:15:49.047Z</time></trkpt><trkpt lat="43.324646" lon="13.1102181"><ele>758.0000000000001</ele><time>2026-03-29T09:15:53.897Z</time></trkpt><trkpt lat="43.3246984" lon="13.1102778"><ele>758.0</ele><time>2026-03-29T09:15:57.956Z</time></trkpt><trkpt lat="43.3247476" lon="13.1103481"><ele>758.4285714285714</ele><time>2026-03-29T09:16:01.961Z</time></trkpt><trkpt lat="43.3247964" lon="13.1104323"><ele>758.8571428571429</ele><time>2026-03-29T09:16:05.899Z</time></trkpt><trkpt lat="43.3248527" lon="13.1104772"><ele>759.2857142857142</ele><time>2026-03-29T09:16:10.966Z</time></trkpt><trkpt lat="43.3249012" lon="13.1105528"><ele>759.7142857142858</ele><time>2026-03-29T09:16:16.966Z</time></trkpt><trkpt lat="43.3249537" lon="13.1106202"><ele>760.1428571428571</ele><time>2026-03-29T09:16:22.956Z</time></trkpt><trkpt lat="43.3249981" lon="13.1107041"><ele>760.5714285714286</ele><time>2026-03-29T09:16:28.952Z</time></trkpt><trkpt lat="43.3250353" lon="13.1107786"><ele>761.0</ele><time>2026-03-29T09:16:32.95Z</time></trkpt><trkpt lat="43.3250875" lon="13.1108776"><ele>761.0</ele><time>2026-03-29T09:16:36.941Z</time></trkpt><trkpt lat="43.3251289" lon="13.110972"><ele>761.0</ele><time>2026-03-29T09:16:39.862Z</time></trkpt><trkpt lat="43.3251605" lon="13.1110902"><ele>761.0</ele><time>2026-03-29T09:16:42.941Z</time></trkpt><trkpt lat="43.3251894" lon="13.1111818"><ele>761.0</ele><time>2026-03-29T09:16:45.902Z</time></trkpt><trkpt lat="43.325222" lon="13.1112596"><ele>761.0</ele><time>2026-03-29T09:16:48.923Z</time></trkpt><trkpt lat="43.3252766" lon="13.1113306"><ele>761.0</ele><time>2026-03-29T09:16:52.953Z</time></trkpt><trkpt lat="43.3253334" lon="13.1114117"><ele>760.9999999999999</ele><time>2026-03-29T09:16:56.95Z</time></trkpt><trkpt lat="43.3253896" lon="13.1114953"><ele>761.0</ele><time>2026-03-29T09:17:00.956Z</time></trkpt><trkpt lat="43.3254342" lon="13.1115612"><ele>761.0</ele><time>2026-03-29T09:17:03.98Z</time></trkpt><trkpt lat="43.3254858" lon="13.1116142"><ele>761.0</ele><time>2026-03-29T09:17:06.922Z</time></trkpt><trkpt lat="43.3255462" lon="13.1116669"><ele>761.0</ele><time>2026-03-29T09:17:09.953Z</time></trkpt><trkpt lat="43.3256093" lon="13.1117158"><ele>760.9999999999999</ele><time>2026-03-29T09:17:12.961Z</time></trkpt><trkpt lat="43.3256679" lon="13.1117581"><ele>761.0</ele><time>2026-03-29T09:17:15.962Z</time></trkpt><trkpt lat="43.3257215" lon="13.1118041"><ele>762.4285714285713</ele><time>2026-03-29T09:17:18.971Z</time></trkpt><trkpt lat="43.3257812" lon="13.1118556"><ele>763.8571428571429</ele><time>2026-03-29T09:17:21.919Z</time></trkpt><trkpt lat="43.325843" lon="13.1119137"><ele>765.2857142857142</ele><time>2026-03-29T09:17:24.967Z</time></trkpt><trkpt lat="43.3259004" lon="13.1119648"><ele>766.7142857142857</ele><time>2026-03-29T09:17:27.966Z</time></trkpt><trkpt lat="43.3259572" lon="13.1120022"><ele>768.1428571428571</ele><time>2026-03-29T09:17:30.863Z</time></trkpt><trkpt lat="43.326021" lon="13.1120394"><ele>769.5714285714286</ele><time>2026-03-29T09:17:33.956Z</time></trkpt><trkpt lat="43.3260908" lon="13.1120695"><ele>771.0</ele><time>2026-03-29T09:17:36.955Z</time></trkpt><trkpt lat="43.3261606" lon="13.1120995"><ele>771.0</ele><time>2026-03-29T09:17:40.957Z</time></trkpt><trkpt lat="43.3262414" lon="13.1121296"><ele>771.0</ele><time>2026-03-29T09:17:44.96Z</time></trkpt><trkpt lat="43.3263035" lon="13.112153"><ele>771.0</ele><time>2026-03-29T09:17:47.866Z</time></trkpt><trkpt lat="43.3263736" lon="13.1121772"><ele>771.0</ele><time>2026-03-29T09:17:50.942Z</time></trkpt><trkpt lat="43.3264341" lon="13.1122012"><ele>771.0</ele><time>2026-03-29T09:17:52.935Z</time></trkpt><trkpt lat="43.3265155" lon="13.1122549"><ele>771.0</ele><time>2026-03-29T09:17:54.943Z</time></trkpt><trkpt lat="43.3266032" lon="13.1122999"><ele>772.2857142857143</ele><time>2026-03-29T09:17:56.958Z</time></trkpt><trkpt lat="43.3266725" lon="13.1123386"><ele>773.5714285714286</ele><time>2026-03-29T09:17:58.946Z</time></trkpt><trkpt lat="43.3267476" lon="13.11236"><ele>774.8571428571429</ele><time>2026-03-29T09:18:01.882Z</time></trkpt><trkpt lat="43.326814" lon="13.1123638"><ele>776.1428571428571</ele><time>2026-03-29T09:18:04.946Z</time></trkpt><trkpt lat="43.3268818" lon="13.1123415"><ele>777.4285714285713</ele><time>2026-03-29T09:18:08.949Z</time></trkpt><trkpt lat="43.326956" lon="13.1123093"><ele>778.7142857142857</ele><time>2026-03-29T09:18:13.866Z</time></trkpt><trkpt lat="43.3270313" lon="13.1122947"><ele>780.0</ele><time>2026-03-29T09:18:17.949Z</time></trkpt><trkpt lat="43.3270954" lon="13.1122923"><ele>780.0</ele><time>2026-03-29T09:18:20.958Z</time></trkpt><trkpt lat="43.3271569" lon="13.1122685"><ele>780.0</ele><time>2026-03-29T09:18:23.947Z</time></trkpt><trkpt lat="43.3272181" lon="13.1122403"><ele>780.0</ele><time>2026-03-29T09:18:26.965Z</time></trkpt><trkpt lat="43.3272929" lon="13.1122258"><ele>780.0</ele><time>2026-03-29T09:18:30.865Z</time></trkpt><trkpt lat="43.3273707" lon="13.1121985"><ele>780.0</ele><time>2026-03-29T09:18:34.961Z</time></trkpt><trkpt lat="43.3274341" lon="13.1121727"><ele>780.0</ele><time>2026-03-29T09:18:37.965Z</time></trkpt><trkpt lat="43.3275083" lon="13.1121383"><ele>780.0</ele><time>2026-03-29T09:18:41.962Z</time></trkpt><trkpt lat="43.3275892" lon="13.1121176"><ele>779.5714285714286</ele><time>2026-03-29T09:18:45.888Z</time></trkpt><trkpt lat="43.3276521" lon="13.1120889"><ele>779.1428571428571</ele><time>2026-03-29T09:18:48.969Z</time></trkpt><trkpt lat="43.3277257" lon="13.1120468"><ele>778.7142857142858</ele><time>2026-03-29T09:18:53.035Z</time></trkpt><trkpt lat="43.3278038" lon="13.112026"><ele>778.2857142857142</ele><time>2026-03-29T09:18:57.939Z</time></trkpt><trkpt lat="43.3278663" lon="13.1120055"><ele>777.8571428571429</ele><time>2026-03-29T09:19:00.704Z</time></trkpt><trkpt lat="43.3279338" lon="13.1119854"><ele>777.4285714285714</ele><time>2026-03-29T09:19:04.946Z</time></trkpt><trkpt lat="43.3280208" lon="13.1119627"><ele>777.0</ele><time>2026-03-29T09:19:09.954Z</time></trkpt><trkpt lat="43.3280857" lon="13.1119561"><ele>777.0</ele><time>2026-03-29T09:19:12.97Z</time></trkpt><trkpt lat="43.3281456" lon="13.1119232"><ele>777.0</ele><time>2026-03-29T09:19:15.965Z</time></trkpt><trkpt lat="43.3282054" lon="13.1118741"><ele>777.0</ele><time>2026-03-29T09:19:19.965Z</time></trkpt><trkpt lat="43.3282752" lon="13.1118385"><ele>777.0</ele><time>2026-03-29T09:19:25.972Z</time></trkpt><trkpt lat="43.3283393" lon="13.111812"><ele>777.0</ele><time>2026-03-29T09:19:30.957Z</time></trkpt><trkpt lat="43.3284054" lon="13.1118047"><ele>777.0</ele><time>2026-03-29T09:19:35.948Z</time></trkpt><trkpt lat="43.3284753" lon="13.1117559"><ele>777.0</ele><time>2026-03-29T09:19:40.95Z</time></trkpt><trkpt lat="43.328546" lon="13.1117148"><ele>777.0</ele><time>2026-03-29T09:19:45.963Z</time></trkpt><trkpt lat="43.3286267" lon="13.1116913"><ele>777.0</ele><time>2026-03-29T09:19:49.94Z</time></trkpt><trkpt lat="43.328702" lon="13.1116686"><ele>777.0</ele><time>2026-03-29T09:19:52.951Z</time></trkpt><trkpt lat="43.3287712" lon="13.1116349"><ele>777.0</ele><time>2026-03-29T09:19:55.961Z</time></trkpt><trkpt lat="43.3288407" lon="13.1116007"><ele>777.0</ele><time>2026-03-29T09:20:00.955Z</time></trkpt><trkpt lat="43.3289023" lon="13.1115665"><ele>777.0</ele><time>2026-03-29T09:20:05.965Z</time></trkpt><trkpt lat="43.3289673" lon="13.1115394"><ele>777.0</ele><time>2026-03-29T09:20:10.971Z</time></trkpt><trkpt lat="43.3290214" lon="13.1114566"><ele>779.1428571428571</ele><time>2026-03-29T09:20:15.958Z</time></trkpt><trkpt lat="43.3290843" lon="13.11141"><ele>781.2857142857142</ele><time>2026-03-29T09:20:19.951Z</time></trkpt><trkpt lat="43.3291518" lon="13.1113763"><ele>783.4285714285714</ele><time>2026-03-29T09:20:23.489Z</time></trkpt><trkpt lat="43.3292175" lon="13.111327"><ele>785.5714285714286</ele><time>2026-03-29T09:20:26.959Z</time></trkpt><trkpt lat="43.3292764" lon="13.1112716"><ele>787.7142857142857</ele><time>2026-03-29T09:20:29.96Z</time></trkpt><trkpt lat="43.3293369" lon="13.1112158"><ele>789.8571428571429</ele><time>2026-03-29T09:20:32.964Z</time></trkpt><trkpt lat="43.3294041" lon="13.1111684"><ele>792.0</ele><time>2026-03-29T09:20:35.966Z</time></trkpt><trkpt lat="43.3294652" lon="13.1111104"><ele>792.0</ele><time>2026-03-29T09:20:38.89Z</time></trkpt><trkpt lat="43.3295338" lon="13.111055"><ele>792.0</ele><time>2026-03-29T09:20:41.958Z</time></trkpt><trkpt lat="43.3295956" lon="13.1109969"><ele>792.0</ele><time>2026-03-29T09:20:44.911Z</time></trkpt><trkpt lat="43.3296622" lon="13.1109446"><ele>792.0</ele><time>2026-03-29T09:20:47.95Z</time></trkpt><trkpt lat="43.3297244" lon="13.1108891"><ele>792.0</ele><time>2026-03-29T09:20:50.959Z</time></trkpt><trkpt lat="43.3297896" lon="13.1108433"><ele>792.0</ele><time>2026-03-29T09:20:53.909Z</time></trkpt><trkpt lat="43.3298634" lon="13.1108065"><ele>792.7142857142858</ele><time>2026-03-29T09:20:56.956Z</time></trkpt><trkpt lat="43.3299386" lon="13.1107624"><ele>793.4285714285713</ele><time>2026-03-29T09:20:59.966Z</time></trkpt><trkpt lat="43.3300082" lon="13.1107119"><ele>794.1428571428571</ele><time>2026-03-29T09:21:02.975Z</time></trkpt><trkpt lat="43.3300732" lon="13.1106598"><ele>794.8571428571429</ele><time>2026-03-29T09:21:05.958Z</time></trkpt><trkpt lat="43.3301305" lon="13.1106041"><ele>795.5714285714287</ele><time>2026-03-29T09:21:08.887Z</time></trkpt><trkpt lat="43.3301833" lon="13.1105479"><ele>796.2857142857142</ele><time>2026-03-29T09:21:11.966Z</time></trkpt><trkpt lat="43.3302425" lon="13.1104977"><ele>797.0</ele><time>2026-03-29T09:21:14.971Z</time></trkpt><trkpt lat="43.3303022" lon="13.1104566"><ele>797.0000000000001</ele><time>2026-03-29T09:21:18.035Z</time></trkpt><trkpt lat="43.330381" lon="13.1104274"><ele>797.0</ele><time>2026-03-29T09:21:21.95Z</time></trkpt><trkpt lat="43.3304473" lon="13.1103862"><ele>797.0</ele><time>2026-03-29T09:21:24.982Z</time></trkpt><trkpt lat="43.3305009" lon="13.1103303"><ele>797.0</ele><time>2026-03-29T09:21:27.873Z</time></trkpt><trkpt lat="43.3305527" lon="13.1102681"><ele>797.0000000000001</ele><time>2026-03-29T09:21:30.95Z</time></trkpt><trkpt lat="43.3306131" lon="13.1101882"><ele>797.0</ele><time>2026-03-29T09:21:33.959Z</time></trkpt><trkpt lat="43.3306803" lon="13.1101288"><ele>796.0000000000001</ele><time>2026-03-29T09:21:36.946Z</time></trkpt><trkpt lat="43.330754" lon="13.1100748"><ele>795.0</ele><time>2026-03-29T09:21:39.957Z</time></trkpt><trkpt lat="43.3308188" lon="13.1100107"><ele>794.0</ele><time>2026-03-29T09:21:42.896Z</time></trkpt><trkpt lat="43.3308836" lon="13.1099514"><ele>793.0</ele><time>2026-03-29T09:21:45.96Z</time></trkpt><trkpt lat="43.3309458" lon="13.1099038"><ele>792.0000000000001</ele><time>2026-03-29T09:21:48.875Z</time></trkpt><trkpt lat="43.3310124" lon="13.1098429"><ele>791.0</ele><time>2026-03-29T09:21:52.953Z</time></trkpt><trkpt lat="43.3310753" lon="13.1097679"><ele>791.0000000000001</ele><time>2026-03-29T09:21:56.872Z</time></trkpt><trkpt lat="43.3311383" lon="13.109703"><ele>791.0</ele><time>2026-03-29T09:21:59.949Z</time></trkpt><trkpt lat="43.3312049" lon="13.1096285"><ele>791.0</ele><time>2026-03-29T09:22:02.935Z</time></trkpt><trkpt lat="43.3312636" lon="13.1095793"><ele>791.0</ele><time>2026-03-29T09:22:04.966Z</time></trkpt><trkpt lat="43.3313289" lon="13.1094995"><ele>791.0000000000001</ele><time>2026-03-29T09:22:07.953Z</time></trkpt><trkpt lat="43.3313939" lon="13.1094288"><ele>791.0</ele><time>2026-03-29T09:22:10.954Z</time></trkpt><trkpt lat="43.3314521" lon="13.1093673"><ele>789.2857142857143</ele><time>2026-03-29T09:22:13.944Z</time></trkpt><trkpt lat="43.3315195" lon="13.1093088"><ele>787.5714285714286</ele><time>2026-03-29T09:22:16.945Z</time></trkpt><trkpt lat="43.3315908" lon="13.1092552"><ele>785.8571428571429</ele><time>2026-03-29T09:22:19.946Z</time></trkpt><trkpt lat="43.3316534" lon="13.1091973"><ele>784.1428571428571</ele><time>2026-03-29T09:22:22.965Z</time></trkpt><trkpt lat="43.3317101" lon="13.1091422"><ele>782.4285714285714</ele><time>2026-03-29T09:22:25.918Z</time></trkpt><trkpt lat="43.3317556" lon="13.1090732"><ele>780.7142857142858</ele><time>2026-03-29T09:22:28.954Z</time></trkpt><trkpt lat="43.3318041" lon="13.1090052"><ele>779.0</ele><time>2026-03-29T09:22:32.96Z</time></trkpt><trkpt lat="43.3318412" lon="13.108911"><ele>779.0000000000001</ele><time>2026-03-29T09:22:36.942Z</time></trkpt><trkpt lat="43.3318831" lon="13.1088325"><ele>779.0</ele><time>2026-03-29T09:22:40.948Z</time></trkpt><trkpt lat="43.3319234" lon="13.108745"><ele>779.0</ele><time>2026-03-29T09:22:44.758Z</time></trkpt><trkpt lat="43.3319948" lon="13.1087071"><ele>779.0</ele><time>2026-03-29T09:22:47.959Z</time></trkpt><trkpt lat="43.3320533" lon="13.1086727"><ele>779.0</ele><time>2026-03-29T09:22:50.957Z</time></trkpt><trkpt lat="43.3321092" lon="13.1086284"><ele>779.0000000000001</ele><time>2026-03-29T09:22:53.961Z</time></trkpt><trkpt lat="43.3321583" lon="13.1085628"><ele>779.0</ele><time>2026-03-29T09:22:56.931Z</time></trkpt><trkpt lat="43.3322139" lon="13.1085157"><ele>777.0000000000001</ele><time>2026-03-29T09:22:59.856Z</time></trkpt><trkpt lat="43.3322782" lon="13.1084605"><ele>775.0</ele><time>2026-03-29T09:23:04.053Z</time></trkpt><trkpt lat="43.3322956" lon="13.1083691"><ele>773.0</ele><time>2026-03-29T09:23:08.943Z</time></trkpt><trkpt lat="43.3323366" lon="13.1082832"><ele>771.0</ele><time>2026-03-29T09:23:13.034Z</time></trkpt><trkpt lat="43.3323761" lon="13.1082126"><ele>769.0</ele><time>2026-03-29T09:23:16.957Z</time></trkpt><trkpt lat="43.3324225" lon="13.1081206"><ele>767.0000000000001</ele><time>2026-03-29T09:23:20.956Z</time></trkpt><trkpt lat="43.3324571" lon="13.1080234"><ele>765.0</ele><time>2026-03-29T09:23:25.966Z</time></trkpt><trkpt lat="43.332509" lon="13.1079645"><ele>765.0000000000001</ele><time>2026-03-29T09:23:30.037Z</time></trkpt><trkpt lat="43.3325611" lon="13.1078902"><ele>765.0</ele><time>2026-03-29T09:23:35.831Z</time></trkpt><trkpt lat="43.3325739" lon="13.1077966"><ele>765.0</ele><time>2026-03-29T09:23:40.993Z</time></trkpt><trkpt lat="43.3325455" lon="13.1077007"><ele>765.0</ele><time>2026-03-29T09:23:47.981Z</time></trkpt><trkpt lat="43.3325364" lon="13.1076131"><ele>765.0</ele><time>2026-03-29T09:23:54.986Z</time></trkpt><trkpt lat="43.3325278" lon="13.1075211"><ele>765.0000000000001</ele><time>2026-03-29T09:24:02.991Z</time></trkpt><trkpt lat="43.3325501" lon="13.1074196"><ele>765.0</ele><time>2026-03-29T09:24:08.984Z</time></trkpt><trkpt lat="43.3325921" lon="13.1073525"><ele>766.8571428571429</ele><time>2026-03-29T09:24:13.988Z</time></trkpt><trkpt lat="43.3326022" lon="13.107266"><ele>768.7142857142858</ele><time>2026-03-29T09:24:17.995Z</time></trkpt><trkpt lat="43.3326368" lon="13.1071917"><ele>770.5714285714287</ele><time>2026-03-29T09:24:21.987Z</time></trkpt><trkpt lat="43.3326419" lon="13.1071034"><ele>772.4285714285714</ele><time>2026-03-29T09:24:26.988Z</time></trkpt><trkpt lat="43.3326991" lon="13.1070484"><ele>774.2857142857142</ele><time>2026-03-29T09:24:32.912Z</time></trkpt><trkpt lat="43.3327213" lon="13.1069627"><ele>776.1428571428572</ele><time>2026-03-29T09:24:36.973Z</time></trkpt><trkpt lat="43.3327527" lon="13.1068626"><ele>778.0</ele><time>2026-03-29T09:24:42.931Z</time></trkpt><trkpt lat="43.332787" lon="13.106779"><ele>778.0</ele><time>2026-03-29T09:24:47.987Z</time></trkpt><trkpt lat="43.3328251" lon="13.1067097"><ele>778.0</ele><time>2026-03-29T09:24:51.974Z</time></trkpt><trkpt lat="43.3328677" lon="13.1066284"><ele>778.0</ele><time>2026-03-29T09:24:55.948Z</time></trkpt><trkpt lat="43.3329404" lon="13.1066028"><ele>778.0</ele><time>2026-03-29T09:24:58.988Z</time></trkpt><trkpt lat="43.3330106" lon="13.1066084"><ele>778.0</ele><time>2026-03-29T09:25:01.984Z</time></trkpt><trkpt lat="43.3330795" lon="13.1066494"><ele>778.0</ele><time>2026-03-29T09:25:05.969Z</time></trkpt><trkpt lat="43.3331439" lon="13.1066655"><ele>778.0</ele><time>2026-03-29T09:25:11.907Z</time></trkpt><trkpt lat="43.3332112" lon="13.1066449"><ele>774.7142857142858</ele><time>2026-03-29T09:25:15.891Z</time></trkpt><trkpt lat="43.3332838" lon="13.1066253"><ele>771.4285714285713</ele><time>2026-03-29T09:25:20.98Z</time></trkpt><trkpt lat="43.3333554" lon="13.1066537"><ele>768.1428571428571</ele><time>2026-03-29T09:25:24.99Z</time></trkpt><trkpt lat="43.3334162" lon="13.1066137"><ele>764.8571428571429</ele><time>2026-03-29T09:25:28.952Z</time></trkpt><trkpt lat="43.3334892" lon="13.1066014"><ele>761.5714285714287</ele><time>2026-03-29T09:25:33.892Z</time></trkpt><trkpt lat="43.3335547" lon="13.1065785"><ele>758.2857142857142</ele><time>2026-03-29T09:25:37.987Z</time></trkpt><trkpt lat="43.3336278" lon="13.1065869"><ele>755.0</ele><time>2026-03-29T09:25:41.982Z</time></trkpt><trkpt lat="43.3336965" lon="13.1065869"><ele>755.0</ele><time>2026-03-29T09:25:44.992Z</time></trkpt><trkpt lat="43.3337603" lon="13.106583"><ele>755.0</ele><time>2026-03-29T09:25:47.986Z</time></trkpt><trkpt lat="43.333825" lon="13.1065922"><ele>755.0</ele><time>2026-03-29T09:25:50.851Z</time></trkpt><trkpt lat="43.3338943" lon="13.1066041"><ele>755.0</ele><time>2026-03-29T09:25:53.834Z</time></trkpt><trkpt lat="43.3339659" lon="13.1065865"><ele>755.0</ele><time>2026-03-29T09:25:56.833Z</time></trkpt><trkpt lat="43.3340313" lon="13.1065612"><ele>755.0</ele><time>2026-03-29T09:25:59.871Z</time></trkpt><trkpt lat="43.334105" lon="13.1066067"><ele>755.0</ele><time>2026-03-29T09:26:03.988Z</time></trkpt><trkpt lat="43.3341719" lon="13.1066049"><ele>751.3333333333333</ele><time>2026-03-29T09:26:06.982Z</time></trkpt><trkpt lat="43.3342434" lon="13.1065848"><ele>747.6666666666666</ele><time>2026-03-29T09:26:09.961Z</time></trkpt><trkpt lat="43.3343112" lon="13.1065884"><ele>744.0</ele><time>2026-03-29T09:26:12.962Z</time></trkpt><trkpt lat="43.3343905" lon="13.1066289"><ele>740.3333333333334</ele><time>2026-03-29T09:26:16.039Z</time></trkpt><trkpt lat="43.3344786" lon="13.1066109"><ele>736.6666666666667</ele><time>2026-03-29T09:26:19.961Z</time></trkpt><trkpt lat="43.334563" lon="13.1066345"><ele>733.0</ele><time>2026-03-29T09:26:22.99Z</time></trkpt><trkpt lat="43.3346441" lon="13.1066723"><ele>729.6666666666667</ele><time>2026-03-29T09:26:25.888Z</time></trkpt><trkpt lat="43.3347288" lon="13.1066952"><ele>726.3333333333334</ele><time>2026-03-29T09:26:28.847Z</time></trkpt><trkpt lat="43.3348198" lon="13.1067"><ele>723.0</ele><time>2026-03-29T09:26:31.957Z</time></trkpt><trkpt lat="43.3349064" lon="13.106709"><ele>719.6666666666666</ele><time>2026-03-29T09:26:34.971Z</time></trkpt><trkpt lat="43.3349797" lon="13.106701"><ele>716.3333333333333</ele><time>2026-03-29T09:26:37.949Z</time></trkpt><trkpt lat="43.3350586" lon="13.1066707"><ele>713.0</ele><time>2026-03-29T09:26:40.963Z</time></trkpt><trkpt lat="43.3351289" lon="13.1066723"><ele>713.0</ele><time>2026-03-29T09:26:43.924Z</time></trkpt><trkpt lat="43.3351815" lon="13.1067208"><ele>713.0</ele><time>2026-03-29T09:26:46.975Z</time></trkpt><trkpt lat="43.3352462" lon="13.1067708"><ele>713.0</ele><time>2026-03-29T09:26:50.01Z</time></trkpt><trkpt lat="43.3353149" lon="13.1068201"><ele>713.0</ele><time>2026-03-29T09:26:52.906Z</time></trkpt><trkpt lat="43.3353787" lon="13.1068584"><ele>713.0</ele><time>2026-03-29T09:26:55.96Z</time></trkpt><trkpt lat="43.3354459" lon="13.1068661"><ele>713.0</ele><time>2026-03-29T09:26:58.948Z</time></trkpt><trkpt lat="43.3355095" lon="13.1068519"><ele>713.0</ele><time>2026-03-29T09:27:01.953Z</time></trkpt><trkpt lat="43.3355824" lon="13.1068635"><ele>710.5714285714286</ele><time>2026-03-29T09:27:05.971Z</time></trkpt><trkpt lat="43.3356396" lon="13.1069047"><ele>708.1428571428572</ele><time>2026-03-29T09:27:10.962Z</time></trkpt><trkpt lat="43.335706" lon="13.1069557"><ele>705.7142857142858</ele><time>2026-03-29T09:27:15.965Z</time></trkpt><trkpt lat="43.335781" lon="13.1069821"><ele>703.2857142857142</ele><time>2026-03-29T09:27:19.951Z</time></trkpt><trkpt lat="43.3358584" lon="13.1069696"><ele>700.8571428571429</ele><time>2026-03-29T09:27:23.964Z</time></trkpt><trkpt lat="43.3359161" lon="13.1070051"><ele>698.4285714285714</ele><time>2026-03-29T09:27:28.932Z</time></trkpt><trkpt lat="43.3359945" lon="13.1070207"><ele>696.0</ele><time>2026-03-29T09:27:33.807Z</time></trkpt><trkpt lat="43.336065" lon="13.1070546"><ele>696.0</ele><time>2026-03-29T09:27:38.96Z</time></trkpt><trkpt lat="43.3361413" lon="13.1070983"><ele>696.0</ele><time>2026-03-29T09:27:42.965Z</time></trkpt><trkpt lat="43.3362012" lon="13.1071491"><ele>696.0</ele><time>2026-03-29T09:27:45.925Z</time></trkpt><trkpt lat="43.3362821" lon="13.1071551"><ele>696.0</ele><time>2026-03-29T09:27:48.948Z</time></trkpt><trkpt lat="43.3363522" lon="13.1071456"><ele>696.0</ele><time>2026-03-29T09:27:51.859Z</time></trkpt><trkpt lat="43.3364114" lon="13.1072078"><ele>696.0</ele><time>2026-03-29T09:27:54.949Z</time></trkpt><trkpt lat="43.3364364" lon="13.107289"><ele>696.0</ele><time>2026-03-29T09:27:57.961Z</time></trkpt><trkpt lat="43.3364807" lon="13.1073787"><ele>693.4285714285714</ele><time>2026-03-29T09:28:01.897Z</time></trkpt><trkpt lat="43.3365486" lon="13.1074143"><ele>690.8571428571429</ele><time>2026-03-29T09:28:04.964Z</time></trkpt><trkpt lat="43.3366296" lon="13.1074194"><ele>688.2857142857142</ele><time>2026-03-29T09:28:07.965Z</time></trkpt><trkpt lat="43.3366971" lon="13.1074507"><ele>685.7142857142858</ele><time>2026-03-29T09:28:11.922Z</time></trkpt><trkpt lat="43.336766" lon="13.1075107"><ele>683.1428571428572</ele><time>2026-03-29T09:28:15.843Z</time></trkpt><trkpt lat="43.3368149" lon="13.1075657"><ele>680.5714285714286</ele><time>2026-03-29T09:28:19.862Z</time></trkpt><trkpt lat="43.3368639" lon="13.1076412"><ele>678.0</ele><time>2026-03-29T09:28:24.951Z</time></trkpt><trkpt lat="43.3368842" lon="13.1077272"><ele>678.0</ele><time>2026-03-29T09:28:27.977Z</time></trkpt><trkpt lat="43.3369067" lon="13.1078106"><ele>678.0</ele><time>2026-03-29T09:28:30.961Z</time></trkpt><trkpt lat="43.3369568" lon="13.1078982"><ele>678.0</ele><time>2026-03-29T09:28:34.959Z</time></trkpt><trkpt lat="43.3370129" lon="13.1079551"><ele>678.0</ele><time>2026-03-29T09:28:38.963Z</time></trkpt><trkpt lat="43.3370722" lon="13.1080288"><ele>678.0</ele><time>2026-03-29T09:28:42.962Z</time></trkpt><trkpt lat="43.3371004" lon="13.1081072"><ele>678.0</ele><time>2026-03-29T09:28:45.962Z</time></trkpt><trkpt lat="43.3371599" lon="13.108136"><ele>678.0</ele><time>2026-03-29T09:28:49.963Z</time></trkpt><trkpt lat="43.3372314" lon="13.1081546"><ele>674.4285714285714</ele><time>2026-03-29T09:28:56.859Z</time></trkpt><trkpt lat="43.3373045" lon="13.10816"><ele>670.8571428571429</ele><time>2026-03-29T09:29:03.967Z</time></trkpt><trkpt lat="43.3373709" lon="13.1082068"><ele>667.2857142857143</ele><time>2026-03-29T09:29:09.955Z</time></trkpt><trkpt lat="43.3374117" lon="13.1082774"><ele>663.7142857142858</ele><time>2026-03-29T09:29:13.954Z</time></trkpt><trkpt lat="43.3374812" lon="13.1083384"><ele>660.1428571428571</ele><time>2026-03-29T09:29:17.971Z</time></trkpt><trkpt lat="43.3375536" lon="13.1083515"><ele>656.5714285714287</ele><time>2026-03-29T09:29:20.957Z</time></trkpt><trkpt lat="43.3376272" lon="13.108324"><ele>653.0</ele><time>2026-03-29T09:29:24.816Z</time></trkpt><trkpt lat="43.3376999" lon="13.1083823"><ele>651.0000000000001</ele><time>2026-03-29T09:29:28.943Z</time></trkpt><trkpt lat="43.3377677" lon="13.1084229"><ele>649.0</ele><time>2026-03-29T09:29:31.958Z</time></trkpt><trkpt lat="43.3378444" lon="13.1084564"><ele>647.0</ele><time>2026-03-29T09:29:35.956Z</time></trkpt><trkpt lat="43.3379022" lon="13.1084933"><ele>645.0</ele><time>2026-03-29T09:29:38.883Z</time></trkpt><trkpt lat="43.3379699" lon="13.1085293"><ele>643.0</ele><time>2026-03-29T09:29:42.884Z</time></trkpt><trkpt lat="43.3380295" lon="13.1085601"><ele>641.0000000000001</ele><time>2026-03-29T09:29:48.956Z</time></trkpt><trkpt lat="43.3381005" lon="13.1085602"><ele>639.0</ele><time>2026-03-29T09:29:52.966Z</time></trkpt><trkpt lat="43.3381601" lon="13.1085317"><ele>633.7142857142858</ele><time>2026-03-29T09:29:55.898Z</time></trkpt><trkpt lat="43.3382236" lon="13.1085201"><ele>628.4285714285714</ele><time>2026-03-29T09:29:58.959Z</time></trkpt><trkpt lat="43.3382982" lon="13.1085096"><ele>623.1428571428571</ele><time>2026-03-29T09:30:02.957Z</time></trkpt><trkpt lat="43.3383552" lon="13.1084411"><ele>617.8571428571429</ele><time>2026-03-29T09:30:06.942Z</time></trkpt><trkpt lat="43.3384116" lon="13.1083955"><ele>612.5714285714286</ele><time>2026-03-29T09:30:09.96Z</time></trkpt><trkpt lat="43.3384825" lon="13.1083527"><ele>607.2857142857143</ele><time>2026-03-29T09:30:12.957Z</time></trkpt><trkpt lat="43.3385548" lon="13.1083007"><ele>602.0</ele><time>2026-03-29T09:30:15.953Z</time></trkpt><trkpt lat="43.3386178" lon="13.1082517"><ele>604.1428571428571</ele><time>2026-03-29T09:30:18.951Z</time></trkpt><trkpt lat="43.3386729" lon="13.108179"><ele>606.2857142857142</ele><time>2026-03-29T09:30:21.958Z</time></trkpt><trkpt lat="43.3386957" lon="13.1080928"><ele>608.4285714285714</ele><time>2026-03-29T09:30:24.957Z</time></trkpt><trkpt lat="43.3387329" lon="13.1080112"><ele>610.5714285714286</ele><time>2026-03-29T09:30:27.883Z</time></trkpt><trkpt lat="43.3387796" lon="13.1079293"><ele>612.7142857142857</ele><time>2026-03-29T09:30:30.761Z</time></trkpt><trkpt lat="43.3388489" lon="13.1078954"><ele>614.8571428571429</ele><time>2026-03-29T09:30:33.96Z</time></trkpt><trkpt lat="43.338899" lon="13.10784"><ele>617.0</ele><time>2026-03-29T09:30:36.903Z</time></trkpt><trkpt lat="43.3389372" lon="13.1077415"><ele>615.6666666666666</ele><time>2026-03-29T09:30:40.898Z</time></trkpt><trkpt lat="43.3389451" lon="13.1076509"><ele>614.3333333333333</ele><time>2026-03-29T09:30:43.958Z</time></trkpt><trkpt lat="43.3389633" lon="13.107539"><ele>613.0</ele><time>2026-03-29T09:30:47.96Z</time></trkpt><trkpt lat="43.3389844" lon="13.1074349"><ele>611.6666666666666</ele><time>2026-03-29T09:30:51.95Z</time></trkpt><trkpt lat="43.3390099" lon="13.1073452"><ele>610.3333333333334</ele><time>2026-03-29T09:30:54.944Z</time></trkpt><trkpt lat="43.3390555" lon="13.1072643"><ele>609.0</ele><time>2026-03-29T09:30:57.958Z</time></trkpt><trkpt lat="43.3391207" lon="13.1071999"><ele>609.0</ele><time>2026-03-29T09:31:00.958Z</time></trkpt><trkpt lat="43.339181" lon="13.107148"><ele>609.0</ele><time>2026-03-29T09:31:03.859Z</time></trkpt><trkpt lat="43.3392385" lon="13.107088"><ele>609.0</ele><time>2026-03-29T09:31:06.915Z</time></trkpt><trkpt lat="43.3392981" lon="13.1070393"><ele>609.0</ele><time>2026-03-29T09:31:09.875Z</time></trkpt><trkpt lat="43.3393679" lon="13.1070118"><ele>609.0</ele><time>2026-03-29T09:31:12.956Z</time></trkpt><trkpt lat="43.3394282" lon="13.1069732"><ele>609.0</ele><time>2026-03-29T09:31:15.922Z</time></trkpt><trkpt lat="43.3394944" lon="13.1069201"><ele>609.0</ele><time>2026-03-29T09:31:19.957Z</time></trkpt><trkpt lat="43.3395564" lon="13.1068663"><ele>609.0</ele><time>2026-03-29T09:31:23.959Z</time></trkpt><trkpt lat="43.3396111" lon="13.1068182"><ele>609.0</ele><time>2026-03-29T09:31:26.917Z</time></trkpt><trkpt lat="43.3396703" lon="13.1067728"><ele>609.0</ele><time>2026-03-29T09:31:29.956Z</time></trkpt><trkpt lat="43.3397308" lon="13.1067253"><ele>609.0</ele><time>2026-03-29T09:31:32.961Z</time></trkpt><trkpt lat="43.3397962" lon="13.1066812"><ele>609.0</ele><time>2026-03-29T09:31:35.876Z</time></trkpt><trkpt lat="43.3398593" lon="13.1066194"><ele>609.0</ele><time>2026-03-29T09:31:38.959Z</time></trkpt><trkpt lat="43.3399179" lon="13.1065487"><ele>609.0</ele><time>2026-03-29T09:31:41.881Z</time></trkpt><trkpt lat="43.339961" lon="13.1064604"><ele>604.1666666666666</ele><time>2026-03-29T09:31:44.776Z</time></trkpt><trkpt lat="43.3400255" lon="13.1063903"><ele>599.3333333333334</ele><time>2026-03-29T09:31:47.952Z</time></trkpt><trkpt lat="43.3401113" lon="13.10638"><ele>594.5</ele><time>2026-03-29T09:31:50.954Z</time></trkpt><trkpt lat="43.3401949" lon="13.1064143"><ele>589.6666666666667</ele><time>2026-03-29T09:31:53.903Z</time></trkpt><trkpt lat="43.3402689" lon="13.1064316"><ele>584.8333333333334</ele><time>2026-03-29T09:31:55.965Z</time></trkpt><trkpt lat="43.3403565" lon="13.106462"><ele>580.0</ele><time>2026-03-29T09:31:58.89Z</time></trkpt><trkpt lat="43.3404509" lon="13.1064583"><ele>580.0</ele><time>2026-03-29T09:32:01.706Z</time></trkpt><trkpt lat="43.3405214" lon="13.1064579"><ele>580.0</ele><time>2026-03-29T09:32:03.831Z</time></trkpt><trkpt lat="43.3405919" lon="13.1064762"><ele>580.0</ele><time>2026-03-29T09:32:05.852Z</time></trkpt><trkpt lat="43.3406606" lon="13.1064969"><ele>580.0</ele><time>2026-03-29T09:32:07.873Z</time></trkpt><trkpt lat="43.3407515" lon="13.1064921"><ele>580.0</ele><time>2026-03-29T09:32:10.872Z</time></trkpt><trkpt lat="43.3408205" lon="13.1064234"><ele>580.0</ele><time>2026-03-29T09:32:13.831Z</time></trkpt><trkpt lat="43.3408266" lon="13.1063338"><ele>570.4</ele><time>2026-03-29T09:32:16.946Z</time></trkpt><trkpt lat="43.3408245" lon="13.1062446"><ele>560.8</ele><time>2026-03-29T09:32:19.954Z</time></trkpt><trkpt lat="43.3408304" lon="13.1061537"><ele>551.2</ele><time>2026-03-29T09:32:22.928Z</time></trkpt><trkpt lat="43.3408425" lon="13.1060554"><ele>541.6</ele><time>2026-03-29T09:32:25.957Z</time></trkpt><trkpt lat="43.3409827" lon="13.1060757"><ele>532.0</ele><time>2026-03-29T09:32:28.951Z</time></trkpt><trkpt lat="43.3411071" lon="13.1061725"><ele>532.0</ele><time>2026-03-29T09:32:29.956Z</time></trkpt><trkpt lat="43.3411705" lon="13.1061471"><ele>532.0</ele><time>2026-03-29T09:32:31.912Z</time></trkpt><trkpt lat="43.3412392" lon="13.106078"><ele>532.0</ele><time>2026-03-29T09:32:34.948Z</time></trkpt><trkpt lat="43.3412864" lon="13.1060062"><ele>532.0</ele><time>2026-03-29T09:32:37.946Z</time></trkpt><trkpt lat="43.3413331" lon="13.1059428"><ele>532.0</ele><time>2026-03-29T09:32:40.887Z</time></trkpt><trkpt lat="43.3413695" lon="13.1058464"><ele>532.0</ele><time>2026-03-29T09:32:44.889Z</time></trkpt><trkpt lat="43.3413988" lon="13.1057518"><ele>532.0</ele><time>2026-03-29T09:32:49.932Z</time></trkpt><trkpt lat="43.341384" lon="13.1056545"><ele>529.5714285714286</ele><time>2026-03-29T09:32:53.95Z</time></trkpt><trkpt lat="43.3413527" lon="13.1055525"><ele>527.1428571428571</ele><time>2026-03-29T09:32:57.945Z</time></trkpt><trkpt lat="43.3413186" lon="13.1054637"><ele>524.7142857142858</ele><time>2026-03-29T09:33:00.964Z</time></trkpt><trkpt lat="43.3412645" lon="13.105389"><ele>522.2857142857142</ele><time>2026-03-29T09:33:04.865Z</time></trkpt><trkpt lat="43.3411923" lon="13.1053608"><ele>519.8571428571429</ele><time>2026-03-29T09:33:08.955Z</time></trkpt><trkpt lat="43.3411402" lon="13.1053073"><ele>517.4285714285714</ele><time>2026-03-29T09:33:12.955Z</time></trkpt><trkpt lat="43.341105" lon="13.1052265"><ele>515.0</ele><time>2026-03-29T09:33:16.952Z</time></trkpt><trkpt lat="43.3410489" lon="13.1051482"><ele>515.0</ele><time>2026-03-29T09:33:20.955Z</time></trkpt><trkpt lat="43.3410164" lon="13.1050737"><ele>515.0</ele><time>2026-03-29T09:33:23.954Z</time></trkpt><trkpt lat="43.3409828" lon="13.1049887"><ele>515.0</ele><time>2026-03-29T09:33:27.034Z</time></trkpt><trkpt lat="43.3409656" lon="13.1048862"><ele>515.0</ele><time>2026-03-29T09:33:29.963Z</time></trkpt><trkpt lat="43.3409857" lon="13.1047897"><ele>515.0</ele><time>2026-03-29T09:33:32.949Z</time></trkpt><trkpt lat="43.3410057" lon="13.1046936"><ele>515.0</ele><time>2026-03-29T09:33:35.869Z</time></trkpt><trkpt lat="43.3410283" lon="13.1045822"><ele>515.0</ele><time>2026-03-29T09:33:38.937Z</time></trkpt><trkpt lat="43.3410587" lon="13.1044836"><ele>511.16666666666663</ele><time>2026-03-29T09:33:42.053Z</time></trkpt><trkpt lat="43.3411046" lon="13.1043919"><ele>507.3333333333333</ele><time>2026-03-29T09:33:46.274Z</time></trkpt><trkpt lat="43.3411624" lon="13.1043178"><ele>503.5</ele><time>2026-03-29T09:33:50.956Z</time></trkpt><trkpt lat="43.3412198" lon="13.1042485"><ele>499.66666666666663</ele><time>2026-03-29T09:33:54.943Z</time></trkpt><trkpt lat="43.3412635" lon="13.1041795"><ele>495.8333333333333</ele><time>2026-03-29T09:33:58.957Z</time></trkpt><trkpt lat="43.3412573" lon="13.1040733"><ele>492.0</ele><time>2026-03-29T09:34:02.954Z</time></trkpt><trkpt lat="43.3412576" lon="13.10397"><ele>493.00000000000006</ele><time>2026-03-29T09:34:06.043Z</time></trkpt><trkpt lat="43.3413046" lon="13.1038914"><ele>494.0</ele><time>2026-03-29T09:34:09.96Z</time></trkpt><trkpt lat="43.341351" lon="13.1038268"><ele>495.00000000000006</ele><time>2026-03-29T09:34:13.974Z</time></trkpt><trkpt lat="43.3414119" lon="13.1037932"><ele>496.00000000000006</ele><time>2026-03-29T09:34:17.952Z</time></trkpt><trkpt lat="43.3414827" lon="13.1037867"><ele>497.0</ele><time>2026-03-29T09:34:21.952Z</time></trkpt><trkpt lat="43.3415474" lon="13.1038095"><ele>498.00000000000006</ele><time>2026-03-29T09:34:24.937Z</time></trkpt><trkpt lat="43.3416141" lon="13.1038313"><ele>499.00000000000006</ele><time>2026-03-29T09:34:27.964Z</time></trkpt><trkpt lat="43.3416862" lon="13.1038638"><ele>499.00000000000006</ele><time>2026-03-29T09:34:31.912Z</time></trkpt><trkpt lat="43.3417499" lon="13.1038717"><ele>499.0</ele><time>2026-03-29T09:34:35.996Z</time></trkpt><trkpt lat="43.3418248" lon="13.1038844"><ele>499.00000000000006</ele><time>2026-03-29T09:34:40.96Z</time></trkpt><trkpt lat="43.341893" lon="13.1039248"><ele>499.00000000000006</ele><time>2026-03-29T09:34:46.95Z</time></trkpt><trkpt lat="43.3419487" lon="13.1039698"><ele>499.0</ele><time>2026-03-29T09:34:51.953Z</time></trkpt><trkpt lat="43.3420009" lon="13.1040294"><ele>499.00000000000006</ele><time>2026-03-29T09:34:58.958Z</time></trkpt><trkpt lat="43.3420537" lon="13.1040879"><ele>499.00000000000006</ele><time>2026-03-29T09:35:04.954Z</time></trkpt><trkpt lat="43.3421181" lon="13.1041117"><ele>500.4285714285715</ele><time>2026-03-29T09:35:09.966Z</time></trkpt><trkpt lat="43.3421809" lon="13.104139"><ele>501.8571428571429</ele><time>2026-03-29T09:35:14.949Z</time></trkpt><trkpt lat="43.3422487" lon="13.1041778"><ele>503.2857142857143</ele><time>2026-03-29T09:35:20.962Z</time></trkpt><trkpt lat="43.3423123" lon="13.1042113"><ele>504.7142857142857</ele><time>2026-03-29T09:35:26.968Z</time></trkpt><trkpt lat="43.3423825" lon="13.1042532"><ele>506.1428571428571</ele><time>2026-03-29T09:35:32.97Z</time></trkpt><trkpt lat="43.3424436" lon="13.1042877"><ele>507.5714285714285</ele><time>2026-03-29T09:35:36.959Z</time></trkpt><trkpt lat="43.3425155" lon="13.1043368"><ele>508.99999999999994</ele><time>2026-03-29T09:35:40.988Z</time></trkpt><trkpt lat="43.3425809" lon="13.1043648"><ele>508.99999999999994</ele><time>2026-03-29T09:35:44.962Z</time></trkpt><trkpt lat="43.3426493" lon="13.1043851"><ele>509.0</ele><time>2026-03-29T09:35:49.954Z</time></trkpt><trkpt lat="43.3427152" lon="13.1043917"><ele>508.99999999999994</ele><time>2026-03-29T09:35:54.04Z</time></trkpt><trkpt lat="43.3427857" lon="13.1044023"><ele>508.99999999999994</ele><time>2026-03-29T09:35:59.965Z</time></trkpt><trkpt lat="43.3428343" lon="13.1044649"><ele>509.0</ele><time>2026-03-29T09:36:04.97Z</time></trkpt><trkpt lat="43.3428632" lon="13.1045581"><ele>508.99999999999994</ele><time>2026-03-29T09:36:09.968Z</time></trkpt><trkpt lat="43.3429087" lon="13.104625"><ele>508.99999999999994</ele><time>2026-03-29T09:36:13.966Z</time></trkpt><trkpt lat="43.3429691" lon="13.1046801"><ele>508.99999999999994</ele><time>2026-03-29T09:36:16.97Z</time></trkpt><trkpt lat="43.343027" lon="13.1047344"><ele>509.0</ele><time>2026-03-29T09:36:19.959Z</time></trkpt><trkpt lat="43.3430918" lon="13.1047745"><ele>509.0</ele><time>2026-03-29T09:36:22.992Z</time></trkpt><trkpt lat="43.3431665" lon="13.1048108"><ele>509.0</ele><time>2026-03-29T09:36:27.051Z</time></trkpt><trkpt lat="43.3432296" lon="13.1048817"><ele>508.99999999999994</ele><time>2026-03-29T09:36:30.966Z</time></trkpt><trkpt lat="43.3432989" lon="13.1049523"><ele>509.0</ele><time>2026-03-29T09:36:34.954Z</time></trkpt><trkpt lat="43.3433708" lon="13.1049816"><ele>508.71428571428567</ele><time>2026-03-29T09:36:37.958Z</time></trkpt><trkpt lat="43.3434444" lon="13.1049734"><ele>508.42857142857144</ele><time>2026-03-29T09:36:40.953Z</time></trkpt><trkpt lat="43.3435097" lon="13.1049959"><ele>508.1428571428571</ele><time>2026-03-29T09:36:43.859Z</time></trkpt><trkpt lat="43.3435775" lon="13.1050196"><ele>507.85714285714283</ele><time>2026-03-29T09:36:47.012Z</time></trkpt><trkpt lat="43.3436425" lon="13.1050545"><ele>507.57142857142856</ele><time>2026-03-29T09:36:49.964Z</time></trkpt><trkpt lat="43.3437249" lon="13.1050681"><ele>507.2857142857143</ele><time>2026-03-29T09:36:53.952Z</time></trkpt><trkpt lat="43.3438029" lon="13.1050563"><ele>507.0</ele><time>2026-03-29T09:36:58.067Z</time></trkpt><trkpt lat="43.3438805" lon="13.1050266"><ele>508.1666666666667</ele><time>2026-03-29T09:37:02.374Z</time></trkpt><trkpt lat="43.3439452" lon="13.1050117"><ele>509.33333333333337</ele><time>2026-03-29T09:37:05.736Z</time></trkpt><trkpt lat="43.3440164" lon="13.104988"><ele>510.5</ele><time>2026-03-29T09:37:09.975Z</time></trkpt><trkpt lat="43.3440796" lon="13.1050353"><ele>511.6666666666667</ele><time>2026-03-29T09:37:12.963Z</time></trkpt><trkpt lat="43.3441402" lon="13.1050987"><ele>512.8333333333334</ele><time>2026-03-29T09:37:15.873Z</time></trkpt><trkpt lat="43.3442205" lon="13.1051552"><ele>514.0</ele><time>2026-03-29T09:37:18.966Z</time></trkpt><trkpt lat="43.3443085" lon="13.105223"><ele>514.0</ele><time>2026-03-29T09:37:21.959Z</time></trkpt><trkpt lat="43.3443653" lon="13.1052795"><ele>514.0</ele><time>2026-03-29T09:37:23.918Z</time></trkpt><trkpt lat="43.3444405" lon="13.1053545"><ele>514.0</ele><time>2026-03-29T09:37:25.965Z</time></trkpt><trkpt lat="43.3444992" lon="13.105416"><ele>514.0</ele><time>2026-03-29T09:37:27.968Z</time></trkpt><trkpt lat="43.3445588" lon="13.1054741"><ele>514.0</ele><time>2026-03-29T09:37:29.957Z</time></trkpt><trkpt lat="43.344636" lon="13.105514"><ele>514.0</ele><time>2026-03-29T09:37:31.96Z</time></trkpt><trkpt lat="43.3447046" lon="13.1055448"><ele>513.6666666666667</ele><time>2026-03-29T09:37:33.889Z</time></trkpt><trkpt lat="43.3447818" lon="13.1055847"><ele>513.3333333333334</ele><time>2026-03-29T09:37:36.04Z</time></trkpt><trkpt lat="43.3448671" lon="13.1056299"><ele>513.0</ele><time>2026-03-29T09:37:38.896Z</time></trkpt><trkpt lat="43.3449375" lon="13.1056382"><ele>512.6666666666666</ele><time>2026-03-29T09:37:40.966Z</time></trkpt><trkpt lat="43.3450005" lon="13.1056472"><ele>512.3333333333333</ele><time>2026-03-29T09:37:42.963Z</time></trkpt><trkpt lat="43.3451045" lon="13.1056746"><ele>512.0</ele><time>2026-03-29T09:37:45.948Z</time></trkpt><trkpt lat="43.345184" lon="13.1056868"><ele>512.0</ele><time>2026-03-29T09:37:48.953Z</time></trkpt><trkpt lat="43.3452583" lon="13.1056992"><ele>511.99999999999994</ele><time>2026-03-29T09:37:51.897Z</time></trkpt><trkpt lat="43.345334" lon="13.1056816"><ele>512.0</ele><time>2026-03-29T09:37:54.95Z</time></trkpt><trkpt lat="43.3454058" lon="13.1056566"><ele>512.0</ele><time>2026-03-29T09:37:57.961Z</time></trkpt><trkpt lat="43.3454746" lon="13.1056513"><ele>511.99999999999994</ele><time>2026-03-29T09:38:00.963Z</time></trkpt><trkpt lat="43.345548" lon="13.1056358"><ele>512.0</ele><time>2026-03-29T09:38:04.063Z</time></trkpt><trkpt lat="43.3456117" lon="13.1056433"><ele>512.0</ele><time>2026-03-29T09:38:07.397Z</time></trkpt><trkpt lat="43.3456765" lon="13.1056456"><ele>510.0</ele><time>2026-03-29T09:38:10.961Z</time></trkpt><trkpt lat="43.3457468" lon="13.1056438"><ele>507.99999999999994</ele><time>2026-03-29T09:38:14.96Z</time></trkpt><trkpt lat="43.3458291" lon="13.1056345"><ele>506.0</ele><time>2026-03-29T09:38:18.955Z</time></trkpt><trkpt lat="43.3459054" lon="13.1056186"><ele>504.0</ele><time>2026-03-29T09:38:21.957Z</time></trkpt><trkpt lat="43.3459867" lon="13.1055915"><ele>501.99999999999994</ele><time>2026-03-29T09:38:24.958Z</time></trkpt><trkpt lat="43.34605" lon="13.105567"><ele>500.0</ele><time>2026-03-29T09:38:27.079Z</time></trkpt><trkpt lat="43.3461106" lon="13.1055396"><ele>498.0</ele><time>2026-03-29T09:38:29.05Z</time></trkpt><trkpt lat="43.3461922" lon="13.1054921"><ele>498.0</ele><time>2026-03-29T09:38:31.891Z</time></trkpt><trkpt lat="43.3462647" lon="13.1054516"><ele>498.0</ele><time>2026-03-29T09:38:33.956Z</time></trkpt><trkpt lat="43.3463348" lon="13.1054038"><ele>498.0</ele><time>2026-03-29T09:38:36.241Z</time></trkpt><trkpt lat="43.3463989" lon="13.1053559"><ele>498.0</ele><time>2026-03-29T09:38:38.36Z</time></trkpt><trkpt lat="43.34646" lon="13.1053053"><ele>498.0</ele><time>2026-03-29T09:38:40.447Z</time></trkpt><trkpt lat="43.3465196" lon="13.1052501"><ele>498.0</ele><time>2026-03-29T09:38:42.607Z</time></trkpt><trkpt lat="43.346582" lon="13.1051838"><ele>497.3333333333333</ele><time>2026-03-29T09:38:44.941Z</time></trkpt><trkpt lat="43.3466613" lon="13.1051734"><ele>496.66666666666663</ele><time>2026-03-29T09:38:47.958Z</time></trkpt><trkpt lat="43.3467231" lon="13.105108"><ele>496.0</ele><time>2026-03-29T09:38:50.966Z</time></trkpt><trkpt lat="43.3467885" lon="13.1050011"><ele>495.3333333333333</ele><time>2026-03-29T09:38:53.919Z</time></trkpt><trkpt lat="43.3468201" lon="13.1049094"><ele>494.66666666666663</ele><time>2026-03-29T09:38:55.964Z</time></trkpt><trkpt lat="43.3468371" lon="13.1048052"><ele>494.0</ele><time>2026-03-29T09:38:57.969Z</time></trkpt><trkpt lat="43.3468563" lon="13.1047119"><ele>493.99999999999994</ele><time>2026-03-29T09:38:59.936Z</time></trkpt><trkpt lat="43.3468939" lon="13.1046148"><ele>494.0</ele><time>2026-03-29T09:39:01.949Z</time></trkpt><trkpt lat="43.3469349" lon="13.1045282"><ele>494.0</ele><time>2026-03-29T09:39:03.954Z</time></trkpt><trkpt lat="43.3469789" lon="13.1044529"><ele>494.0</ele><time>2026-03-29T09:39:05.953Z</time></trkpt><trkpt lat="43.3470388" lon="13.1043736"><ele>493.99999999999994</ele><time>2026-03-29T09:39:08.039Z</time></trkpt><trkpt lat="43.3470713" lon="13.1042912"><ele>494.0</ele><time>2026-03-29T09:39:10.044Z</time></trkpt><trkpt lat="43.3471161" lon="13.1041816"><ele>494.0</ele><time>2026-03-29T09:39:12.955Z</time></trkpt><trkpt lat="43.3471701" lon="13.1040826"><ele>494.0</ele><time>2026-03-29T09:39:15.956Z</time></trkpt><trkpt lat="43.347203" lon="13.103985"><ele>494.0</ele><time>2026-03-29T09:39:18.845Z</time></trkpt><trkpt lat="43.3472326" lon="13.1038853"><ele>494.0</ele><time>2026-03-29T09:39:21.956Z</time></trkpt><trkpt lat="43.3472484" lon="13.1037956"><ele>494.0</ele><time>2026-03-29T09:39:24.952Z</time></trkpt><trkpt lat="43.3472636" lon="13.1037032"><ele>494.0</ele><time>2026-03-29T09:39:28.046Z</time></trkpt><trkpt lat="43.3472731" lon="13.1036129"><ele>494.0</ele><time>2026-03-29T09:39:31.046Z</time></trkpt><trkpt lat="43.3472784" lon="13.1034927"><ele>491.28571428571433</ele><time>2026-03-29T09:39:34.966Z</time></trkpt><trkpt lat="43.3472995" lon="13.103385"><ele>488.57142857142856</ele><time>2026-03-29T09:39:37.963Z</time></trkpt><trkpt lat="43.347342" lon="13.1033109"><ele>485.8571428571429</ele><time>2026-03-29T09:39:39.87Z</time></trkpt><trkpt lat="43.3473678" lon="13.1032294"><ele>483.14285714285717</ele><time>2026-03-29T09:39:41.933Z</time></trkpt><trkpt lat="43.3473841" lon="13.1031455"><ele>480.42857142857144</ele><time>2026-03-29T09:39:43.966Z</time></trkpt><trkpt lat="43.3474073" lon="13.1030254"><ele>477.7142857142857</ele><time>2026-03-29T09:39:46.981Z</time></trkpt><trkpt lat="43.3474356" lon="13.1029461"><ele>475.0</ele><time>2026-03-29T09:39:49.037Z</time></trkpt><trkpt lat="43.347469" lon="13.1028516"><ele>475.0</ele><time>2026-03-29T09:39:51.95Z</time></trkpt><trkpt lat="43.3475286" lon="13.1028029"><ele>475.00000000000006</ele><time>2026-03-29T09:39:54.946Z</time></trkpt><trkpt lat="43.347568" lon="13.1026978"><ele>475.0</ele><time>2026-03-29T09:39:58.043Z</time></trkpt><trkpt lat="43.3475294" lon="13.1026221"><ele>475.0</ele><time>2026-03-29T09:39:59.033Z</time></trkpt><trkpt lat="43.3474876" lon="13.1025219"><ele>475.00000000000006</ele><time>2026-03-29T09:40:00.96Z</time></trkpt><trkpt lat="43.3475302" lon="13.1024388"><ele>475.0</ele><time>2026-03-29T09:40:02.937Z</time></trkpt><trkpt lat="43.3475517" lon="13.1023524"><ele>475.0</ele><time>2026-03-29T09:40:04.944Z</time></trkpt><trkpt lat="43.3475445" lon="13.1022454"><ele>475.50000000000006</ele><time>2026-03-29T09:40:06.954Z</time></trkpt><trkpt lat="43.3475419" lon="13.1021288"><ele>476.0</ele><time>2026-03-29T09:40:09.879Z</time></trkpt><trkpt lat="43.3475179" lon="13.1020186"><ele>476.5</ele><time>2026-03-29T09:40:12.956Z</time></trkpt><trkpt lat="43.3475161" lon="13.1019157"><ele>477.0</ele><time>2026-03-29T09:40:15.874Z</time></trkpt><trkpt lat="43.3475381" lon="13.1018181"><ele>477.50000000000006</ele><time>2026-03-29T09:40:18.961Z</time></trkpt><trkpt lat="43.3475517" lon="13.1017015"><ele>478.0</ele><time>2026-03-29T09:40:21.968Z</time></trkpt><trkpt lat="43.3475873" lon="13.1016068"><ele>478.7142857142858</ele><time>2026-03-29T09:40:24.856Z</time></trkpt><trkpt lat="43.3476222" lon="13.1014993"><ele>479.42857142857144</ele><time>2026-03-29T09:40:27.959Z</time></trkpt><trkpt lat="43.347666" lon="13.101429"><ele>480.14285714285717</ele><time>2026-03-29T09:40:31.962Z</time></trkpt><trkpt lat="43.347729" lon="13.1014253"><ele>480.8571428571429</ele><time>2026-03-29T09:40:40.919Z</time></trkpt><trkpt lat="43.3477963" lon="13.1014315"><ele>481.57142857142856</ele><time>2026-03-29T09:40:47.941Z</time></trkpt><trkpt lat="43.3478622" lon="13.1013921"><ele>482.2857142857143</ele><time>2026-03-29T09:40:55.956Z</time></trkpt><trkpt lat="43.3479231" lon="13.1013611"><ele>483.0</ele><time>2026-03-29T09:41:02.939Z</time></trkpt><trkpt lat="43.3479854" lon="13.1014075"><ele>485.42857142857144</ele><time>2026-03-29T09:41:12.042Z</time></trkpt><trkpt lat="43.3480474" lon="13.1014594"><ele>487.8571428571429</ele><time>2026-03-29T09:41:19.885Z</time></trkpt><trkpt lat="43.348106" lon="13.1015186"><ele>490.2857142857143</ele><time>2026-03-29T09:41:25.958Z</time></trkpt><trkpt lat="43.3481595" lon="13.1015684"><ele>492.7142857142857</ele><time>2026-03-29T09:41:30.962Z</time></trkpt><trkpt lat="43.3482219" lon="13.1016236"><ele>495.14285714285717</ele><time>2026-03-29T09:41:37.945Z</time></trkpt><trkpt lat="43.3482813" lon="13.1016783"><ele>497.57142857142856</ele><time>2026-03-29T09:41:44.966Z</time></trkpt><trkpt lat="43.3483392" lon="13.1017211"><ele>500.0</ele><time>2026-03-29T09:41:50.943Z</time></trkpt><trkpt lat="43.3484006" lon="13.1017585"><ele>500.0</ele><time>2026-03-29T09:41:56.964Z</time></trkpt><trkpt lat="43.3484614" lon="13.1018098"><ele>500.0</ele><time>2026-03-29T09:42:03.959Z</time></trkpt><trkpt lat="43.3485174" lon="13.1018754"><ele>500.0</ele><time>2026-03-29T09:42:09.951Z</time></trkpt><trkpt lat="43.3485528" lon="13.1019501"><ele>500.0</ele><time>2026-03-29T09:42:14.957Z</time></trkpt><trkpt lat="43.3486038" lon="13.1020055"><ele>500.0</ele><time>2026-03-29T09:42:19.964Z</time></trkpt><trkpt lat="43.3486715" lon="13.1020398"><ele>500.0</ele><time>2026-03-29T09:42:25.953Z</time></trkpt><trkpt lat="43.3487461" lon="13.1020618"><ele>500.0</ele><time>2026-03-29T09:42:32.025Z</time></trkpt><trkpt lat="43.3488025" lon="13.1021077"><ele>500.0</ele><time>2026-03-29T09:42:36.969Z</time></trkpt><trkpt lat="43.3488563" lon="13.1021527"><ele>500.0</ele><time>2026-03-29T09:42:42.959Z</time></trkpt><trkpt lat="43.3489049" lon="13.1022318"><ele>500.0</ele><time>2026-03-29T09:42:49.961Z</time></trkpt><trkpt lat="43.3489478" lon="13.1022988"><ele>500.0</ele><time>2026-03-29T09:42:54.96Z</time></trkpt><trkpt lat="43.349015" lon="13.1023633"><ele>500.0</ele><time>2026-03-29T09:43:00.963Z</time></trkpt><trkpt lat="43.3490795" lon="13.1024128"><ele>500.0</ele><time>2026-03-29T09:43:06.041Z</time></trkpt><trkpt lat="43.3491414" lon="13.1024666"><ele>500.0</ele><time>2026-03-29T09:43:09.959Z</time></trkpt><trkpt lat="43.3492036" lon="13.1025193"><ele>501.71428571428567</ele><time>2026-03-29T09:43:13.03Z</time></trkpt><trkpt lat="43.3492578" lon="13.1025803"><ele>503.42857142857144</ele><time>2026-03-29T09:43:15.952Z</time></trkpt><trkpt lat="43.3493095" lon="13.1026407"><ele>505.1428571428571</ele><time>2026-03-29T09:43:18.959Z</time></trkpt><trkpt lat="43.3493602" lon="13.1026951"><ele>506.85714285714283</ele><time>2026-03-29T09:43:21.963Z</time></trkpt><trkpt lat="43.3494079" lon="13.1027624"><ele>508.57142857142856</ele><time>2026-03-29T09:43:25.034Z</time></trkpt><trkpt lat="43.3494585" lon="13.1028233"><ele>510.2857142857143</ele><time>2026-03-29T09:43:27.957Z</time></trkpt><trkpt lat="43.3495156" lon="13.1028762"><ele>512.0</ele><time>2026-03-29T09:43:30.953Z</time></trkpt><trkpt lat="43.3495833" lon="13.1029405"><ele>511.99999999999994</ele><time>2026-03-29T09:43:34.96Z</time></trkpt><trkpt lat="43.3496398" lon="13.1029901"><ele>512.0</ele><time>2026-03-29T09:43:37.956Z</time></trkpt><trkpt lat="43.349691" lon="13.1030747"><ele>512.0</ele><time>2026-03-29T09:43:41.956Z</time></trkpt><trkpt lat="43.3497534" lon="13.1031071"><ele>512.0</ele><time>2026-03-29T09:43:45.955Z</time></trkpt><trkpt lat="43.3498263" lon="13.1031614"><ele>511.99999999999994</ele><time>2026-03-29T09:43:53.952Z</time></trkpt><trkpt lat="43.3498976" lon="13.1032161"><ele>512.0</ele><time>2026-03-29T09:43:57.959Z</time></trkpt><trkpt lat="43.3500728" lon="13.1032556"><ele>512.4285714285714</ele><time>2026-03-29T09:43:59.96Z</time></trkpt><trkpt lat="43.3501214" lon="13.1033321"><ele>512.8571428571428</ele><time>2026-03-29T09:44:02.867Z</time></trkpt><trkpt lat="43.3501911" lon="13.1033824"><ele>513.2857142857142</ele><time>2026-03-29T09:44:06.954Z</time></trkpt><trkpt lat="43.3502514" lon="13.1034108"><ele>513.7142857142857</ele><time>2026-03-29T09:44:09.922Z</time></trkpt><trkpt lat="43.3503167" lon="13.1033856"><ele>514.1428571428571</ele><time>2026-03-29T09:44:14.955Z</time></trkpt><trkpt lat="43.3503912" lon="13.1033303"><ele>514.5714285714286</ele><time>2026-03-29T09:44:18.963Z</time></trkpt><trkpt lat="43.3504391" lon="13.1032454"><ele>515.0</ele><time>2026-03-29T09:44:21.967Z</time></trkpt><trkpt lat="43.3504812" lon="13.1031709"><ele>516.0</ele><time>2026-03-29T09:44:24.966Z</time></trkpt><trkpt lat="43.3505389" lon="13.1031181"><ele>517.0</ele><time>2026-03-29T09:44:27.956Z</time></trkpt><trkpt lat="43.3506168" lon="13.1030848"><ele>518.0</ele><time>2026-03-29T09:44:30.911Z</time></trkpt><trkpt lat="43.3506825" lon="13.1030696"><ele>519.0</ele><time>2026-03-29T09:44:32.97Z</time></trkpt><trkpt lat="43.350753" lon="13.1030271"><ele>520.0</ele><time>2026-03-29T09:44:35.971Z</time></trkpt><trkpt lat="43.3508212" lon="13.1029778"><ele>521.0</ele><time>2026-03-29T09:44:38.967Z</time></trkpt><trkpt lat="43.3508715" lon="13.1029079"><ele>522.0</ele><time>2026-03-29T09:44:41.962Z</time></trkpt><trkpt lat="43.3509556" lon="13.1028586"><ele>522.0</ele><time>2026-03-29T09:44:44.944Z</time></trkpt><trkpt lat="43.351017" lon="13.1028266"><ele>522.0</ele><time>2026-03-29T09:44:46.953Z</time></trkpt><trkpt lat="43.3510988" lon="13.1027684"><ele>522.0</ele><time>2026-03-29T09:44:50.007Z</time></trkpt><trkpt lat="43.3511452" lon="13.1027031"><ele>522.0</ele><time>2026-03-29T09:44:51.963Z</time></trkpt><trkpt lat="43.3512152" lon="13.1026281"><ele>522.0</ele><time>2026-03-29T09:44:54.951Z</time></trkpt><trkpt lat="43.3512892" lon="13.1026253"><ele>522.0</ele><time>2026-03-29T09:44:58.052Z</time></trkpt><trkpt lat="43.3513306" lon="13.1026992"><ele>522.0</ele><time>2026-03-29T09:45:01.955Z</time></trkpt><trkpt lat="43.351362" lon="13.10278"><ele>522.0</ele><time>2026-03-29T09:45:06.093Z</time></trkpt><trkpt lat="43.3513796" lon="13.1028688"><ele>522.0</ele><time>2026-03-29T09:45:09.465Z</time></trkpt><trkpt lat="43.3513839" lon="13.1029701"><ele>522.0</ele><time>2026-03-29T09:45:12.713Z</time></trkpt><trkpt lat="43.3513637" lon="13.1030817"><ele>522.0</ele><time>2026-03-29T09:45:15.951Z</time></trkpt><trkpt lat="43.351392" lon="13.1031952"><ele>522.0</ele><time>2026-03-29T09:45:18.953Z</time></trkpt><trkpt lat="43.3513942" lon="13.1032818"><ele>522.0</ele><time>2026-03-29T09:45:20.964Z</time></trkpt><trkpt lat="43.3513521" lon="13.1033799"><ele>520.0</ele><time>2026-03-29T09:45:23.96Z</time></trkpt><trkpt lat="43.3513219" lon="13.1034647"><ele>518.0</ele><time>2026-03-29T09:45:27.967Z</time></trkpt><trkpt lat="43.3512921" lon="13.1035477"><ele>516.0</ele><time>2026-03-29T09:46:18.96Z</time></trkpt><trkpt lat="43.3512418" lon="13.103626"><ele>514.0</ele><time>2026-03-29T09:47:52.975Z</time></trkpt><trkpt lat="43.3511556" lon="13.1035748"><ele>512.0</ele><time>2026-03-29T09:50:05.963Z</time></trkpt><trkpt lat="43.3510953" lon="13.1036022"><ele>510.0</ele><time>2026-03-29T09:50:17.948Z</time></trkpt><trkpt lat="43.3510734" lon="13.1036936"><ele>508.0</ele><time>2026-03-29T09:50:37.965Z</time></trkpt><trkpt lat="43.3511451" lon="13.1038242"><ele>508.0</ele><time>2026-03-29T09:51:44.951Z</time></trkpt><trkpt lat="43.3510815" lon="13.1038417"><ele>508.0</ele><time>2026-03-29T09:51:45.963Z</time></trkpt><trkpt lat="43.3510124" lon="13.1038392"><ele>508.0</ele><time>2026-03-29T09:51:58.971Z</time></trkpt><trkpt lat="43.3509414" lon="13.1038268"><ele>508.0</ele><time>2026-03-29T09:54:18.962Z</time></trkpt><trkpt lat="43.3509238" lon="13.1039105"><ele>508.0</ele><time>2026-03-29T10:06:46.945Z</time></trkpt><trkpt lat="43.3508647" lon="13.1039564"><ele>508.0</ele><time>2026-03-29T10:07:09.032Z</time></trkpt><trkpt lat="43.3508848" lon="13.1040501"><ele>508.0</ele><time>2026-03-29T10:07:39.958Z</time></trkpt><trkpt lat="43.3509616" lon="13.1041396"><ele>508.00000000000006</ele><time>2026-03-29T10:07:42.961Z</time></trkpt><trkpt lat="43.3509986" lon="13.1042115"><ele>508.0</ele><time>2026-03-29T10:07:44.942Z</time></trkpt><trkpt lat="43.3509138" lon="13.1041547"><ele>508.0</ele><time>2026-03-29T10:08:03.943Z</time></trkpt><trkpt lat="43.3508893" lon="13.1040357"><ele>508.0</ele><time>2026-03-29T10:08:05.946Z</time></trkpt><trkpt lat="43.3509013" lon="13.1039359"><ele>508.00000000000006</ele><time>2026-03-29T10:08:08.946Z</time></trkpt><trkpt lat="43.3508497" lon="13.1038825"><ele>508.0</ele><time>2026-03-29T10:08:25.939Z</time></trkpt><trkpt lat="43.3508526" lon="13.1037935"><ele>508.0</ele><time>2026-03-29T10:08:28.939Z</time></trkpt><trkpt lat="43.3508611" lon="13.1036993"><ele>508.0</ele><time>2026-03-29T10:08:31.941Z</time></trkpt><trkpt lat="43.3509261" lon="13.1036371"><ele>508.0</ele><time>2026-03-29T10:08:39.951Z</time></trkpt><trkpt lat="43.3509331" lon="13.1035472"><ele>508.0</ele><time>2026-03-29T10:08:42.948Z</time></trkpt><trkpt lat="43.3509484" lon="13.1036508"><ele>508.0</ele><time>2026-03-29T10:09:01.939Z</time></trkpt><trkpt lat="43.3509798" lon="13.1037383"><ele>508.0</ele><time>2026-03-29T10:09:18.95Z</time></trkpt><trkpt lat="43.3509608" lon="13.1038311"><ele>508.0</ele><time>2026-03-29T10:09:24.957Z</time></trkpt><trkpt lat="43.3509596" lon="13.1039455"><ele>508.0</ele><time>2026-03-29T10:09:52.944Z</time></trkpt><trkpt lat="43.3509052" lon="13.1040424"><ele>508.0</ele><time>2026-03-29T10:09:54.949Z</time></trkpt><trkpt lat="43.3509025" lon="13.1041674"><ele>492.0</ele><time>2026-03-29T10:09:56.959Z</time></trkpt></trkseg></trk></gpx>